[[{"header":{"parameterUnit":"m.s-1","parameterCategory":1,"la1":30.6,"la2":28.766,"lo1":-90.7593,"lo2":-88.6598,"dy":0.0162,"dx":0.0183,"nx":116,"ny":114,"refTime":"2024-04-08T06:00:00:Z","depth":0,"parameterNumber":2,"parameterNumberName":"U-component_of_WINDS"},"data":[0.0,0.0,0.0,0.0,0.0,0.0,0.0,0.0,0.0,0.0,0.0,0.0,0.0,0.0,0.0,0.0,0.0,0.0,0.0,0.0,0.0,0.0,0.0,0.0,0.0,0.0,0.0,0.0,0.0,0.0,0.0,0.0,0.0,0.0,0.0,0.0,0.0,0.0,0.0,0.0,0.0,0.0,0.0,0.0,0.0,0.0,0.0,0.0,0.0,0.0,0.0,0.0,0.0,0.0,0.0,0.0,0.0,0.0,0.0,0.0,0.0,0.0,0.0,0.0,0.0,0.0,0.0,0.0,0.0,0.0,0.0,0.0,0.0,0.0,0.0,0.0,0.0,0.0,0.0,0.0,0.0,0.0,0.0,0.0,0.0,0.0,0.0,0.0,0.0,0.0,0.0,0.0,0.0,0.0,0.0,0.0,0.0,0.0,0.0,0.0,0.0,0.0,0.0,0.0,0.0,0.0,0.0,0.0,0.0,0.0,0.0,0.0,0.0,0.0,0.0,0.0,0.0,0.0,0.0,0.0,0.0,0.0,0.0,0.0,0.0,0.0,0.0,0.0,0.0,0.0,0.0,0.0,0.0,0.0,0.0,0.0,0.0,0.0,0.0,0.0,0.0,0.0,0.0,0.0,0.0,0.0,0.0,0.0,0.0,0.0,0.0,0.0,0.0,0.0,0.0,0.0,0.0,0.0,0.0,0.0,0.0,0.0,0.0,0.0,0.0,0.0,0.0,0.0,0.0,0.0,0.0,0.0,0.0,0.0,0.0,0.0,0.0,0.0,0.0,0.0,0.0,0.0,0.0,0.0,0.0,0.0,0.0,0.0,0.0,0.0,0.0,0.0,0.0,0.0,0.0,0.0,0.0,0.0,0.0,0.0,0.0,0.0,0.0,0.0,0.0,0.0,0.0,0.0,0.0,0.0,0.0,0.0,0.0,0.0,0.0,0.0,0.0,0.0,0.0,0.0,0.0,0.0,0.0,0.0,0.0,0.0,0.0,0.0,0.0,0.0,0.0,0.0,0.0,0.0,0.0,0.0,0.0,0.0,0.0,0.0,0.0,0.0,0.0,0.0,0.0,0.0,0.0,0.0,0.0,0.0,0.0,0.0,0.0,0.0,0.0,0.0,0.0,0.0,0.0,0.0,0.0,0.0,0.0,0.0,0.0,0.0,0.0,0.0,0.0,0.0,0.0,0.0,0.0,0.0,0.0,0.0,0.0,0.0,0.0,0.0,0.0,0.0,0.0,0.0,0.0,0.0,0.0,0.0,0.0,0.0,0.0,0.0,0.0,0.0,0.0,0.0,0.0,0.0,0.0,0.0,0.0,0.0,0.0,0.0,0.0,0.0,0.0,0.0,0.0,0.0,0.0,0.0,0.0,0.0,0.0,0.0,0.0,0.0,0.0,0.0,0.0,0.0,0.0,0.0,0.0,0.0,0.0,0.0,0.0,0.0,0.0,0.0,0.0,0.0,0.0,0.0,0.0,0.0,0.0,0.0,0.0,0.0,0.0,0.0,0.0,0.0,0.0,0.0,0.0,0.0,0.0,0.0,0.0,0.0,0.0,0.0,0.0,0.0,0.0,0.0,0.0,0.0,0.0,0.0,0.0,0.0,0.0,0.0,0.0,0.0,0.0,0.0,0.0,0.0,0.0,0.0,0.0,0.0,0.0,0.0,0.0,0.0,0.0,0.0,0.0,0.0,0.0,0.0,0.0,0.0,0.0,0.0,0.0,0.0,0.0,0.0,0.0,0.0,0.0,0.0,0.0,0.0,0.0,0.0,0.0,0.0,0.0,0.0,0.0,0.0,0.0,0.0,0.0,0.0,0.0,0.0,0.0,0.0,0.0,0.0,0.0,0.0,0.0,0.0,0.0,0.0,0.0,0.0,0.0,0.0,0.0,0.0,0.0,0.0,0.0,0.0,0.0,0.0,0.0,0.0,0.0,0.0,0.0,0.0,0.0,0.0,0.0,0.0,0.0,0.0,0.0,0.0,0.0,0.0,0.0,0.0,0.0,0.0,0.0,0.0,0.0,0.0,0.0,0.0,0.0,0.0,0.0,0.0,0.0,0.0,0.0,0.0,0.0,0.0,0.0,0.0,0.0,0.0,0.0,0.0,0.0,0.0,0.0,0.0,0.0,0.0,0.0,0.0,0.0,0.0,0.0,0.0,0.0,0.0,0.0,0.0,0.0,0.0,0.0,0.0,0.0,0.0,0.0,0.0,0.0,0.0,0.0,0.0,0.0,0.0,0.0,0.0,0.0,0.0,0.0,0.0,0.0,0.0,0.0,0.0,0.0,0.0,0.0,0.0,0.0,0.0,0.0,0.0,0.0,0.0,0.0,0.0,0.0,0.0,0.0,0.0,0.0,0.0,0.0,0.0,0.0,0.0,0.0,0.0,0.0,0.0,0.0,0.0,0.0,0.0,0.0,0.0,0.0,0.0,0.0,0.0,0.0,0.0,0.0,0.0,0.0,0.0,0.0,0.0,0.0,0.0,0.0,0.0,0.0,0.0,0.0,0.0,0.0,0.0,0.0,0.0,0.0,0.0,0.0,0.0,0.0,0.0,0.0,0.0,0.0,0.0,0.0,0.0,0.0,0.0,0.0,0.0,0.0,0.0,0.0,0.0,0.0,0.0,0.0,0.0,0.0,0.0,0.0,0.0,0.0,0.0,0.0,0.0,0.0,0.0,0.0,0.0,0.0,0.0,0.0,0.0,0.0,0.0,0.0,0.0,0.0,0.0,0.0,0.0,0.0,0.0,0.0,0.0,0.0,0.0,0.0,0.0,0.0,0.0,0.0,0.0,0.0,0.0,0.0,0.0,0.0,0.0,0.0,0.0,0.0,0.0,0.0,0.0,0.0,0.0,0.0,0.0,0.0,0.0,0.0,0.0,0.0,0.0,0.0,0.0,0.0,0.0,0.0,0.0,0.0,0.0,0.0,0.0,0.0,0.0,0.0,0.0,0.0,0.0,0.0,0.0,0.0,0.0,0.0,0.0,0.0,0.0,0.0,0.0,0.0,0.0,0.0,0.0,0.0,0.0,0.0,0.0,0.0,0.0,0.0,0.0,0.0,0.0,0.0,0.0,0.0,0.0,0.0,0.0,0.0,0.0,0.0,0.0,0.0,0.0,0.0,0.0,0.0,0.0,0.0,0.0,0.0,0.0,0.0,0.0,0.0,0.0,0.0,0.0,0.0,0.0,0.0,0.0,0.0,0.0,0.0,0.0,0.0,0.0,0.0,0.0,0.0,0.0,0.0,0.0,0.0,0.0,0.0,0.0,0.0,0.0,0.0,0.0,0.0,0.0,0.0,0.0,0.0,0.0,0.0,0.0,0.0,0.0,0.0,0.0,0.0,0.0,0.0,0.0,0.0,0.0,0.0,0.0,0.0,0.0,0.0,0.0,0.0,0.0,0.0,0.0,0.0,0.0,0.0,0.0,0.0,0.0,0.0,0.0,0.0,0.0,0.0,0.0,0.0,0.0,0.0,0.0,0.0,0.0,0.0,0.0,0.0,0.0,0.0,0.0,0.0,0.0,0.0,0.0,0.0,0.0,0.0,0.0,0.0,0.0,0.0,0.0,0.0,0.0,0.0,0.0,0.0,0.0,0.0,0.0,0.0,0.0,0.0,0.0,0.0,0.0,0.0,0.0,0.0,0.0,0.0,0.0,0.0,0.0,0.0,0.0,0.0,0.0,0.0,0.0,0.0,0.0,0.0,0.0,0.0,0.0,0.0,0.0,0.0,0.0,0.0,0.0,0.0,0.0,0.0,0.0,0.0,0.0,0.0,0.0,0.0,0.0,0.0,0.0,0.0,0.0,0.0,0.0,0.0,0.0,0.0,0.0,0.0,0.0,0.0,0.0,0.0,0.0,0.0,0.0,0.0,0.0,0.0,0.0,0.0,0.0,0.0,0.0,0.0,0.0,0.0,0.0,0.0,0.0,0.0,0.0,0.0,0.0,0.0,0.0,0.0,0.0,0.0,0.0,0.0,0.0,0.0,0.0,0.0,0.0,0.0,0.0,0.0,0.0,0.0,0.0,0.0,0.0,0.0,0.0,0.0,0.0,0.0,0.0,0.0,0.0,0.0,0.0,0.0,0.0,0.0,0.0,0.0,0.0,0.0,0.0,0.0,0.0,0.0,0.0,0.0,0.0,0.0,0.0,0.0,0.0,0.0,0.0,0.0,0.0,0.0,0.0,0.0,0.0,0.0,0.0,0.0,0.0,0.0,0.0,0.0,0.0,0.0,0.0,0.0,0.0,0.0,0.0,0.0,0.0,0.0,0.0,0.0,0.0,0.0,0.0,0.0,0.0,0.0,0.0,0.0,0.0,0.0,0.0,0.0,0.0,0.0,0.0,0.0,0.0,0.0,0.0,0.0,0.0,0.0,0.0,0.0,0.0,0.0,0.0,0.0,0.0,0.0,0.0,0.0,0.0,0.0,0.0,0.0,0.0,0.0,0.0,0.0,0.0,0.0,0.0,0.0,0.0,0.0,0.0,0.0,0.0,0.0,0.0,0.0,0.0,0.0,0.0,0.0,0.0,0.0,0.0,0.0,0.0,0.0,0.0,0.0,0.0,0.0,0.0,0.0,0.0,0.0,0.0,0.0,0.0,0.0,0.0,0.0,0.0,0.0,0.0,0.0,0.0,0.0,0.0,0.0,0.0,0.0,0.0,0.0,0.0,0.0,0.0,0.0,0.0,0.0,0.0,0.0,0.0,0.0,0.0,0.0,0.0,0.0,0.0,0.0,0.0,0.0,0.0,0.0,0.0,0.0,0.0,0.0,0.0,0.0,0.0,0.0,0.0,0.0,0.0,0.0,0.0,0.0,0.0,0.0,0.0,0.0,0.0,0.0,0.0,0.0,0.0,0.0,0.0,0.0,0.0,0.0,0.0,0.0,0.0,0.0,0.0,0.0,0.0,0.0,0.0,0.0,0.0,0.0,0.0,0.0,0.0,0.0,0.0,0.0,0.0,0.0,0.0,0.0,0.0,0.0,0.0,0.0,0.0,0.0,0.0,0.0,0.0,0.0,0.0,0.0,0.0,0.0,0.0,0.0,0.0,0.0,0.0,0.0,0.0,0.0,0.0,0.0,0.0,0.0,0.0,0.0,0.0,0.0,0.0,0.0,0.0,0.0,0.0,0.0,0.0,0.0,0.0,0.0,0.0,0.0,0.0,0.0,0.0,0.0,0.0,0.0,0.0,0.0,0.0,0.0,0.0,0.0,0.0,0.0,0.0,0.0,0.0,0.0,0.0,0.0,0.0,0.0,0.0,0.0,0.0,0.0,0.0,0.0,0.0,0.0,0.0,0.0,0.0,0.0,0.0,0.0,0.0,0.0,0.0,0.0,0.0,0.0,0.0,0.0,0.0,0.0,0.0,0.0,0.0,0.0,0.0,0.0,0.0,0.0,0.0,0.0,0.0,0.0,0.0,0.0,0.0,0.0,0.0,0.0,0.0,0.0,0.0,0.0,0.0,0.0,0.0,0.0,0.0,0.0,0.0,0.0,0.0,0.0,0.0,0.0,0.0,0.0,0.0,0.0,0.0,0.0,0.0,0.0,0.0,0.0,0.0,0.0,0.0,0.0,0.0,0.0,0.0,0.0,0.0,0.0,0.0,0.0,0.0,0.0,0.0,0.0,0.0,0.0,0.0,0.0,0.0,0.0,0.0,0.0,0.0,0.0,0.0,0.0,0.0,0.0,0.0,0.0,0.0,0.0,0.0,0.0,0.0,0.0,0.0,0.0,0.0,0.0,0.0,0.0,0.0,0.0,0.0,0.0,0.0,0.0,0.0,0.0,0.0,0.0,0.0,0.0,0.0,0.0,0.0,0.0,0.0,0.0,0.0,0.0,0.0,0.0,0.0,0.0,0.0,0.0,0.0,0.0,0.0,0.0,0.0,0.0,0.0,0.0,0.0,0.0,0.0,0.0,0.0,0.0,0.0,0.0,0.0,0.0,0.0,0.0,0.0,0.0,0.0,0.0,0.0,0.0,0.0,0.0,0.0,0.0,0.0,0.0,0.0,0.0,0.0,0.0,0.0,0.0,0.0,0.0,0.0,0.0,0.0,0.0,0.0,0.0,0.0,-5.9714,-5.9335,0.0,0.0,0.0,0.0,0.0,0.0,0.0,0.0,0.0,0.0,0.0,0.0,0.0,0.0,0.0,0.0,0.0,0.0,0.0,0.0,0.0,0.0,0.0,-5.3635,-5.4131,-5.502,-5.5099,-5.5099,-5.5099,-5.5099,0.0,0.0,0.0,0.0,0.0,0.0,-5.4942,-5.4628,-5.4942,-5.5162,-5.5221,-5.5221,-5.5226,-5.5099,0.0,0.0,0.0,0.0,0.0,0.0,0.0,0.0,0.0,0.0,0.0,0.0,0.0,0.0,0.0,0.0,0.0,0.0,0.0,0.0,0.0,0.0,0.0,0.0,0.0,0.0,0.0,0.0,0.0,0.0,0.0,0.0,0.0,0.0,0.0,0.0,0.0,0.0,0.0,0.0,0.0,0.0,0.0,0.0,0.0,0.0,0.0,0.0,0.0,0.0,0.0,0.0,0.0,0.0,0.0,0.0,0.0,0.0,0.0,0.0,0.0,0.0,0.0,0.0,0.0,0.0,0.0,0.0,0.0,0.0,-6.2529,-6.1222,0.0,0.0,0.0,0.0,0.0,0.0,0.0,0.0,0.0,0.0,0.0,0.0,0.0,0.0,0.0,0.0,0.0,0.0,0.0,0.0,0.0,-5.2772,-5.3452,-5.3922,-5.4471,-5.5177,-5.5151,-5.5151,-5.5229,-5.5151,-5.5099,-5.5099,-5.5099,-5.5099,-5.5099,-5.5099,-5.5099,-5.5099,-5.5412,-5.5747,-5.6124,-5.6262,-5.6228,-5.6112,-5.533,0.0,0.0,0.0,0.0,0.0,0.0,0.0,0.0,0.0,0.0,0.0,0.0,0.0,0.0,0.0,0.0,0.0,0.0,0.0,0.0,0.0,0.0,0.0,0.0,0.0,0.0,0.0,0.0,0.0,0.0,0.0,0.0,0.0,0.0,0.0,0.0,0.0,0.0,0.0,0.0,0.0,0.0,0.0,0.0,0.0,0.0,0.0,0.0,0.0,0.0,0.0,0.0,0.0,0.0,0.0,0.0,0.0,0.0,0.0,0.0,0.0,0.0,0.0,-6.7318,-6.8218,-6.9176,-6.9263,-6.9379,-6.935,-6.6796,-6.4648,-6.2964,-6.3283,0.0,0.0,0.0,0.0,0.0,0.0,0.0,0.0,0.0,0.0,0.0,0.0,0.0,0.0,0.0,0.0,0.0,0.0,0.0,-5.2903,-5.3975,-5.4158,-5.4628,-5.57,-5.536,-5.5308,-5.5778,-5.536,-5.5099,-5.5099,-5.5099,-5.5099,-5.5099,-5.5099,-5.5099,-5.5099,-5.6588,-5.7869,-5.8869,-5.9471,-6.0024,-6.0283,-5.6019,-5.504,-5.653,0.0,0.0,0.0,0.0,0.0,0.0,0.0,0.0,0.0,0.0,0.0,0.0,0.0,0.0,0.0,0.0,0.0,0.0,0.0,0.0,0.0,0.0,0.0,0.0,0.0,0.0,0.0,0.0,0.0,0.0,0.0,0.0,0.0,0.0,0.0,0.0,0.0,0.0,0.0,0.0,0.0,-6.1204,-6.0296,0.0,0.0,0.0,0.0,0.0,0.0,0.0,0.0,0.0,0.0,0.0,0.0,0.0,-6.4387,-6.6506,-6.6208,-6.6902,-6.8479,-7.0221,-7.0831,-7.0482,-7.1034,-7.1586,-7.2137,-7.2282,0.0,-6.6157,-6.5141,0.0,0.0,0.0,0.0,0.0,0.0,0.0,0.0,0.0,0.0,0.0,0.0,0.0,0.0,0.0,0.0,0.0,0.0,0.0,0.0,0.0,-5.5072,-5.5726,-5.5883,-5.6981,-5.712,-5.6013,-5.634,-5.6158,-5.5151,-5.5099,-5.5099,-5.5099,-5.5099,-5.5434,-5.6193,-5.8459,-5.983,-6.0298,-6.1505,-6.1993,-6.1888,-5.9236,-5.7884,-5.7523,-5.6354,0.0,0.0,0.0,0.0,0.0,0.0,0.0,0.0,0.0,0.0,0.0,0.0,0.0,0.0,0.0,0.0,0.0,0.0,0.0,0.0,0.0,0.0,0.0,0.0,0.0,0.0,0.0,0.0,0.0,0.0,0.0,0.0,0.0,0.0,0.0,0.0,0.0,0.0,0.0,-6.2317,-6.3544,-6.105,-6.2832,-6.3331,0.0,0.0,0.0,0.0,0.0,0.0,0.0,0.0,0.0,-6.6179,-6.518,-6.5886,-6.8527,-6.8791,-6.968,-7.1073,-7.3326,-7.4605,-7.504,-7.533,-7.5592,-7.5882,-7.6172,-7.4576,-7.1528,-6.8799,-6.6273,-6.4038,0.0,0.0,0.0,0.0,-6.3632,-6.4444,0.0,0.0,0.0,0.0,0.0,0.0,0.0,0.0,0.0,0.0,0.0,0.0,-5.4759,-5.6275,-5.7242,-5.7242,-5.8583,-5.8719,-5.7068,-5.711,-5.6599,-5.5252,-5.511,-5.5032,-5.4831,-5.5247,-5.6055,-5.73,-6.035,-6.189,-6.2157,-6.3958,-6.4618,-6.4228,-6.3262,-6.1562,-5.918,-5.7757,-5.6467,-5.5138,0.0,0.0,0.0,0.0,0.0,0.0,0.0,0.0,0.0,0.0,0.0,0.0,0.0,0.0,0.0,0.0,0.0,0.0,0.0,0.0,0.0,0.0,0.0,0.0,0.0,0.0,0.0,0.0,0.0,0.0,0.0,0.0,0.0,0.0,0.0,0.0,0.0,-6.356,-6.4798,-6.16,-6.3765,-6.4308,0.0,0.0,0.0,0.0,0.0,0.0,-6.1545,-6.266,-6.4718,-6.7634,-6.6628,-6.7418,-7.0408,-7.1123,-7.235,-7.3969,-7.654,-7.8262,-7.9365,-7.9365,-7.9278,-7.9133,-7.9133,-7.803,-7.594,-7.2079,-6.8799,-6.607,-6.4619,-6.4067,-6.4125,-6.4793,-6.5722,-6.6854,0.0,0.0,0.0,0.0,0.0,0.0,0.0,0.0,0.0,0.0,0.0,-5.4236,-5.6432,-5.7712,-5.9072,-6.0718,-5.9596,-5.9206,-5.9914,-5.718,-5.5468,-5.5365,-5.5185,-5.4764,-5.4064,-5.5585,-5.6995,-5.8148,-6.1916,-6.434,-6.5492,-6.775,-6.8907,-6.889,-6.7894,-6.5503,-6.2075,-5.8479,-5.7273,-5.7449,-5.4834,0.0,0.0,0.0,0.0,0.0,0.0,0.0,0.0,0.0,0.0,0.0,0.0,0.0,0.0,0.0,0.0,0.0,0.0,0.0,0.0,0.0,0.0,0.0,0.0,0.0,0.0,0.0,0.0,0.0,0.0,0.0,0.0,0.0,0.0,0.0,0.0,0.0,0.0,-6.1534,-6.3221,0.0,0.0,0.0,0.0,-6.0347,-6.2246,-6.3907,-6.5092,-6.6276,-6.7538,-6.8935,-6.8062,-6.8852,-7.1745,-7.2668,-7.4444,-7.7219,-7.9708,-8.1339,-8.2007,-8.2007,-8.1659,-8.1049,-8.1049,-7.9975,-7.7943,-7.4082,-7.1324,-6.935,-6.7434,-6.668,-6.6767,-6.7434,-6.8102,-6.8857,0.0,0.0,0.0,0.0,0.0,-4.8564,-4.9714,-5.0211,-5.1178,-5.3138,-5.4341,-5.5883,-5.8209,-6.0189,-6.2012,-6.375,-6.323,-6.2635,-6.2066,-5.9286,-5.7215,-5.6136,-5.5465,-5.5486,-5.6375,-5.7158,-5.8638,-6.0865,-6.3766,-6.5594,-6.6566,-6.8762,-6.9866,-6.9948,-6.9566,-6.8309,-6.6183,-6.232,-5.9659,-5.775,-5.6018,-5.4436,0.0,0.0,0.0,0.0,0.0,0.0,0.0,0.0,0.0,0.0,0.0,0.0,0.0,0.0,0.0,0.0,0.0,0.0,0.0,0.0,0.0,0.0,0.0,0.0,0.0,0.0,0.0,0.0,0.0,0.0,0.0,0.0,0.0,0.0,0.0,0.0,0.0,-6.5674,-6.8797,0.0,-6.4099,-6.2938,-6.2527,-6.2712,-6.3363,-6.4283,-6.5749,-6.6933,-6.8631,-7.1021,-6.9962,-7.0545,-7.3109,-7.3407,-7.474,-7.6944,-7.907,-8.0784,-8.2181,-8.1746,-8.1659,-8.1804,-8.0962,-8.0236,-7.9423,-7.6782,-7.4082,-7.1411,-6.9495,-6.8741,-6.877,-6.9002,-7.0018,-7.1324,0.0,0.0,0.0,0.0,0.0,-4.8355,-4.9688,-5.0237,-5.1178,-5.3138,-5.5069,-5.732,-6.0002,-6.2741,-6.5019,-6.6529,-6.6073,-6.4955,-6.3179,-6.007,-5.7597,-5.6091,-5.5314,-5.5684,-5.7284,-5.8379,-6.0074,-6.2473,-6.5129,-6.6755,-6.7292,-6.9573,-7.0634,-7.0556,-7.0932,-7.0581,-6.9551,-6.6589,-6.3099,-5.9408,-5.7524,-5.6319,-5.5315,0.0,0.0,0.0,0.0,0.0,0.0,0.0,0.0,0.0,0.0,0.0,0.0,0.0,0.0,0.0,0.0,0.0,0.0,0.0,0.0,0.0,0.0,0.0,0.0,0.0,0.0,0.0,0.0,0.0,0.0,0.0,0.0,0.0,0.0,-6.7057,-6.9198,-6.7726,-7.1087,-7.1472,-6.6472,-6.5392,-6.5077,-6.5102,-6.5799,-6.6739,-6.7995,-6.8949,-7.032,-7.2334,-7.1322,-7.1677,-7.3378,-7.3923,-7.478,-7.5993,-7.7933,-7.9745,-8.1546,-8.1086,-8.1354,-8.2152,-8.131,-8.0701,-8.0178,-7.8669,-7.6666,-7.4343,-7.2224,-7.1002,-7.062,-7.1143,-7.2166,-7.324,0.0,0.0,0.0,0.0,0.0,-4.7885,-4.961,-4.9871,-5.0734,-5.3086,-5.5569,-5.8373,-6.1709,-6.5249,-6.7873,-6.9219,-6.7707,-6.5816,-6.353,-5.9234,-5.6268,-5.5127,-5.4774,-5.5315,-5.6733,-5.906,-6.1151,-6.2712,-6.6036,-6.7703,-6.7869,-7.0508,-7.1544,-7.1184,-7.2263,-7.2439,-7.1887,-7.0807,-6.7518,-6.2797,-5.9433,-5.8654,-5.9081,0.0,0.0,0.0,0.0,0.0,0.0,0.0,0.0,0.0,0.0,0.0,0.0,0.0,0.0,0.0,0.0,0.0,0.0,0.0,0.0,0.0,0.0,0.0,0.0,0.0,0.0,0.0,0.0,0.0,0.0,0.0,0.0,0.0,-6.1934,-6.5739,-6.8011,-6.7343,-6.9652,-6.9878,-6.6258,-6.7593,-6.8296,-6.7241,-6.9652,-7.141,-7.1962,-7.2489,-7.2791,-7.2791,-7.2263,-7.2238,-7.274,-7.4114,-7.4807,-7.4871,-7.6698,-7.851,-8.0364,-8.0307,-8.1031,-8.2129,-8.2152,-8.1455,-8.0265,-7.9569,-7.8959,-7.8098,-7.5592,-7.3587,-7.233,-7.3958,-7.4576,-7.4576,0.0,0.0,0.0,-4.6025,-4.6447,-4.731,-4.9035,-4.9636,-5.0734,-5.3086,-5.6546,-6.0206,-6.4091,-6.695,-6.9855,-7.3082,-6.8718,-6.5647,-6.5371,-5.9566,-5.5731,-5.4891,-5.5067,-5.6533,-5.9532,-6.045,-6.2311,-6.5071,-6.648,-6.7643,-6.8422,-7.0009,-7.1318,-7.2288,-7.259,-7.2891,-7.3067,-7.2364,-7.0807,-6.8422,-6.3902,-6.1065,-5.9207,0.0,0.0,0.0,0.0,0.0,0.0,0.0,0.0,0.0,0.0,0.0,0.0,0.0,0.0,0.0,0.0,0.0,0.0,0.0,0.0,0.0,0.0,0.0,0.0,0.0,0.0,0.0,0.0,0.0,0.0,0.0,-6.0938,-6.2894,-6.5511,-6.8621,-7.1207,-7.2761,-7.4547,-7.4588,-7.1718,-7.1469,-7.1485,-7.1184,-7.2238,-7.3142,-7.3694,-7.387,-7.3946,-7.3946,-7.3795,-7.3619,-7.3368,-7.3762,-7.4464,-7.5382,-7.5902,-7.7136,-7.894,-7.949,-8.011,-8.0781,-8.0807,-8.0875,-8.0875,-7.9743,-7.8459,-7.7139,-7.6761,-7.6092,-7.5283,-7.5762,-7.5911,-7.5853,0.0,0.0,0.0,-4.5581,-4.5898,-4.6787,-4.8773,-4.9348,-5.0472,-5.306,-5.7364,-6.1516,-6.5053,-6.8241,-7.0883,-7.2861,-6.8402,-6.4836,-6.3134,-5.7973,-5.5011,-5.507,-5.6378,-5.8477,-6.1426,-6.2657,-6.4342,-6.6695,-6.7604,-6.8447,-6.9325,-7.0681,-7.1937,-7.3117,-7.3569,-7.3971,-7.4272,-7.392,-7.3268,-7.2188,-6.8823,-6.581,-6.2948,-5.9583,-5.8529,-5.8579,-5.6445,-5.6068,-5.6294,-5.4536,0.0,0.0,0.0,0.0,0.0,0.0,0.0,0.0,0.0,0.0,0.0,0.0,0.0,0.0,0.0,0.0,0.0,0.0,0.0,0.0,0.0,0.0,0.0,0.0,-6.2936,-6.568,-6.8779,-7.0671,-7.2489,-7.4601,-7.6073,-7.6177,-7.4419,-7.4171,-7.4021,-7.3795,-7.4297,-7.4749,-7.5101,-7.5101,-7.5101,-7.5101,-7.4875,-7.4598,-7.4272,-7.382,-7.3837,-7.4351,-7.5016,-7.6222,-7.8101,-7.9012,-7.9633,-7.997,-8.0501,-8.013,-7.9232,-7.9255,-7.8702,-7.777,0.0,0.0,0.0,0.0,-7.623,-7.6288,0.0,0.0,0.0,-4.5506,-4.5477,-4.6264,-4.846,-4.8904,-5.0002,-5.2825,-5.7778,-6.212,-6.4784,-6.8591,-7.0673,-7.021,-6.7103,-6.3316,-5.8781,-5.5761,-5.4607,-5.5792,-5.8502,-6.0836,-6.2839,-6.5097,-6.6771,-6.7811,-6.8927,-6.9853,-7.048,-7.2012,-7.3117,-7.382,-7.4799,-7.5276,-7.5327,-7.5276,-7.495,-7.4423,-7.3293,-7.1184,-6.8221,-6.3651,-6.2697,-6.3425,-6.0814,-5.8981,-5.7575,-5.6294,0.0,0.0,0.0,0.0,0.0,0.0,0.0,0.0,0.0,0.0,0.0,0.0,0.0,0.0,0.0,0.0,0.0,0.0,0.0,0.0,0.0,0.0,0.0,0.0,-6.5233,-6.8547,-7.1736,-7.2238,-7.2891,-7.4498,-7.5552,-7.5979,-7.5552,-7.5854,-7.5879,-7.5452,-7.5804,-7.6055,-7.6055,-7.6055,0.0,0.0,0.0,-7.5301,-7.5251,-7.4389,-7.3584,-7.2816,-7.4231,-7.5645,-7.7079,-7.8334,-7.8933,-7.91,-8.0178,-7.9232,-7.7029,-7.8624,-7.9307,-7.922,-7.8553,-7.7009,-7.513,-7.5329,-7.5795,-7.6085,0.0,0.0,-4.4356,-4.4826,-4.485,-4.5375,-4.6761,-4.7754,-4.9218,-5.1622,-5.652,-6.0493,-6.2448,-6.5076,-6.7493,-6.973,-6.4379,-5.992,-5.7337,-5.6866,-5.7328,-5.8604,-6.1626,-6.3699,-6.4697,-6.6847,-6.8344,-6.9004,-6.9772,-7.0606,-7.161,-7.2364,-7.3519,-7.4925,-7.5151,-7.5477,-7.5854,-7.5427,-7.5176,-7.4975,-7.387,-7.1761,-6.9074,-6.7216,-6.5609,-6.4128,-6.2697,-6.227,-6.2019,-5.9533,-5.9156,-5.9182,-5.5942,-5.4913,0.0,0.0,0.0,0.0,0.0,0.0,0.0,0.0,0.0,0.0,0.0,0.0,0.0,0.0,0.0,0.0,0.0,0.0,0.0,-6.4254,-6.7819,-7.1133,-7.3594,-7.4322,-7.505,-7.6256,-7.6582,-7.6858,-7.7185,-7.6507,-7.6205,-7.6532,-7.6256,-7.6055,-7.6055,-7.6055,-7.6055,-7.6055,-7.5954,-7.5678,-7.5251,-7.6106,-7.549,-7.3418,-7.4825,0.0,-7.3681,-7.4516,-7.5431,-7.6382,-7.7114,-7.8004,-7.8781,-7.9122,-7.9307,-7.9191,-7.803,-7.7279,-7.6703,-7.5211,-7.5127,-7.5504,0.0,-4.3885,-4.3964,-4.4251,-4.4539,-4.5114,-4.629,-4.744,-4.8904,-5.0943,-5.5491,-5.9072,-6.0509,-6.2476,-6.409,-6.5071,-6.0116,-5.6872,-5.6755,-5.7738,-5.9509,-6.2157,-6.5098,-6.701,-6.7631,-6.9491,-7.0514,-7.0503,-7.1443,-7.2285,-7.3118,-7.3673,-7.449,-7.5653,-7.5653,-7.5804,-7.603,-7.5753,-7.5653,-7.5603,-7.505,-7.382,-7.2138,-7.0179,-6.8924,-6.797,-6.6312,-6.5559,-6.4982,-6.2747,-6.1818,-6.1165,-5.8654,-5.7499,-5.6671,0.0,0.0,0.0,0.0,0.0,0.0,0.0,0.0,0.0,0.0,0.0,0.0,0.0,0.0,-5.6394,-5.8353,0.0,-6.5308,-6.7794,-7.0531,-7.3016,-7.4975,-7.5703,-7.6256,-7.6808,-7.6883,-7.7084,-7.7637,-7.6959,-7.6582,-7.6858,-7.6356,-7.6055,-7.6055,-7.6055,-7.6055,-7.6055,-7.7086,-7.6958,-7.5653,-7.6744,-7.6716,-7.5421,-7.6442,-7.7018,-7.7054,-7.7721,-7.7699,-7.7063,-7.7675,-7.7792,-7.7585,-7.8503,-7.8465,-7.7798,-7.684,-7.6637,-7.6724,-7.5098,-7.4721,-7.4866,0.0,0.0,-4.3729,-4.3912,-4.433,-4.5062,-4.6003,-4.7205,-4.8616,-5.0237,-5.4184,-5.7216,-5.8261,-5.9725,-6.0206,-5.9238,-5.6622,-5.5692,-5.7241,-5.9264,-6.2045,-6.577,-6.8403,-7.0093,-7.0611,-7.2011,-7.2631,-7.2308,-7.3309,-7.4013,-7.4636,-7.5092,-7.5562,-7.6055,-7.6055,-7.6055,-7.6055,-7.6055,-7.6055,-7.6055,-7.6055,-7.5804,-7.5151,-7.2791,-7.2037,-7.1987,-6.9978,-6.8196,-6.6589,-6.5107,-6.3525,-6.1994,-6.0964,-6.0136,-5.9106,-5.6997,-5.6219,0.0,0.0,0.0,0.0,0.0,0.0,0.0,0.0,-5.2503,-5.3557,-5.5867,-5.7775,-5.9784,-6.2345,-6.5534,-6.8572,-7.1008,-7.2916,-7.4548,-7.5879,-7.6532,-7.6883,-7.6883,-7.6883,-7.7084,-7.7637,-7.7109,-7.6758,-7.6858,-7.6356,-7.6055,-7.6055,-7.6055,-7.6227,-7.6621,-7.7814,-7.8008,-7.7256,-7.7702,-7.785,-7.7823,-7.8632,-7.9509,-8.0552,-8.086,-7.9865,-7.817,-7.8782,-7.7949,-7.6142,-7.7635,-7.7595,-7.655,-7.5534,-7.5534,-7.5911,-7.4634,-7.414,-7.4082,0.0,0.0,0.0,-4.3781,-4.433,-4.4774,-4.4905,-4.6342,-4.7885,-4.9113,-5.1962,-5.4105,-5.4707,-5.5438,-5.5438,-5.4275,-5.7016,-5.9195,-5.9976,-6.2972,-6.588,-6.8613,-7.1251,-7.2529,-7.2241,-7.3354,-7.4182,-7.4634,-7.4788,-7.5213,-7.5828,-7.5879,-7.5941,-7.6055,-7.6055,-7.6055,-7.6055,-7.6055,-7.6055,-7.6055,-7.6055,-7.603,-7.5879,-7.5075,-7.4197,-7.3242,-7.1987,-6.925,-6.6112,-6.5434,-6.4103,-6.2621,-6.2019,-6.2069,-6.1667,-5.8001,-5.6244,-5.4863,-5.2051,-5.1046,-5.0845,-5.1122,-5.1599,-5.2528,0.0,-5.5365,-5.652,-5.9207,-6.1517,-6.3576,-6.5333,-6.8371,-7.1033,-7.2339,-7.4372,-7.5854,-7.603,-7.6532,-7.6883,-7.6883,-7.6883,-7.7084,-7.7637,-7.6758,-7.6356,-7.6833,-7.6356,-7.6055,-7.6055,-7.6055,-7.689,-7.8657,-7.7184,-7.8008,-8.1351,-8.0259,-7.9848,-7.9848,-8.0636,-7.9951,-7.7896,-7.6928,-7.651,-7.6742,-7.7978,-7.804,-7.7202,-7.7431,-7.742,-7.7072,-7.475,-7.4198,-7.4576,-7.3298,-7.2834,-7.2805,0.0,0.0,0.0,-4.3337,-4.4121,-4.4668,-4.4668,-4.5924,-4.7127,-4.7963,-5.0289,-5.2093,-5.2642,-5.3217,-5.3243,-5.2433,-5.4811,-5.7773,-6.1148,-6.4534,-6.8237,-7.2341,-7.4547,-7.5395,-7.4899,-7.568,-7.6045,-7.5967,-7.6353,-7.6676,-7.6876,-7.6876,-7.6893,-7.6941,-7.6646,-7.6548,-7.6449,-7.6252,-7.6055,-7.6055,-7.6055,-7.5854,-7.5477,-7.4623,-7.2991,-7.1083,-7.028,-6.8547,0.0,-6.4103,-6.3124,-6.2722,-6.2169,-6.1718,-6.0864,-5.8303,-5.6746,-5.5465,-5.3683,-5.2302,-5.1674,-5.2904,-5.3858,-5.4988,-5.6897,-5.8252,-5.9784,-6.222,-6.453,-6.6689,-6.8648,-7.146,-7.377,-7.4548,-7.5703,-7.6532,-7.6532,-7.618,-7.5552,-7.4573,-7.4749,-7.5678,-7.7511,-7.6984,-7.6632,-7.6858,-7.6356,-7.6621,-7.7742,-7.7814,-7.8501,-8.0068,-8.0883,-8.1349,-8.1459,-8.2062,-8.2214,-8.1854,-8.1871,-8.149,-8.0786,-7.9486,-7.8172,-7.7034,-7.7607,-7.7246,-7.6317,-7.6695,-7.6433,-7.5621,-7.4169,-7.3763,-7.3879,-7.295,-7.2602,-7.2602,0.0,0.0,0.0,-4.3232,-4.4068,-4.4668,-4.4668,-4.5584,-4.6612,-4.7687,-4.8976,-5.0228,-5.1276,-5.1757,-5.1957,-5.1883,-5.3279,-5.6275,-6.1163,-6.5318,-6.9609,-7.4179,-7.7266,-7.8418,-7.7627,-7.8577,-7.8657,-7.7864,-7.8287,-7.8331,-7.8013,-7.7858,-7.7879,-7.8061,-7.7362,-7.7093,-7.7274,-7.6576,-7.6328,-7.6281,-7.6281,-7.5678,-7.4623,-7.3217,-7.0757,-6.7995,-6.7467,-6.5961,-6.3852,-6.1266,-6.0462,-6.0588,-6.0814,-6.0412,-5.9533,-5.7725,-5.6093,-5.4737,-5.426,-5.3457,-5.3155,-5.4637,-5.6068,-5.76,-5.9433,-6.114,-6.3086,-6.5866,-6.7905,-6.9858,-7.2149,-7.4153,-7.5653,-7.618,-7.6733,-7.7059,-7.6908,-7.5929,-7.4548,-7.2715,-7.2464,-7.3217,-7.5226,-7.5904,-7.6331,-7.6632,-7.6281,-7.6719,-7.8104,-7.8753,-7.9582,-8.0988,-8.2884,-8.3453,-8.2622,-8.3237,-8.3661,-8.393,-8.2937,-8.2532,-8.2588,-8.0904,-7.9046,-7.713,-7.713,-7.6521,-7.5534,-7.5998,-7.5534,-7.4488,-7.385,-7.3618,-7.3531,-7.2863,-7.2602,-7.2602,0.0,0.0,0.0,0.0,-4.433,-4.4668,-4.4668,-4.5245,-4.6418,-4.8758,-4.8103,-4.8263,-5.0567,-5.083,-5.1303,-5.2344,-5.3551,-5.5935,-6.0013,-6.5721,-7.0207,-7.3039,-7.8885,-8.1509,-8.0238,-8.2004,-8.2398,-8.1107,-8.1134,-8.0482,-7.923,-7.8634,-7.8678,-7.9188,-7.8112,-7.7919,-7.8365,-7.7299,-7.6851,-7.6858,-7.6858,-7.5552,-7.3393,-7.1209,-6.797,-6.4555,-6.4028,-6.104,-5.7248,-5.6595,-5.5691,-5.5189,-5.7349,-5.8378,-5.8328,-5.6118,-5.3557,-5.1649,-5.2703,-5.3708,-5.4762,-5.5892,-5.7801,-5.9985,-6.2195,-6.3977,-6.6357,-7.0446,-7.1973,-7.3306,-7.5781,-7.6152,-7.6205,-7.6758,-7.731,-7.7486,-7.6959,-7.5929,-7.4423,-7.2188,-7.0531,-6.9602,-6.9586,-7.2615,-7.4925,-7.6004,-7.6055,-7.6153,-7.6153,-7.8008,-7.9582,-8.0988,-8.1079,-8.2919,-8.68,-8.3674,-8.3448,-8.5928,-8.4043,-8.2448,-8.1165,-7.8669,-7.713,-7.6567,-7.6567,-7.6114,-7.5504,-7.5534,-7.5127,-7.4459,-7.385,-7.3618,-7.3531,-7.2863,-7.2602,-7.2602,0.0,0.0,0.0,0.0,0.0,-4.6919,-4.6919,-4.5822,-4.6112,-4.9192,-5.0244,0.0,0.0,0.0,0.0,0.0,-5.4396,-5.6549,-6.0716,-6.554,-6.9702,-7.3022,-7.8511,-8.1225,-8.0724,-8.271,-8.3634,-8.362,-8.362,-8.348,-8.3068,-8.3233,-8.2506,-8.1079,-8.1164,-8.0411,-7.9049,-7.8628,-7.7573,-7.6317,-7.5963,-7.3981,-7.1184,-6.9325,-6.5534,-6.0914,0.0,-5.6746,-5.4561,-5.2929,-5.2628,-5.3055,-5.3808,-5.4436,-5.4662,-5.3532,-5.4108,-5.5252,-5.5934,-5.8333,-6.0962,-6.2432,-6.4292,-6.5869,-6.6577,-6.9354,-7.1661,-7.1398,-7.2726,-7.4121,-7.4407,-7.5083,-7.5578,-7.5653,-7.6895,-7.8045,-7.8807,-7.7093,-7.5182,-7.3479,-7.1333,-6.9968,-6.9837,-7.2102,-7.3765,-7.4368,-7.7141,-7.9147,-8.0009,-8.1909,-8.3558,-8.4953,-8.4953,-8.5392,-8.6361,-8.4871,-8.4352,-8.4707,-8.2384,-8.0585,-7.9278,-7.7566,-7.6433,-7.5795,-7.5359,-7.4808,-7.4256,-7.4256,-7.385,-7.324,-7.3037,-7.295,-7.2921,-7.2689,-7.2602,-7.2544,0.0,0.0,0.0,0.0,0.0,0.0,0.0,0.0,0.0,0.0,0.0,0.0,0.0,0.0,0.0,0.0,0.0,-5.6241,-5.952,-6.362,-6.7284,-7.0405,-7.5364,-7.8141,-7.8152,-7.9796,-8.0792,-8.1036,-8.149,-8.1718,-8.1706,-8.2605,-8.2409,-8.1179,-8.1982,-8.1442,-7.9838,-7.9476,-7.7744,-7.5319,-7.4073,-7.114,-6.7342,-6.505,-6.1069,0.0,-5.3959,-5.2244,-5.1028,-4.9866,-5.0082,-5.0892,-5.1163,-5.1823,-5.2685,-5.3279,-5.5558,-5.8185,-5.967,-6.2587,-6.56,-6.7108,-6.8802,-7.0227,-7.0488,-7.2704,-7.4239,-7.2758,-7.306,-7.334,-7.2886,-7.2828,-7.3171,-7.4243,-7.56,-7.7337,-7.965,-7.7598,-7.5551,-7.4689,-7.2335,-7.0684,-7.0637,-7.2497,-7.41,-7.484,-7.7297,-7.9671,-8.1503,-8.353,-8.4885,-8.5537,-8.605,-8.61,-8.5694,-8.5055,-8.43,-8.34,-8.1281,-7.9627,-7.8349,-7.7043,-7.6114,-7.5475,-7.4576,-7.3966,-7.3589,-7.3356,-7.3008,-7.2602,-7.2602,-7.2602,-7.2602,-7.2602,-7.2602,-7.2515,0.0,0.0,0.0,0.0,0.0,0.0,0.0,0.0,0.0,0.0,0.0,0.0,0.0,0.0,0.0,0.0,0.0,0.0,-5.6693,-6.0157,-6.3147,-6.5447,-7.0176,-7.2767,-7.2865,-7.4188,-7.4573,-7.4066,-7.5282,-7.5869,-7.5886,-7.7252,-7.8429,-7.9352,-8.0193,-8.0552,-8.0249,-7.9172,-7.6916,-7.3787,-7.1269,-6.7238,-6.225,-5.8933,-5.5391,-5.1917,-4.9794,-4.8204,-4.7145,-4.7803,-4.8393,-4.8957,-4.9672,-5.0968,-5.2704,-5.5282,-5.7938,-6.0568,-6.3638,-6.6551,-6.8963,-6.9931,-7.1437,-7.2941,-7.3839,-7.3974,-7.4088,-7.4321,-7.2846,-7.1336,-7.1241,-6.979,-6.9615,-7.2737,-7.3925,-7.585,-7.9714,-7.7817,-7.6059,-7.6212,-7.3704,-7.1959,-7.1957,-7.3837,-7.5755,-7.7368,-7.7061,-7.814,-8.1052,-8.3065,-8.388,-8.3233,-8.4446,-8.5113,-8.5084,-8.4358,-8.3342,-8.2094,-8.0846,-7.9569,-7.832,-7.7014,-7.6056,-7.5388,-7.4111,-7.356,-7.3501,-7.2892,-7.2602,-7.2602,-7.2602,-7.2602,-7.2602,-7.2602,-7.2602,-7.2485,0.0,0.0,0.0,0.0,0.0,0.0,0.0,0.0,0.0,0.0,0.0,0.0,0.0,0.0,0.0,0.0,0.0,0.0,-5.6942,-5.9747,-6.2085,-6.3701,-6.8203,-7.0933,-7.1422,-7.326,-7.4334,-7.4693,-7.502,-7.5153,-7.5125,-7.6049,-7.5581,-7.3992,-7.5211,-7.4649,-7.2775,-7.2941,-7.1033,-6.7907,-6.7743,-6.4589,-5.9946,-6.0498,-5.7693,-5.3385,-5.2945,-5.1803,-5.0364,-4.9845,-5.1163,-5.3103,-5.3653,-5.4474,-5.5833,-5.8841,-6.2648,-6.6339,-6.8754,-7.294,-7.645,-7.565,-7.6415,-7.6919,-7.5357,-7.5045,-7.4117,-7.0825,-6.9477,-6.8254,-6.6318,-6.7439,-6.96,-7.2294,-7.557,-7.9202,-8.3132,-8.2092,-8.1065,-8.1287,-7.8734,-7.7034,-7.732,-7.6082,-7.7065,-8.1342,-8.1546,-8.2224,-8.3924,-8.5839,-8.6659,-8.6025,-8.5846,-8.5549,-8.5084,-8.3487,-8.2036,-8.0759,-7.9946,-7.8901,-7.7624,-7.6346,-7.5388,-7.4692,-7.3414,-7.2863,-7.2863,-7.2689,-7.2602,-7.2602,-7.2602,-7.2602,-7.2602,-7.2602,-7.2311,-7.1818,0.0,0.0,0.0,0.0,0.0,0.0,0.0,0.0,0.0,0.0,0.0,0.0,0.0,0.0,0.0,0.0,0.0,0.0,0.0,-5.8112,-5.9398,-6.0416,-6.2929,-6.4755,-6.5712,-6.6819,-6.8016,-6.9273,-6.9572,-7.0141,-7.1009,-7.1966,-7.1644,-7.035,-7.1864,-7.1627,-7.0034,-7.0335,-6.8512,0.0,0.0,-6.1781,-5.8038,-5.8538,-5.6648,-5.3747,-5.3804,-5.3926,-5.409,-5.4869,-5.5816,-5.6821,-5.7834,-5.9592,-6.1912,-6.5191,-6.8774,-7.2199,-7.4838,-7.8189,-8.0612,-7.9507,-7.9547,-7.9025,-7.5945,-7.4526,-7.2445,-6.7587,-6.5721,-6.4415,-6.2674,-6.427,-6.716,-7.1044,-7.5008,-7.9182,-8.3963,-8.369,-8.3354,-8.4312,-8.2454,-8.1209,-8.1411,-8.0007,-8.0526,-8.384,-8.28,-8.3074,-8.5303,-8.6198,-8.6506,-8.6158,-8.552,-8.4997,-8.4649,-8.2471,-8.1281,-8.1107,-7.9888,-7.8785,-7.7798,-7.6521,-7.5417,-7.443,-7.3153,-7.2602,-7.2602,-7.2602,-7.2602,-7.2602,-7.2602,-7.2602,-7.2602,-7.2602,-7.2224,-7.1586,0.0,0.0,0.0,0.0,0.0,0.0,0.0,0.0,0.0,0.0,-5.2875,-5.3443,0.0,0.0,0.0,0.0,0.0,0.0,0.0,0.0,-5.6526,-5.7064,-5.7184,-5.7812,-5.9069,-5.9099,-5.9967,-6.1702,-6.2271,-6.3408,-6.5114,-6.6251,-6.6789,-6.6879,-6.8585,-6.9034,-6.8525,-6.8525,-6.6837,-6.3849,-6.1779,-5.9194,-5.6541,0.0,-5.4758,-5.376,-5.3907,-5.5224,-5.7366,-6.0851,-6.1307,-6.0794,-6.2555,-6.561,-6.9205,-7.2519,-7.5134,-7.7627,-8.0793,-8.2285,-8.2732,-8.1916,-8.1095,-7.9407,-7.5626,-7.2707,-6.9399,-6.445,-6.2009,-6.0556,-5.9916,-6.099,-6.3951,-6.9989,-7.3531,-7.7595,-8.3633,-8.3952,-8.4242,-8.6071,-8.5287,-8.4591,-8.4591,-8.4533,-8.4765,-8.5403,-8.2848,-8.2708,-8.5986,-8.5549,-8.5171,-8.5084,-8.4358,-8.401,-8.4097,-8.1572,-8.0933,-8.2181,-8.0236,-7.8988,-7.8349,-7.7043,-7.5737,-7.443,-7.3153,-7.2602,-7.2602,-7.2602,-7.2602,-7.2602,-7.2602,-7.2602,-7.2602,-7.2515,-7.2079,-7.144,0.0,0.0,0.0,0.0,0.0,0.0,0.0,0.0,0.0,0.0,-5.3473,-5.3443,0.0,0.0,0.0,0.0,0.0,0.0,0.0,0.0,0.0,-5.7094,-5.7633,-5.8291,-5.9099,-5.9099,-5.9279,-5.9608,-5.9727,-5.9967,-6.0296,-6.0535,-6.0625,-6.0655,-6.1014,-6.1104,-6.0984,-6.0984,-6.0045,-5.8639,-5.9218,-5.7939,-5.5805,-5.7642,0.0,0.0,-5.6222,-5.6557,-5.747,-6.3862,-6.6209,-6.6879,-6.9406,-7.1733,-7.4287,-7.7593,-7.9258,-8.0675,-8.3651,-8.4801,-8.4682,-8.2762,-8.0044,-7.691,-7.3289,-6.9178,-6.5019,-6.1262,-5.9362,-5.8255,-5.7883,-5.9742,-6.3748,-7.1092,-7.4111,-7.8088,-8.5432,-8.5926,-8.6042,-8.7435,-8.7406,-8.7261,-8.7261,-8.6797,-8.6739,-8.7377,-8.5991,-8.5559,-8.6768,-8.6216,-8.5636,-8.5113,-8.3952,-8.3575,-8.4097,-8.1572,-8.0933,-8.2181,-8.0236,-7.8988,-7.8349,-7.7043,-7.5737,-7.443,-7.3153,-7.2602,-7.2602,-7.2602,-7.2602,-7.2602,-7.2602,-7.2602,-7.2544,-7.2021,-7.144,-7.0802,0.0,0.0,0.0,0.0,0.0,0.0,0.0,-5.2546,-5.3623,-5.5957,-5.6555,-5.6496,-5.5777,-5.6286,-5.6526,0.0,0.0,0.0,0.0,0.0,0.0,-5.7094,-5.7752,-5.8261,-5.859,-5.8919,-5.9279,-5.9608,0.0,-5.9279,-5.9608,-5.9249,-5.9099,-5.9099,-5.9099,-5.9099,-5.9099,-5.9099,-5.8743,-5.8276,-5.8852,-5.8415,-5.747,-5.8634,0.0,0.0,-5.797,-5.825,-5.904,-6.383,-6.7029,-6.9782,-7.4121,-7.7322,-8.0075,-8.3038,-8.3876,-8.4504,-8.7226,-8.7366,-8.634,-8.4604,-8.0644,-7.6029,-7.1621,-6.6635,-6.1998,-5.8647,-5.6778,-5.6172,-5.7517,-5.9393,-6.259,-6.8419,-7.1394,-7.5359,-8.2036,-8.3284,-8.4503,-8.7116,-8.7726,-8.7929,-8.7929,-8.7668,-8.7464,-8.7435,-8.6884,-8.6506,-8.6477,-8.5549,-8.4736,-8.4126,-8.3168,-8.282,-8.311,-8.0904,-8.0265,-8.1194,-7.9598,-7.8669,-7.8349,-7.7043,-7.6114,-7.5446,-7.3821,-7.3124,-7.3095,-7.2747,-7.2602,-7.2602,-7.2602,-7.2602,-7.2573,-7.2282,-7.1557,-7.0686,0.0,0.0,0.0,0.0,0.0,0.0,-5.3025,-5.3862,-5.5418,-5.874,-5.9847,-5.9817,-5.853,-5.7992,-5.7573,0.0,0.0,0.0,0.0,0.0,0.0,0.0,0.0,0.0,-5.8321,0.0,0.0,-5.9877,-5.9368,0.0,0.0,0.0,0.0,0.0,-5.9099,-5.9099,-5.9099,-5.9099,-5.9099,0.0,0.0,-5.9099,-5.9099,0.0,0.0,0.0,0.0,-5.9428,-6.0326,-6.3228,-6.64,-7.0081,-7.5407,-7.9956,-8.3756,-8.6,-8.6778,-8.7437,-8.995,-8.9412,-8.7706,-8.594,-8.1168,-7.5517,-7.0284,-6.484,-6.0018,-5.7129,-5.5466,-5.5272,-5.7904,-5.9271,-6.1375,-6.567,-6.834,-7.1988,-7.803,-8.0083,-8.232,-8.61,-8.7377,-8.7929,-8.7929,-8.7929,-8.7726,-8.7232,-8.6942,-8.6506,-8.5868,-8.4736,-8.3807,-8.3226,-8.253,-8.2181,-8.2181,-8.0265,-7.9627,-8.0294,-7.9017,-7.8407,-7.8349,-7.7043,-7.6375,-7.6172,-7.4372,-7.3531,-7.3385,-7.2979,-7.2747,-7.2602,-7.2602,-7.2602,-7.2602,-7.2456,-7.1789,-7.0889,0.0,0.0,0.0,0.0,0.0,0.0,-5.3533,-5.4162,-5.6226,-6.1882,-6.1702,-6.1403,-6.2421,-6.0894,-5.9069,0.0,0.0,0.0,0.0,0.0,0.0,0.0,0.0,0.0,0.0,0.0,0.0,-5.9189,-5.9129,0.0,0.0,0.0,0.0,0.0,0.0,-5.9099,-5.9099,-5.9099,0.0,0.0,0.0,0.0,0.0,0.0,0.0,0.0,0.0,-5.9129,-5.9787,-6.3647,-6.5592,-6.6999,-7.053,-7.6395,-8.211,-8.2978,-8.5312,-8.8065,-9.01,-9.007,-8.8723,-8.5581,-8.0405,-7.4552,-6.9044,-6.3831,-5.9627,-5.7596,-5.6817,-5.6989,-5.8811,-5.92,-6.0851,-6.5651,-6.6896,-6.9676,-7.6596,-7.8929,-8.125,-8.4877,-8.6826,-8.7929,-8.7929,-8.7929,-8.79,-8.7842,-8.6768,-8.5839,-8.52,-8.4474,-8.3807,-8.3226,-8.253,-8.2181,-8.2181,-8.0265,-7.9627,-8.0294,-7.9017,-7.8407,-7.8349,-7.7043,-7.6143,-7.5534,-7.4198,-7.3269,-7.2747,-7.3298,-7.3153,-7.2602,-7.2602,-7.2602,-7.2544,-7.1963,-7.1673,-7.1498,0.0,0.0,0.0,0.0,0.0,0.0,-5.4132,-5.479,-5.6915,-6.2869,-6.3887,-6.4246,-6.4784,-6.3767,-6.1613,-5.8022,0.0,0.0,0.0,0.0,0.0,0.0,0.0,0.0,0.0,0.0,-5.9099,-5.9099,-5.9099,0.0,0.0,0.0,0.0,0.0,0.0,-5.9099,-5.9099,-5.9099,0.0,0.0,0.0,0.0,0.0,0.0,0.0,0.0,0.0,0.0,-5.9279,-6.0475,-6.1852,-6.3079,-6.3169,-6.7388,-7.3343,-7.8789,-8.217,-8.4923,-8.8484,-8.9561,-8.9052,-8.6539,-8.0554,-7.421,-6.9982,-6.4097,-5.9194,-5.7999,-5.7202,-5.7179,-5.8838,-5.9155,-5.9993,-6.2529,-6.3531,-6.597,-7.1454,-7.3134,-7.6227,-8.2699,-8.427,-8.5709,-8.8126,-8.8101,-8.7784,-8.7377,-8.6536,-8.5752,-8.5113,-8.4097,-8.3081,-8.2036,-8.1717,-8.1426,-8.1049,-7.9888,-7.9423,-7.9685,-7.8814,-7.8407,-7.8349,-7.7043,-7.6521,-7.655,-7.4488,-7.3676,-7.3705,-7.3211,-7.2863,-7.2602,-7.2602,-7.2602,-7.2573,-7.234,-7.1992,-7.1644,0.0,0.0,0.0,0.0,0.0,-4.9553,-5.4192,-5.5059,-5.7244,-6.2959,-6.4725,-6.5562,-6.5951,-6.4904,-6.2929,-5.9847,-5.886,0.0,0.0,0.0,0.0,0.0,0.0,0.0,0.0,0.0,-5.9099,-5.9099,-5.9308,-5.9398,0.0,0.0,-5.9608,-5.9398,0.0,0.0,0.0,0.0,0.0,0.0,0.0,0.0,0.0,0.0,0.0,0.0,0.0,0.0,0.0,0.0,0.0,-5.9907,-5.8112,-6.0236,-6.4994,-7.3193,-7.825,-8.208,-8.612,-8.8544,-8.9322,-8.6748,-8.0734,-7.445,-7.056,-6.4366,-5.9219,-5.856,-5.7713,-5.754,-5.8836,-5.9458,-5.9978,-6.0479,-6.1608,-6.3741,-6.7683,-6.9221,-7.2434,-7.9287,-8.0716,-8.2728,-8.6706,-8.7688,-8.784,-8.7029,-8.639,-8.5665,-8.4852,-8.3575,-8.2471,-8.1514,-8.1281,-8.0817,-8.0004,-7.9743,-7.9423,-7.9017,-7.8611,-7.8291,-7.8059,-7.6782,-7.6433,-7.6724,-7.4547,-7.385,-7.4169,-7.3269,-7.2805,-7.2602,-7.2602,-7.2602,-7.2602,-7.2602,-7.234,-7.1963,0.0,0.0,0.0,0.0,0.0,-4.8865,-5.3503,-5.476,-5.7094,-6.2391,-6.3617,-6.4545,-6.5862,-6.3677,-6.2361,-6.2959,-6.0625,0.0,0.0,0.0,0.0,0.0,0.0,0.0,0.0,0.0,-5.9099,-5.9099,-5.9757,-6.0086,-6.0086,-6.0775,-6.0745,-6.0086,0.0,0.0,0.0,0.0,0.0,0.0,0.0,0.0,-5.9099,0.0,0.0,0.0,0.0,0.0,0.0,0.0,0.0,0.0,0.0,-5.6645,-5.862,-6.5951,-7.3672,-8.0405,-8.3068,-8.7137,-8.9681,-8.5731,-8.0734,-7.5437,-7.0201,-6.4366,-5.9877,-5.9219,-5.856,-5.8321,-5.8979,-6.0206,-6.0992,-6.0624,-6.1983,-6.398,-6.6538,-6.8856,-7.1406,-7.4339,-7.6387,-7.9123,-8.3086,-8.653,-8.8182,-8.7114,-8.639,-8.5461,-8.4155,-8.2907,-8.2181,-8.2181,-8.1543,-8.0585,-7.9307,-7.9975,-7.9656,-7.8407,-7.8407,-7.8059,-7.7362,-7.6085,-7.5534,-7.5446,-7.4169,-7.3618,-7.3618,-7.3618,-7.3211,-7.2602,-7.2602,-7.2602,-7.2602,-7.2602,-7.2602,-7.2602,0.0,0.0,0.0,0.0,0.0,0.0,-5.1738,-5.2725,-5.488,-5.9727,-6.0535,-6.1852,-6.4994,-6.2989,-6.1882,-6.2989,-6.0655,0.0,0.0,0.0,0.0,0.0,0.0,0.0,0.0,-5.9787,-5.9997,-6.0475,-6.1134,-6.1224,-6.0805,-6.1463,-6.1164,-6.0086,-6.0086,-5.9727,0.0,0.0,0.0,0.0,0.0,-5.9099,-5.9099,0.0,0.0,0.0,0.0,0.0,0.0,0.0,0.0,0.0,0.0,0.0,0.0,-5.9608,-6.5533,-7.1607,-7.424,-7.7711,-7.9836,-7.6724,-7.2984,-6.9423,-6.6879,-6.272,-5.9368,-5.9159,-5.8949,-5.886,-5.9069,-6.0206,-6.1048,-6.0936,-6.2154,-6.3709,-6.5381,-6.8214,-7.1911,-7.6908,-8.2528,-8.6247,-8.6907,-8.797,-8.8007,-8.6419,-8.6158,-8.5287,-8.3575,-8.2675,-8.2181,-8.2181,-8.0701,-7.9917,-7.9975,-7.9336,-7.9017,-7.9017,-7.8146,-7.7624,-7.7362,-7.6085,-7.5243,-7.4779,-7.3966,-7.3618,-7.3589,-7.3124,-7.2805,-7.2602,-7.2602,-7.2602,-7.2602,-7.2602,-7.2602,-7.2602,0.0,0.0,0.0,0.0,0.0,0.0,-5.09,-5.1768,-5.3503,-5.7154,-5.8052,-5.9787,-6.3528,-6.1792,-6.1104,-6.2929,-6.0655,0.0,0.0,0.0,0.0,0.0,0.0,0.0,-6.0086,-6.0086,-6.0775,-6.2211,-6.2869,-6.3109,-6.2989,-6.3647,-6.2959,-6.1194,-6.0954,-6.0326,0.0,0.0,0.0,0.0,-5.9668,-5.9548,-5.9099,0.0,0.0,0.0,0.0,0.0,0.0,0.0,0.0,0.0,0.0,0.0,0.0,0.0,-5.9847,-6.4156,-6.8315,-7.2235,-7.4629,-7.2415,-6.9602,-6.6879,-6.5054,-6.1972,-5.9398,-5.9159,-5.9099,-5.9099,-5.9099,-6.0206,-6.1104,-6.1104,-6.2211,-6.3528,-6.4844,-6.8076,-7.2445,-7.813,-8.4242,-8.7662,-8.6921,-8.8039,-8.8135,-8.6576,-8.6117,-8.5189,-8.35,-8.264,-8.2065,-8.1833,-8.0178,-7.9394,-7.9569,-7.9017,-7.8582,-7.8233,-7.7682,-7.7159,-7.6666,-7.5621,-7.4895,-7.4488,-7.3879,-7.3618,0.0,-7.2892,-7.2602,-7.2602,-7.2602,-7.2602,-7.2602,-7.2602,-7.2602,-7.2602,0.0,0.0,0.0,0.0,0.0,0.0,0.0,-5.1738,-5.2905,-5.485,-5.6196,-5.8201,-6.1463,-6.0146,-6.0057,-6.257,-6.0535,0.0,0.0,0.0,0.0,0.0,0.0,0.0,-6.0146,-6.0206,-6.1463,-6.4006,-6.4725,-6.5413,-6.6011,-6.6729,-6.5652,-6.3109,-6.251,-6.1433,-6.0116,-6.0715,-6.0236,-5.9219,-6.0475,-6.0206,0.0,0.0,0.0,0.0,0.0,0.0,0.0,0.0,0.0,0.0,0.0,0.0,0.0,0.0,0.0,0.0,0.0,-6.9482,-7.2475,-7.1158,-6.8974,-6.652,-6.4126,-6.1642,0.0,-5.9219,-5.9099,-5.9129,-5.9159,-6.0236,-6.1134,-6.1164,-6.2241,-6.3528,-6.4844,-6.8734,-7.3402,-7.8669,-8.2739,-8.4839,-8.4298,-8.7179,-8.8588,-8.7352,-8.6291,-8.5106,-8.3789,-8.2656,-8.1746,-8.1078,-7.983,-7.893,-7.8465,-7.893,-7.8291,-7.6521,-7.7072,-7.6666,-7.5417,-7.4808,-7.4459,-7.4343,-7.385,-7.3589,-7.3501,-7.2863,-7.2602,-7.2602,-7.2602,-7.2602,-7.2602,-7.2602,-7.2602,-7.2602,0.0,0.0,0.0,0.0,0.0,0.0,0.0,0.0,0.0,0.0,-5.5149,-5.6526,-5.88,-5.865,-5.88,0.0,0.0,0.0,0.0,0.0,0.0,0.0,0.0,0.0,-6.0864,-6.1373,-6.2421,-6.4006,-6.5203,-6.5862,-6.6041,-6.7208,-6.6311,-6.3767,-6.3617,-6.2271,-6.0057,-5.9727,-5.9398,-5.9129,-5.9458,-5.9398,0.0,0.0,0.0,0.0,-5.9099,-5.9099,0.0,0.0,0.0,0.0,0.0,0.0,0.0,0.0,-5.6286,-5.6944,-5.9518,0.0,-6.1613,-6.0775,-5.9757,-5.9039,0.0,-5.862,-5.8052,-5.8919,-5.9099,-5.9249,-5.9757,-6.0535,-6.1283,-6.1792,-6.254,-6.3528,-6.4844,-7.1906,-7.8699,-8.3517,-8.7137,-8.839,-8.6496,-8.8397,-8.9062,-8.7381,-8.6291,-8.4901,-8.3146,-8.1579,-8.0439,-7.9772,-7.8524,-7.8262,-7.9075,-7.8262,-7.7624,-7.7159,-7.684,-7.5998,-7.4779,-7.4605,-7.3966,-7.3095,-7.3443,-7.3327,-7.2834,-7.2689,-7.2602,-7.2602,-7.2602,-7.2602,-7.2602,-7.2602,-7.2602,-7.2602,0.0,0.0,0.0,0.0,0.0,0.0,0.0,0.0,0.0,0.0,-5.5239,-5.6286,-5.7932,-5.8381,-5.871,0.0,0.0,0.0,0.0,0.0,0.0,0.0,-6.0206,-6.0864,-6.1553,-6.1912,-6.3169,-6.5383,-6.64,-6.7238,-6.7837,-6.8555,-6.7627,-6.5323,-6.4126,-6.2271,-6.0116,-6.0356,-5.9937,-5.9159,-5.9787,0.0,0.0,0.0,0.0,0.0,-5.9099,-5.9099,0.0,-5.8351,-5.8321,-5.8291,0.0,0.0,0.0,0.0,-5.5927,-5.6368,-5.7034,-5.7663,-5.8112,-5.8022,-5.7543,-5.7334,-5.8351,-5.8052,-5.7872,-5.889,-5.9099,-5.9219,-5.9578,-6.0446,-6.1224,-6.1583,-6.269,-6.4814,-6.8585,-7.418,-7.9956,-8.5492,-8.8005,-8.915,-8.8644,-8.9143,-8.9031,-8.8041,-8.6336,-8.4942,-8.3882,-8.1928,-8.0522,-7.9957,-7.8441,-7.7892,-7.8407,-7.774,-7.6956,-7.6085,-7.6056,-7.5359,-7.414,-7.4111,-7.3734,-7.3095,-7.3443,-7.324,-7.2602,-7.2602,-7.2602,-7.2602,-7.2602,-7.2602,-7.2602,-7.2602,-7.2602,-7.2602,0.0,0.0,0.0,0.0,0.0,0.0,0.0,0.0,0.0,0.0,0.0,0.0,0.0,0.0,0.0,0.0,0.0,0.0,0.0,0.0,0.0,0.0,-6.0864,-6.1463,-6.2241,-6.2331,-6.3857,-6.6849,-6.7807,-6.8914,-7.0141,-7.044,-6.9333,-6.7029,-6.4515,-6.2271,-6.0446,-6.1493,-6.0954,-5.9518,-6.0535,0.0,0.0,0.0,0.0,0.0,0.0,0.0,0.0,-5.8471,-5.859,-5.865,-5.6885,0.0,0.0,0.0,0.0,0.0,-5.6496,-5.7363,-5.8231,-5.868,-5.8321,-5.8022,-5.877,-5.853,-5.8321,-5.8979,-5.9099,-5.9159,-5.9368,-6.0356,-6.1253,-6.1642,-6.3588,-6.7298,-7.3732,-7.6425,-7.9956,-8.597,-8.7556,-8.8634,-8.992,-8.9322,-8.8723,-8.8394,-8.6439,-8.507,-8.4625,-8.2574,-8.1043,-8.0306,-7.8721,-7.7671,-7.7177,-7.7101,-7.6288,-7.4663,-7.5127,-7.4692,-7.3472,-7.356,-7.356,-7.3472,-7.3472,-7.3124,-7.2602,-7.2602,-7.2602,-7.2602,-7.2602,-7.2602,-7.2602,-7.2602,-7.2602,-7.2602,0.0,0.0,0.0,0.0,0.0,0.0,0.0,0.0,0.0,0.0,0.0,0.0,0.0,0.0,0.0,0.0,0.0,0.0,0.0,0.0,0.0,-6.1792,-6.1343,-6.1672,-6.2899,-6.3438,-6.4515,-6.6161,-6.8525,-7.0051,-7.0799,-7.2505,-7.1338,-6.7717,-6.5652,-6.3647,-6.1762,-6.1403,-6.1074,-6.0775,-6.0386,0.0,0.0,0.0,0.0,0.0,0.0,0.0,0.0,-5.8979,-5.865,-5.8112,-5.7244,0.0,0.0,0.0,0.0,0.0,-5.8052,-5.8381,-5.8022,-5.7513,-5.6944,-5.6795,-5.7992,-5.8201,-5.8321,-5.8979,-5.9099,-5.9458,-6.0595,-6.0984,-6.1852,-6.4066,-6.7478,-7.1757,-7.7263,-8.0225,-8.3068,-8.6299,-8.8753,-8.9412,-8.7467,-8.8634,-8.8813,-8.7107,-8.632,-8.4951,-8.2694,-8.1391,-8.0158,-7.8979,-7.7841,-7.6973,-7.6314,-7.5943,-7.565,-7.5359,-7.4895,-7.3995,-7.2776,-7.3356,-7.3298,-7.2776,-7.2776,-7.2718,-7.2602,-7.2602,-7.2602,-7.2602,-7.2602,-7.2602,-7.2602,-7.2602,-7.2602,-7.2602,0.0,0.0,0.0,0.0,0.0,0.0,0.0,0.0,0.0,0.0,0.0,0.0,0.0,0.0,0.0,0.0,0.0,0.0,0.0,-6.1224,-6.2211,-6.3617,-6.272,-6.26,-6.3558,-6.4575,-6.6101,-6.8166,-7.0799,-7.2774,-7.4091,-7.3612,-7.1248,-6.7358,-6.5742,-6.3947,-6.2061,-6.1762,-6.1433,-6.1044,0.0,0.0,0.0,0.0,0.0,0.0,0.0,0.0,0.0,0.0,-5.865,-5.8082,-5.7752,0.0,0.0,0.0,0.0,0.0,-5.6226,-5.6496,-5.6615,-5.7004,-5.7423,-5.7902,-5.853,-5.8381,-5.8321,-5.8979,-5.9398,-5.9817,-6.0446,-6.2032,-6.4575,-6.8615,-7.2295,-7.5736,-7.8908,-8.1332,-8.3726,-8.6359,-8.8095,-8.8843,-8.8334,-8.8484,-8.8065,-8.6778,-8.5215,-8.3896,-8.3031,-8.1211,-8.0095,-7.9828,-7.7903,-7.6755,-7.6461,-7.513,-7.4488,-7.4488,-7.4169,-7.3531,-7.2631,-7.295,-7.2892,-7.2602,-7.2602,-7.2602,-7.2602,-7.2602,-7.2602,-7.2602,-7.2602,-7.2602,-7.2602,-7.2602,-7.2602,-7.2602,0.0,0.0,0.0,0.0,0.0,0.0,0.0,0.0,0.0,0.0,0.0,0.0,0.0,0.0,0.0,0.0,0.0,0.0,0.0,-6.1493,-6.248,-6.4485,-6.3917,-6.4036,-6.5144,-6.646,-6.8465,-7.1128,-7.4061,-7.6275,-7.7711,-7.4929,-7.1577,-6.7837,-6.6221,-6.4395,-6.254,-6.2391,-6.2032,-6.1493,0.0,0.0,0.0,0.0,0.0,0.0,0.0,0.0,0.0,0.0,0.0,0.0,0.0,0.0,0.0,-5.6218,-5.5598,-5.491,-5.473,-5.491,-5.5538,-5.6974,-5.7992,-5.889,-5.9817,-5.9518,-5.9338,-6.0296,-6.0655,-6.0835,-6.0984,-6.3857,-6.7657,-7.2176,-7.6185,-7.9357,-8.1183,-8.3008,-8.5013,-8.7317,-8.7945,-8.8514,-8.9352,-8.8245,-8.7048,-8.606,-8.4115,-8.2948,-8.2828,-8.1063,-8.0075,-8.0105,-7.7958,-7.6648,-7.6352,-7.4661,-7.3762,-7.3618,-7.3443,-7.3124,-7.2602,-7.2602,-7.2602,-7.2602,-7.2602,-7.2602,-7.2602,-7.2602,-7.2602,-7.2602,-7.2602,-7.2602,-7.2602,-7.2602,-7.2602,-7.2602,0.0,0.0,0.0,0.0,0.0,0.0,0.0,0.0,0.0,0.0,0.0,0.0,0.0,0.0,0.0,0.0,0.0,0.0,0.0,-6.26,-6.3019,-6.3199,-6.4306,-6.6071,-6.8585,-6.9901,-7.1846,-7.454,-7.84,-8.0375,-8.0434,-7.7203,-7.3881,-7.05,-6.7986,-6.5742,-6.3827,-6.3258,-6.2989,-6.281,-6.1553,0.0,0.0,0.0,0.0,0.0,0.0,0.0,0.0,0.0,0.0,0.0,0.0,0.0,-5.6218,-5.6218,-5.5269,-5.4551,-5.5718,-5.5628,-5.5658,-5.7573,-5.7633,-5.8201,-6.1942,-6.2271,-6.2331,-6.4216,-6.3677,-6.3049,-6.3617,-6.6939,-7.035,-7.2565,-7.7741,-8.2589,-8.5731,-8.7377,-8.8783,-9.019,-8.986,-8.9322,-8.8813,-8.7526,-8.597,-8.4085,-8.3786,-8.2619,-8.0225,-8.0494,-7.9896,-7.8071,-7.7462,-7.6593,-7.5376,-7.4834,-7.4307,-7.3618,-7.2979,-7.266,-7.2602,-7.2602,-7.2602,-7.2602,-7.2602,-7.2602,-7.2602,-7.2602,-7.2602,-7.2602,-7.2602,-7.2602,-7.2602,-7.2602,-7.2602,-7.2602,0.0,0.0,0.0,0.0,0.0,0.0,0.0,0.0,0.0,0.0,0.0,0.0,0.0,0.0,0.0,0.0,0.0,0.0,-6.2091,-6.272,-6.3438,-6.4246,-6.4755,-6.6281,-6.8944,-7.1876,-7.5677,-8.0375,-8.2709,-8.2589,-8.0105,-7.6814,-7.3043,-6.8974,-6.6759,-6.5114,-6.3947,-6.3348,-6.3079,-6.2989,-6.2091,-6.1732,0.0,0.0,0.0,0.0,0.0,0.0,0.0,0.0,-5.8052,-5.7483,-5.7483,-5.6585,-5.5658,-5.6098,-5.494,-5.3683,-5.4192,-5.473,-5.5478,-5.6615,-5.7633,-5.9279,-6.2839,-6.3797,-6.4485,-6.646,-6.7119,-6.7298,-6.7148,-6.9692,-7.2714,-7.5497,-8.0614,-8.5073,-8.7586,-8.8723,-8.9471,-8.998,-8.9082,-8.8185,-8.7496,-8.5881,-8.4354,-8.3217,-8.1991,-8.0853,-7.9866,-7.9267,-7.8579,-7.7831,-7.667,-7.5803,-7.5298,-7.4532,-7.4003,-7.3721,-7.3457,-7.3199,-7.2986,-7.2986,-7.2844,-7.2602,-7.2602,-7.2398,-7.205,-7.2456,-7.2398,-7.2079,-7.2456,-7.2602,-7.2602,-7.2602,-7.2602,-7.2602,0.0,0.0,0.0,0.0,0.0,0.0,0.0,0.0,0.0,0.0,0.0,0.0,0.0,0.0,0.0,0.0,0.0,0.0,-6.2421,-6.2839,-6.3468,-6.4366,-6.4814,-6.646,-6.9542,-7.3462,-7.7891,-8.2798,-8.4953,-8.3876,-7.9746,-7.6634,-7.3163,-6.9423,-6.6819,-6.5503,-6.5173,-6.3917,-6.3139,-6.272,-6.2271,-6.1972,0.0,0.0,0.0,0.0,0.0,0.0,0.0,0.0,-5.7812,-5.7393,-5.7154,-5.6346,-5.5598,-5.6098,-5.491,-5.3503,-5.3503,-5.4012,-5.482,-5.5897,-5.7334,-5.9668,-6.4216,-6.5622,-6.6819,-6.9842,-7.035,-7.0051,-6.9423,-7.1098,-7.3732,-7.7233,-8.223,-8.6389,-8.8394,-8.9262,-8.9591,-8.9382,-8.8185,-8.7107,-8.6419,-8.4594,-8.3068,-8.22,-8.0494,-7.9387,-7.9208,-7.81,-7.7412,-7.7203,-7.6055,-7.5419,-7.521,-7.4486,-7.411,-7.411,-7.411,-7.3831,-7.3228,-7.3057,-7.2844,-7.2602,-7.2602,-7.2369,-7.1992,-7.2427,-7.2369,-7.2021,-7.2456,-7.2602,-7.2602,-7.2602,-7.2602,-7.2602,0.0,0.0,0.0,0.0,0.0,0.0,0.0,0.0,0.0,0.0,0.0,0.0,0.0,0.0,0.0,0.0,0.0,0.0,-6.3079,-6.3079,-6.3079,-6.3079,-6.4336,-6.6849,-7.0739,-7.4749,-7.81,-8.0823,-8.4714,-8.4265,-7.9686,-7.7083,-7.4809,-7.2684,-6.8764,-6.7358,-6.7777,-6.5114,-6.3258,-6.2091,-6.2091,-6.1702,-6.1044,0.0,0.0,0.0,0.0,0.0,0.0,0.0,-5.8112,-5.7992,-5.7304,-5.6645,-5.6218,-5.6218,-5.5239,-5.4221,-5.4221,-5.3713,-5.3683,-5.5739,-5.6675,-5.9039,-6.634,-6.7986,-6.9512,-7.4839,-7.3283,-7.0769,-7.0141,-7.1068,-7.3223,-7.7173,-8.223,-8.6389,-8.8394,-8.9232,-8.9382,-8.8753,-8.7467,-8.6389,-8.5731,-8.3876,-8.22,-8.0883,-7.9537,-7.8489,-7.7831,-7.7173,-7.6544,-7.5916,-7.5886,-7.5557,-7.4899,-7.4869,-7.4869,-7.4869,-7.4869,-7.4318,-7.3228,-7.2773,-7.2602,-7.2602,-7.2602,-7.2602,-7.2602,-7.2602,-7.2602,-7.2602,-7.2602,-7.2602,-7.2602,-7.2602,-7.2602,-7.2602,0.0,0.0,0.0,0.0,0.0,0.0,0.0,0.0,0.0,0.0,0.0,0.0,0.0,0.0,0.0,0.0,0.0,0.0,-6.3079,-6.3079,-6.3079,-6.3079,-6.3857,-6.4844,-6.6011,-7.0859,-7.6245,-8.217,-8.3337,-8.0853,-7.4958,-7.4151,-7.1996,-6.8734,-6.8495,-6.7478,-6.5802,-6.4066,-6.2869,-6.2061,-6.1583,-6.1283,-6.1044,0.0,0.0,0.0,0.0,0.0,0.0,0.0,0.0,0.0,-5.6107,-5.5957,-5.6077,-5.5628,-5.5209,-5.479,-5.4341,-5.473,-5.5658,-5.7154,-5.9428,-6.272,-6.8106,-6.9363,-7.1128,-7.7382,-7.7113,-7.5437,-7.436,-7.4809,-7.6066,-7.816,-8.1781,-8.5162,-8.7646,-8.7736,-8.7496,-8.7287,-8.5282,-8.3846,-8.3666,-8.1841,-8.0315,-7.9447,-7.8579,-7.7801,-7.7143,-7.6514,-7.6096,-7.5916,-7.5437,-7.5078,-7.4869,-7.4869,-7.4731,-7.4456,-7.3803,-7.3458,-7.3621,-7.348,-7.3128,-7.2602,-7.2602,-7.2369,-7.1963,-7.1963,-7.2224,-7.2602,-7.2602,-7.2602,-7.2602,-7.2602,-7.2602,-7.2602,0.0,0.0,0.0,0.0,0.0,0.0,0.0,0.0,0.0,0.0,-6.1104,-6.1373,0.0,0.0,0.0,0.0,0.0,0.0,-6.3079,-6.3079,-6.3079,-6.3079,-6.3677,-6.4755,-6.634,-7.026,-7.418,-7.8041,-7.9627,-7.7562,-7.2146,-7.4001,-7.3163,-7.0201,-7.2355,-7.1398,-6.8076,-6.6759,-6.4605,-6.2091,-6.1942,-6.1583,-6.1074,0.0,0.0,0.0,0.0,0.0,0.0,0.0,0.0,0.0,-5.5897,-5.5658,-5.5718,-5.5299,-5.5179,-5.5149,-5.5029,-5.5748,-5.6974,-5.886,-6.1613,-6.5203,-7.032,-7.2924,-7.5527,-8.0045,-7.9507,-7.8041,-7.7562,-7.7113,-7.7442,-7.9297,-8.1931,-8.4384,-8.624,-8.6389,-8.609,-8.5581,-8.3876,-8.2559,-8.205,-8.0434,-7.9118,-7.846,-7.7562,-7.6874,-7.6485,-7.5856,-7.5497,-7.5497,-7.5078,-7.4749,-7.448,-7.4749,-7.4463,-7.3751,-7.3427,-7.3221,-7.3202,-7.2786,-7.2561,-7.2602,-7.2602,-7.2253,-7.1702,-7.1934,-7.2108,-7.2282,-7.2515,-7.2602,-7.2602,-7.2602,-7.2602,-7.2602,0.0,0.0,-5.8411,-5.9069,0.0,0.0,0.0,0.0,0.0,0.0,-6.1283,-6.1523,0.0,0.0,0.0,0.0,0.0,0.0,0.0,-6.3139,-6.3169,-6.3169,-6.3707,-6.5772,-6.9542,-7.1248,-7.1577,-7.053,-7.454,-7.445,-7.0649,-7.5407,-7.6574,-7.4839,-7.7981,-7.6933,-7.2714,-7.1009,-6.7178,-6.2301,-6.2869,-6.2301,-6.1134,-6.1194,0.0,0.0,0.0,0.0,0.0,0.0,0.0,0.0,-5.6436,-5.5837,-5.5359,-5.5299,-5.5329,-5.5508,-5.6107,-5.6795,-5.8022,-6.0775,-6.3707,-6.7388,-7.2984,-7.7592,-8.1033,-8.226,-8.0674,-7.9267,-7.9866,-7.846,-7.8011,-8.0554,-8.2439,-8.3816,-8.4534,-8.5043,-8.4893,-8.3696,-8.2918,-8.1991,-8.0734,-7.9447,-7.84,-7.7682,-7.6544,-7.5886,-7.5826,-7.5228,-7.4869,-7.4869,-7.4809,-7.451,-7.3911,-7.442,-7.4091,-7.2857,-7.3395,-7.3133,-7.2193,-7.1268,-7.1423,-7.2456,-7.2515,-7.2166,-7.1644,-7.2282,-7.2166,-7.1644,-7.234,-7.2573,-7.2544,-7.2602,-7.2602,-7.2602,0.0,0.0,-5.9099,-5.9757,0.0,0.0,0.0,0.0,0.0,0.0,0.0,0.0,0.0,-6.2869,0.0,0.0,0.0,0.0,0.0,-6.3528,-6.3797,-6.3797,-6.3917,-6.4904,-6.6819,-6.6251,-6.655,-6.7837,-7.1816,-7.1727,-6.7956,-7.3642,-7.5258,-7.3402,-7.5168,-7.454,-7.1846,-6.7388,-6.4755,-6.3558,-6.3199,-6.2301,-6.1164,-6.1672,-6.0805,0.0,0.0,0.0,0.0,0.0,0.0,0.0,-5.7094,-5.6795,-5.6585,-5.6107,-5.6316,-5.6705,-5.6855,-5.8141,-6.0206,-6.3378,-6.8495,-7.3492,-7.6335,-7.8549,-8.0105,-8.0405,-8.0823,-8.1183,-8.1332,-8.0584,-8.0464,-8.208,-8.226,-8.2619,-8.3786,-8.3187,-8.2529,-8.223,-8.1153,-8.0135,-7.9297,-7.8489,-7.7562,-7.6395,-7.6066,-7.5677,-7.5138,-7.4958,-7.4869,-7.4869,-7.436,-7.4031,-7.3881,-7.3522,-7.3059,-7.2395,-7.2135,-7.1963,-7.1913,-7.1922,-7.1826,-7.1597,-7.1813,-7.1498,-7.0976,-7.1615,-7.1498,-7.1034,-7.2166,-7.2311,-7.1934,-7.2427,-7.2602,-7.2602,0.0,0.0,0.0,0.0,0.0,0.0,0.0,0.0,0.0,0.0,0.0,0.0,0.0,-6.3079,0.0,0.0,-6.3079,0.0,0.0,-6.3827,-6.4276,-6.4934,-6.4964,-6.5293,-6.5981,-6.5323,-6.5323,-6.6041,-6.8435,-6.8884,-6.7567,-7.2924,-7.4839,-7.3971,-7.6574,-7.5736,-7.2206,-6.9093,-6.649,-6.4455,-6.4156,-6.3049,-6.1642,-6.2301,-6.1134,-5.9189,-5.9847,0.0,0.0,0.0,0.0,0.0,0.0,0.0,-5.6585,-5.6308,-5.6406,-5.6795,-5.7423,-5.9279,-6.2211,-6.7089,-7.1637,-7.5377,-7.7352,-7.81,-7.8579,-7.9208,-8.0375,-8.1302,-8.1302,-8.1033,-8.1033,-8.1721,-8.1542,-8.1542,-8.223,-8.1482,-8.0734,-8.0375,-7.9477,-7.8579,-7.7921,-7.7263,-7.6604,-7.5946,-7.5587,-7.5258,-7.4899,-7.4569,-7.442,-7.442,-7.3762,-7.3283,-7.2954,-7.2924,-7.2432,-7.1672,-7.1642,-7.151,-7.137,-7.1858,-7.1706,-7.1063,-7.1364,-7.1138,-7.0515,-7.1017,-7.1034,-7.0802,-7.1789,-7.1963,-7.1731,-7.2398,-7.2427,-7.2195,0.0,0.0,0.0,0.0,0.0,0.0,0.0,0.0,0.0,0.0,0.0,0.0,0.0,0.0,-6.3079,0.0,0.0,0.0,0.0,0.0,0.0,-6.6131,-6.5951,-6.5892,-6.6011,-6.5682,-6.5413,-6.5203,-6.5622,-6.6729,-6.8555,-7.2744,-7.4839,-7.5168,-7.813,-7.7083,-7.2984,-7.1517,-6.8734,-6.5383,-6.5383,-6.4246,-6.266,-6.3079,-6.1732,-5.9668,-6.0116,-5.9907,-5.9458,-5.9458,0.0,0.0,0.0,0.0,-5.6645,-5.6526,-5.6496,-5.6765,-5.7962,-6.0565,-6.4366,-7.026,-7.3313,-7.5318,-7.7083,-7.7143,-7.7143,-7.822,-7.9327,-8.0195,-8.0405,-8.0285,-8.0195,-8.0434,-8.0255,-8.0165,-8.0285,-7.9716,-7.9088,-7.8519,-7.7981,-7.7382,-7.6724,-7.6215,-7.5856,-7.5736,-7.5198,-7.4839,-7.4719,-7.418,-7.3851,-7.3732,-7.3073,-7.2445,-7.1876,-7.2325,-7.1996,-7.0919,-7.1457,-7.1427,-7.0949,-7.1392,-7.1331,-7.0762,-7.1034,-7.0809,-7.0253,-7.0555,-7.0621,-7.0552,-7.1278,-7.1511,-7.144,-7.2166,-7.2108,-7.176,0.0,0.0,0.0,0.0,0.0,0.0,0.0,0.0,0.0,0.0,-6.3079,-6.3079,0.0,0.0,0.0,-6.3079,-6.3558,-6.3917,-6.4006,0.0,0.0,-6.6819,-6.5772,-6.5413,-6.6011,-6.4336,-6.4246,-6.5892,-6.5383,-6.6999,-7.056,-7.2924,-7.4659,-7.5707,-7.451,-7.3881,-7.3462,-6.8764,-6.6759,-6.6729,-6.6729,-6.5892,-6.4575,-6.4066,-6.2959,-6.1642,-6.1134,-6.0924,-6.0835,-6.0835,-6.0775,0.0,0.0,0.0,-5.859,-5.8022,-5.7872,-5.8022,-5.877,-6.257,-6.7089,-7.026,-7.2984,-7.5108,-7.5946,-7.6514,-7.6874,-7.7053,-7.7233,-7.7711,-7.8849,-7.813,-7.7711,-7.8878,-7.81,-7.7562,-7.813,-7.7652,-7.7203,-7.7113,-7.7023,-7.6724,-7.6096,-7.5946,-7.5647,-7.5048,-7.4929,-7.4629,-7.4061,-7.3941,-7.3642,-7.3073,-7.2385,-7.1966,-7.1876,-7.1398,-7.1068,-7.0889,-7.0979,-7.0979,-7.0919,-7.0968,-7.0802,-7.048,-7.0732,-7.0539,-6.998,-7.0561,-7.03,-6.9582,-7.0877,-7.0817,-7.0163,-7.1353,-7.1731,-7.176,0.0,0.0,0.0,0.0,0.0,0.0,0.0,0.0,0.0,0.0,0.0,-6.3079,0.0,0.0,0.0,-6.3079,-6.3318,-6.3797,-6.4515,-6.5473,-6.6131,-6.643,-6.5533,-6.4994,-6.4874,-6.4036,-6.3857,-6.4366,-6.4814,-6.7238,-7.1487,-7.2744,-7.4061,-7.5228,-7.3223,-7.2295,-7.1996,-6.8555,-6.7059,-6.6999,-6.6999,-6.6191,-6.4994,-6.4695,-6.3318,-6.1553,-6.1642,-6.0954,-6.0116,-6.0864,-6.0864,-6.0475,-6.0176,0.0,0.0,0.0,-5.8112,-5.859,-6.0745,-6.3558,-6.67,-7.0081,-7.2056,-7.3672,-7.5497,-7.5826,-7.5946,-7.6664,-7.6245,-7.6125,-7.7442,-7.7233,-7.7023,-7.7592,-7.7203,-7.6933,-7.7233,-7.6724,-7.6305,-7.6305,-7.5976,-7.5617,-7.5347,-7.5318,-7.5198,-7.4899,-7.454,-7.421,-7.3911,-7.3193,-7.2624,-7.2355,-7.1697,-7.1338,-7.1338,-7.1038,-7.0889,-7.0889,-7.0889,-7.0889,-7.0889,-7.0889,-7.0854,-7.0658,-7.0628,-7.0466,-7.0229,-7.0231,-7.0208,-7.0191,-7.0779,-7.0769,-7.0487,-7.1424,-7.1776,-7.1834,0.0,0.0,0.0,0.0,0.0,0.0,0.0,0.0,0.0,0.0,0.0,0.0,0.0,0.0,0.0,0.0,-6.3228,-6.3797,-6.4964,-6.5473,-6.5772,-6.5772,-6.5114,-6.4515,-6.4006,-6.3857,-6.3617,-6.3318,-6.4276,-6.7478,-7.2654,-7.2834,-7.442,-7.6993,-7.418,-7.2535,-7.1757,-6.9453,-6.8375,-6.8166,-6.7328,-6.64,-6.5503,-6.5144,-6.3827,-6.2151,-6.245,-6.1613,-6.0505,-6.1493,-6.1493,-6.1014,-6.0685,-6.0266,0.0,0.0,0.0,-5.8949,-6.1583,-6.3408,-6.5323,-6.8585,-7.041,-7.1996,-7.436,-7.4749,-7.4958,-7.6096,-7.5557,-7.5168,-7.6155,-7.6335,-7.6335,-7.6335,-7.6335,-7.6335,-7.6335,-7.5946,-7.5647,-7.5647,-7.5198,-7.4869,-7.4869,-7.4869,-7.4869,-7.4869,-7.427,-7.3821,-7.3642,-7.2535,-7.1816,-7.1637,-7.1158,-7.0889,-7.0889,-7.0889,-7.0889,-7.0889,-7.0889,-7.0889,-7.0889,-7.0889,-7.0889,-7.0919,-7.0658,-7.0528,-7.0528,-7.0265,-7.0334,-7.0711,-7.0711,-7.0644,-7.0665,-7.1276,-7.1668,-7.1904,0.0,0.0,0.0,0.0,0.0,0.0,0.0,0.0,0.0,0.0,0.0,-6.3079,-6.3079,-6.3079,-6.3079,-6.3079,-6.3617,-6.4246,-6.4934,-6.4994,-6.5084,-6.5084,-6.4425,0.0,-6.4006,-6.3438,-6.3408,-6.3947,-6.4006,-6.7717,-7.4689,-7.3492,-7.6634,-8.3038,-7.7951,-7.5318,-7.445,-7.1248,-7.056,-7.1368,-6.8256,-6.6939,-6.6759,-6.5503,-6.4934,-6.4755,-6.4126,-6.3827,-6.3767,-6.3827,-6.3827,-6.3588,-6.2361,-6.1972,-6.1672,0.0,0.0,0.0,-6.0027,-6.1672,-6.3528,-6.4964,-6.7687,-7.038,-7.1787,-7.3043,-7.4151,-7.4839,-7.4929,-7.4899,-7.4958,-7.4988,-7.4988,-7.4988,-7.4988,-7.4988,-7.4988,-7.4958,-7.4929,-7.4929,-7.4899,-7.4869,-7.4869,-7.4869,-7.4869,-7.4869,-7.427,-7.3612,-7.3013,-7.2265,-7.1607,-7.0979,-7.0919,-7.0889,-7.0889,-7.0889,-7.0889,-7.0889,-7.0889,-7.0889,-7.0889,-7.0889,-7.0889,-7.0889,-7.0889,-7.0889,-7.0889,-7.0854,-7.0658,-7.0426,-7.0426,-7.0259,-6.9987,-7.0636,-7.1255,-7.1904,0.0,0.0,0.0,0.0,0.0,0.0,0.0,0.0,0.0,0.0,0.0,0.0,0.0,-6.3079,-6.3079,-6.3079,-6.3647,-6.4096,-6.4366,-6.4784,-6.5024,-6.5024,-6.4784,-6.4455,-6.4006,-6.3767,-6.3588,-6.3408,-6.4246,-6.7089,-7.1757,-7.2984,-7.5587,-7.9208,-7.7322,-7.6125,-7.5318,-7.1996,-7.038,-6.9931,-6.8764,-6.8016,-6.7508,-6.664,-6.5772,-6.4994,-6.4755,-6.4126,-6.3528,-6.4366,-6.4366,-6.3857,-6.2989,-6.272,-6.2361,-6.0595,-5.9907,-5.9787,-6.0027,-6.0625,-6.1672,-6.3827,-6.5892,-6.7747,-6.9064,-7.1038,-7.2565,-7.2355,-7.3013,-7.3612,-7.3612,-7.43,-7.4749,-7.43,-7.424,-7.4091,-7.3672,-7.3612,-7.3612,-7.3612,-7.3612,-7.3612,-7.3612,-7.3612,-7.3612,-7.3612,-7.2984,-7.2505,-7.2265,-7.1607,-7.1158,-7.0919,-7.0889,-7.0889,-7.0889,-7.0889,-7.0889,-7.0889,-7.0889,-7.0889,-7.0889,-7.0889,-7.0889,-7.0889,-7.0889,-7.0889,-7.0889,-7.0889,-7.0824,-7.0694,-7.0694,-7.0658,-7.0558,-7.0766,-7.1569,-7.2522,0.0,0.0,0.0,-6.1972,0.0,-6.3079,-6.3079,-6.3079,-6.3079,-6.3079,0.0,0.0,0.0,0.0,-6.3468,-6.3707,-6.4096,-6.4336,-6.4336,-6.4784,-6.4934,-6.4695,-6.4695,-6.4366,-6.3707,-6.3887,-6.3707,-6.3079,-6.4395,-6.6849,-7.032,-7.2086,-7.454,-7.7442,-7.6574,-7.6425,-7.6664,-7.3552,-7.1757,-7.0859,-6.9542,-6.8734,-6.8315,-6.8315,-6.7358,-6.6101,-6.6759,-6.6011,-6.4814,-6.5473,-6.5383,-6.4844,-6.4006,-6.3438,-6.278,-6.1224,-6.0595,-6.0386,-6.0146,-6.0266,-6.0954,-6.3139,-6.4366,-6.5533,-6.7537,-6.9153,-7.032,-7.056,-7.1487,-7.2295,-7.2535,-7.3283,-7.3791,-7.3612,-7.3552,-7.3402,-7.2984,-7.2924,-7.2924,-7.2924,-7.2924,-7.2924,-7.2924,-7.2924,-7.2924,-7.2924,-7.2265,-7.1876,-7.1876,-7.1068,-7.059,-7.059,-7.0799,-7.0889,-7.0889,-7.0889,-7.0889,-7.0889,-7.0889,-7.0889,-7.0889,-7.0889,-7.0889,-7.0889,-7.0889,-7.0889,-7.0889,-7.0889,-7.0889,-7.0889,-7.0889,-7.0889,-7.0889,-7.0889,-7.1757,-7.2924,-5.9997,-6.0685,-6.1343,-6.2002,-6.266,-6.3079,-6.3079,-6.3079,-6.3109,-6.3109,0.0,0.0,0.0,0.0,0.0,-6.4994,-6.5054,-6.4994,-6.5024,-6.5054,-6.4755,-6.4066,-6.4036,-6.3767,-6.3109,-6.3677,-6.3707,-6.3109,-6.4395,-6.6999,-7.0769,-7.0829,-7.3582,-7.843,-7.5916,-7.6215,-7.843,-7.5856,-7.4809,-7.448,-7.062,-6.9093,-6.9243,-7.047,-6.9722,-6.8315,-7.0231,-6.9662,-6.7956,-6.7298,-6.7059,-6.6819,-6.5473,-6.4156,-6.2989,-6.2331,-6.1642,-6.0984,0.0,0.0,0.0,-6.266,-6.3019,-6.3887,-6.7029,-6.7298,-6.7448,-6.9393,-7.032,-7.0949,-7.1607,-7.1757,-7.1966,-7.2654,-7.2804,-7.2834,-7.2804,-7.2804,-7.2834,-7.2804,-7.2804,-7.2804,-7.2834,-7.2834,-7.2834,-7.2864,-7.2235,-7.1846,-7.1816,-7.0649,-6.9991,-6.9991,-7.059,-7.0889,-7.0889,-7.0889,-7.0889,-7.0889,-7.0889,-7.0889,-7.0889,-7.0919,-7.0919,-7.0919,-7.0949,-7.0949,-7.0949,-7.0919,-7.0889,-7.0889,-7.0889,-7.0889,-7.0889,-7.0889,-7.1757,-7.2924,-6.0629,-6.1373,-6.2032,-6.269,-6.2959,-6.3079,-6.3079,-6.3468,-6.3737,0.0,0.0,0.0,-6.5144,-6.5772,-6.6041,-6.5772,-6.5742,-6.5533,-6.4994,-6.5473,-6.5443,-6.4784,-6.5203,-6.4904,-6.3767,-6.3917,-6.3917,-6.3737,-6.4605,-6.5832,-6.7388,-6.8854,-7.053,-7.2415,-7.3133,-7.3582,-7.3732,-7.3013,-7.3013,-7.3313,-7.1727,-7.1398,-7.1816,-7.1667,-7.0979,-7.0171,-7.0709,-7.056,-6.9991,-6.9363,-6.8824,-6.8136,-6.6311,-6.4814,-6.3617,-6.2989,-6.2331,-6.1672,-6.1014,0.0,0.0,0.0,0.0,0.0,-6.2271,-6.3588,-6.4994,-6.5533,-6.655,-6.7567,-6.8226,-6.8345,-6.8555,-6.9243,-7.053,-7.1128,-7.0201,-7.05,-7.062,-7.0141,-7.0081,-7.026,-7.0739,-7.0799,-7.0979,-7.1427,-7.1278,-7.0979,-7.053,-7.0171,-6.9991,-6.9991,-7.059,-7.0889,-7.0889,-7.0889,-7.0889,-7.0889,-7.0889,-7.0889,-7.0919,-7.1398,-7.1607,-7.1637,-7.2146,-7.2355,-7.2295,-7.1308,-7.0889,-7.0889,-7.0889,-7.0889,-7.0889,-7.0889,-7.1757,-7.2924,-6.1287,-6.1822,-6.2244,-6.2786,-6.3114,-6.3293,-6.3293,-6.383,-6.4248,0.0,0.0,0.0,-6.6729,-6.7418,-6.7687,-6.7298,-6.7268,-6.6969,-6.6311,-6.661,-6.64,-6.5473,-6.5802,-6.5503,-6.4455,-6.4695,-6.4695,-6.4425,-6.5383,-6.5892,-6.6041,-6.7478,-6.8345,-6.8764,-7.0201,-7.062,-7.032,-7.1128,-7.1876,-7.2475,-7.2355,-7.2714,-7.3343,-7.3492,-7.3133,-7.2595,-7.2894,-7.2804,-7.2415,-7.1517,-7.041,-6.9064,-6.7059,-6.5892,-6.5054,-6.4156,-6.3617,-6.3109,-6.2181,-6.1942,-6.1912,-6.1762,0.0,0.0,-6.1702,-6.248,-6.3288,-6.3558,-6.4665,-6.5802,-6.646,-6.658,-6.67,-6.7089,-6.8106,-6.8884,-6.9004,-6.9333,-6.9423,-6.9064,-6.9004,-6.9243,-6.9901,-6.9722,-6.9842,-7.047,-7.026,-6.9842,-6.9183,-6.9692,-6.9842,-6.9572,-7.044,-7.0889,-7.0889,-7.0889,-7.0889,-7.0889,-7.0889,-7.0889,-7.0919,-7.1577,-7.1876,-7.1936,-7.2624,-7.2924,-7.2864,-7.2056,-7.1577,-7.1308,-7.1308,-7.1158,-7.0889,-7.0889,-7.1757,-7.2924,0.0,-6.2151,-6.2276,-6.2525,-6.3179,-6.3654,-6.3624,-6.4278,-6.4874,0.0,-6.5981,-6.7029,-6.8256,-6.8944,-6.9303,-6.9213,-6.9153,-6.8824,-6.8136,-6.8016,-6.7418,-6.6161,-6.6041,-6.5712,-6.5054,-6.5592,-6.5682,-6.5233,-6.634,-6.67,-6.634,-6.6789,-6.7029,-6.7119,-6.7627,-6.7867,-6.7986,-6.9901,-7.1098,-7.1846,-7.2774,-7.3582,-7.436,-7.5557,-7.5617,-7.5168,-7.5796,-7.5617,-7.4869,-7.3402,-7.1667,-6.9752,-6.7837,-6.7148,-6.6849,-6.5592,-6.5203,-6.4874,-6.3617,-6.3288,-6.3378,-6.3797,-6.26,0.0,-6.3318,-6.275,-6.2061,-6.272,-6.3707,-6.4695,-6.5353,-6.5533,-6.5592,-6.5682,-6.5742,-6.643,-6.8286,-6.8615,-6.8645,-6.8555,-6.8555,-6.8824,-6.9482,-6.9064,-6.9034,-6.9602,-6.9093,-6.8525,-6.8016,-6.9093,-6.9512,-6.9004,-7.0171,-7.0829,-7.0889,-7.0889,-7.0889,-7.0889,-7.0979,-7.1009,-7.1038,-7.1757,-7.2116,-7.2146,-7.2834,-7.3103,-7.3013,-7.3013,-7.2565,-7.1876,-7.1876,-7.1517,-7.1009,-7.1009,-7.1876,-7.3013,-6.1603,-6.2338,-6.2756,-6.2263,-6.3565,-6.4517,-6.3976,-6.5408,-6.6606,-6.6895,-6.8694,-7.026,-7.1038,-7.1248,-7.1098,-7.059,-7.0081,-6.9512,-6.8854,-6.8286,-6.7627,-6.6819,-6.6281,-6.5712,-6.5054,-6.5144,-6.5682,-6.661,-6.634,-6.6969,-6.8405,-6.7448,-6.7268,-6.7777,-6.7358,-6.7178,-6.7268,-6.8734,-7.0051,-7.1308,-7.3582,-7.5198,-7.6275,-7.6544,-7.6574,-7.6455,-7.6604,-7.6574,-7.6096,-7.3702,-7.1936,-7.047,-6.9064,-6.8226,-6.7627,-6.6849,-6.6221,-6.5652,-6.4874,-6.4635,-6.4425,-6.3498,-6.2959,0.0,-6.1822,-6.1044,-6.0685,-6.1343,-6.1253,-6.1253,-6.1942,-6.251,-6.3049,-6.3558,-6.4066,-6.4725,-6.5682,-6.6251,-6.64,-6.5862,-6.5802,-6.6071,-6.6729,-6.7148,-6.7448,-6.7567,-6.7448,-6.7567,-6.7956,-6.8226,-6.8555,-6.9004,-6.9752,-7.041,-7.0889,-7.0889,-7.0889,-7.0919,-7.1457,-7.1697,-7.1727,-7.2954,-7.3492,-7.3552,-7.421,-7.418,-7.3702,-7.3702,-7.2984,-7.1876,-7.1876,-7.1816,-7.1697,-7.1697,-7.2535,-7.3702,-6.2193,-6.2609,-6.2731,-6.2439,-6.3951,-6.5081,-6.4595,-6.6355,-6.7883,-6.8347,-7.0187,-7.1517,-7.1846,-7.1876,-7.1607,-7.0949,-7.062,-7.0171,-6.9542,-6.8854,-6.8196,-6.7508,-6.6849,-6.649,-6.649,-6.6161,-6.649,-6.7478,-6.6819,-6.6999,-6.7986,-6.7298,-6.7358,-6.7956,-6.7298,-6.7358,-6.8076,-6.9393,-7.05,-7.1607,-7.3941,-7.5647,-7.6874,-7.7203,-7.7532,-7.7771,-7.7442,-7.7322,-7.7023,-7.5048,-7.3732,-7.2595,-7.0949,-6.9991,-6.9303,-6.8675,-6.8016,-6.7358,-6.667,-6.649,-6.6251,-6.5263,-6.4784,0.0,0.0,-6.2301,-6.1942,-6.1672,-6.1583,-6.1672,-6.2032,-6.2361,-6.269,-6.3019,-6.3348,-6.3647,-6.4006,-6.4904,-6.5413,-6.5054,-6.5024,-6.5293,-6.5951,-6.6011,-6.6131,-6.649,-6.649,-6.6789,-6.7448,-6.7777,-6.8286,-6.8974,-6.9632,-7.029,-7.0889,-7.0889,-7.1068,-7.1398,-7.1727,-7.2056,-7.2445,-7.3432,-7.3881,-7.3941,-7.4599,-7.4689,-7.439,-7.439,-7.3791,-7.2864,-7.2535,-7.2176,-7.1936,-7.2265,-7.3043,-7.3881,-6.2728,-6.2673,-6.2527,-6.2587,-6.4128,-6.534,-6.5205,-6.7086,-6.8827,-6.9749,-7.1022,-7.1996,-7.2235,-7.2026,-7.1787,-7.1487,-7.1128,-7.0799,-7.056,-6.9692,-6.8884,-6.8196,-6.7657,-6.7567,-6.7956,-6.7448,-6.7567,-6.8375,-6.7567,-6.7298,-6.7567,-6.7298,-6.7537,-6.8136,-6.7478,-6.7926,-6.9273,-7.041,-7.1368,-7.2265,-7.427,-7.5707,-7.6724,-7.7502,-7.813,-7.8549,-7.813,-7.7831,-7.7442,-7.6305,-7.5377,-7.439,-7.2624,-7.1727,-7.1128,-7.038,-6.9782,-6.9183,-6.8375,-6.8256,-6.8166,-6.7388,-6.6789,-6.6041,0.0,0.0,0.0,-6.251,-6.26,-6.2839,-6.272,-6.281,-6.2899,-6.2899,-6.2989,-6.3079,-6.3079,-6.3977,-6.4635,-6.4635,-6.4635,-6.4874,-6.5383,-6.4964,-6.5024,-6.5951,-6.5892,-6.6161,-6.6939,-6.7627,-6.8286,-6.8974,-6.9632,-7.029,-7.0889,-7.1038,-7.1368,-7.1876,-7.2146,-7.2565,-7.3133,-7.3791,-7.4091,-7.4121,-7.4629,-7.4809,-7.4689,-7.4689,-7.43,-7.3672,-7.3253,-7.2774,-7.2355,-7.2894,-7.3522,-7.4091,-6.2204,-6.2175,-6.2234,-6.2523,-6.397,-6.5202,-6.574,-6.7359,-6.9218,-7.1362,-7.1787,-7.2325,-7.3522,-7.2595,-7.2325,-7.3462,-7.1936,-7.1368,-7.2505,-7.0889,-6.9572,-6.8914,-6.8824,-6.8525,-6.7986,-6.7897,-6.8495,-6.9752,-6.8495,-6.8465,-6.9602,-6.8405,-6.8226,-6.8854,-6.8166,-6.8615,-6.9901,-7.062,-7.1637,-7.2984,-7.4988,-7.5886,-7.6125,-7.7352,-7.7861,-7.7981,-7.8489,-7.7921,-7.6844,-7.6125,-7.5048,-7.3851,-7.3043,-7.2744,-7.2445,-7.1158,-7.0739,-7.044,-6.9213,-6.9303,-6.9453,-6.8166,-6.7807,-6.7418,-6.6071,0.0,-6.3797,-6.3109,0.0,-6.2032,-6.1433,0.0,0.0,-6.2211,-6.269,-6.3079,-6.3079,-6.3199,-6.3288,-6.3288,-6.3288,-6.3318,-6.3408,-6.3348,-6.4036,-6.5862,-6.5473,-6.5682,-6.6939,-6.7627,-6.8286,-6.8974,-6.9632,-7.029,-7.0889,-7.1487,-7.1816,-7.1906,-7.3103,-7.3702,-7.3821,-7.445,-7.4779,-7.4779,-7.4839,-7.454,-7.4001,-7.4001,-7.3612,-7.3073,-7.3582,-7.3732,-7.3672,-7.3762,-7.421,-7.4779,-6.2116,-6.191,-6.2115,-6.3031,-6.4211,-6.5238,-6.6118,-6.8506,-7.0308,-7.0687,-7.1732,-7.2783,-7.3714,-7.2656,-7.2498,-7.3959,-7.285,-7.2146,-7.2295,-7.1188,-7.0231,-6.9602,-6.9213,-6.9034,-6.9153,-6.8375,-6.8435,-6.9423,-6.8076,-6.7687,-6.8256,-6.8046,-6.8345,-6.9004,-6.9093,-6.9871,-7.1098,-7.1368,-7.2235,-7.3552,-7.439,-7.4958,-7.5527,-7.7592,-7.837,-7.84,-7.8699,-7.843,-7.7801,-7.6784,-7.6066,-7.5407,-7.439,-7.3791,-7.3283,-7.2355,-7.2086,0.0,-7.0919,-7.1158,-7.1457,-7.047,-6.9961,-6.9333,-6.8046,-6.67,-6.5562,-6.4904,0.0,0.0,0.0,0.0,0.0,0.0,-6.3139,-6.3079,-6.3079,-6.3079,-6.3079,-6.3079,-6.3079,-6.3079,-6.3079,-6.3079,-6.3737,-6.5323,-6.5173,-6.5592,-6.6909,-6.7627,-6.8286,-6.8974,-6.9632,-7.047,-7.1457,-7.1757,-7.2265,-7.3073,-7.3612,-7.4091,-7.448,-7.4749,-7.4869,-7.4869,-7.4869,-7.4719,-7.445,-7.445,-7.43,-7.4091,-7.436,-7.424,-7.3941,-7.433,-7.4629,-7.4869,-6.1939,-6.1732,-6.1997,-6.3239,-6.4032,-6.497,-6.6313,-6.8664,-7.0206,-7.0068,-7.1212,-7.2693,-7.4169,-7.3363,-7.3574,-7.5617,-7.4663,-7.3702,-7.3043,-7.2026,-7.1098,-7.026,-6.9782,-6.9752,-7.0231,-6.8944,-6.8675,-6.9512,-6.8196,-6.7627,-6.7807,-6.8286,-6.8794,-6.9303,-6.9961,-7.0949,-7.2176,-7.2355,-7.3103,-7.418,-7.436,-7.4839,-7.5617,-7.7352,-7.822,-7.8519,-7.8519,-7.8519,-7.834,-7.7203,-7.6724,-7.6365,-7.5228,-7.454,-7.4031,-7.3373,0.0,0.0,-7.2355,-7.2654,-7.3013,-7.2325,-7.1816,-7.1128,-6.9812,-6.8764,-6.7777,-6.6759,-6.6161,0.0,0.0,0.0,-6.4216,-6.4036,0.0,-6.3258,-6.3109,-6.3079,-6.3079,-6.3079,-6.3079,-6.3079,-6.3079,-6.3079,-6.3528,-6.4665,-6.4934,-6.5533,-6.667,-6.7687,-6.8495,-6.8974,-6.9812,-7.0679,-7.1607,-7.1996,-7.2654,-7.3642,-7.4001,-7.442,-7.4869,-7.4869,-7.4869,-7.4869,-7.4869,-7.4869,-7.4869,-7.4869,-7.4869,-7.4869,-7.4869,-7.4569,-7.421,-7.4689,-7.4869,-7.4869,-6.1313,-6.1464,-6.1937,-6.2941,-6.3132,-6.3935,-6.6177,-6.7103,-6.8195,-7.0129,-7.0216,-7.1547,-7.5368,-7.5228,-7.6096,-7.9387,-7.7861,-7.6455,-7.5826,-7.3941,-7.2265,-7.0919,-7.0859,-7.0859,-7.0859,-6.9632,-6.9572,-7.0829,-6.9572,-6.9273,-6.9871,-6.9901,-6.9931,-6.9961,-7.059,-7.1607,-7.2924,-7.3552,-7.424,-7.4899,-7.5557,-7.6215,-7.6694,-7.6185,-7.6754,-7.7831,-7.7831,-7.7831,-7.7741,-7.7053,-7.6425,-7.5826,-7.5108,-7.4869,-7.4719,-7.4061,-7.3851,-7.3732,-7.3073,-7.3373,-7.3702,-7.3043,-7.2864,-7.2505,-7.1158,-7.0799,-7.0231,-6.8315,-6.7897,-6.7478,-6.6221,-6.5443,0.0,0.0,-6.3977,0.0,0.0,-6.3079,-6.3079,-6.3079,-6.3079,-6.3079,-6.3079,-6.3079,-6.3348,-6.3977,-6.4635,-6.5323,-6.6011,-6.7897,-6.8974,-6.9004,-7.0231,-7.0889,-7.0949,-7.2235,-7.2894,-7.2954,-7.424,-7.4869,-7.4869,-7.4869,-7.4869,-7.4869,-7.4869,-7.4869,-7.4869,-7.4869,-7.4869,-7.4869,-7.4869,-7.4869,-7.4839,-7.4869,-7.4869,-7.4869,-6.1837,-6.2197,-6.2644,-6.2759,-6.2601,-6.3058,-6.4886,-6.6483,-6.8432,-7.1081,-7.2887,-7.5349,-7.9219,-7.9543,-8.0331,-8.2478,-8.1093,-7.9267,-7.7293,-7.5736,-7.4091,-7.2325,-7.1368,-7.1098,-7.1547,-7.029,-6.9871,-7.029,-6.9423,-6.9123,-6.9333,-6.9782,-6.9991,-7.0021,-7.1068,-7.2056,-7.2924,-7.3163,-7.3881,-7.4899,-7.5138,-7.5856,-7.6814,-7.6604,-7.6784,-7.7173,-7.7173,-7.7173,-7.7053,-7.6425,-7.6066,-7.5766,-7.5078,-7.4869,-7.4749,-7.4091,-7.421,-7.439,-7.3732,-7.439,-7.4958,-7.3851,-7.3881,-7.3851,-7.2535,-7.2235,-7.1906,-7.0799,-7.0201,-6.9662,-6.8794,-6.7358,0.0,0.0,0.0,-6.3917,0.0,-6.3318,-6.3079,-6.3079,-6.3079,-6.3079,-6.3079,-6.3079,-6.3318,-6.3947,-6.4635,-6.5323,-6.5981,-6.7926,-6.9004,-6.9004,-7.0231,-7.1338,-7.2235,-7.2684,-7.3343,-7.421,-7.4659,-7.4869,-7.4869,-7.4869,-7.4869,-7.4869,-7.4869,-7.4869,-7.4869,-7.4869,-7.4869,-7.4869,-7.4869,-7.4869,-7.4869,-7.4869,-7.4869,-7.4869,-6.2038,-6.2282,-6.2465,-6.2579,-6.2343,-6.2694,-6.4399,-6.6697,-6.9203,-7.2057,-7.5061,-7.8393,-8.229,-8.2763,-8.356,-8.5218,-8.423,-8.1991,-7.84,-7.7831,-7.6335,-7.3402,-7.2445,-7.2176,-7.2595,-7.0889,-7.0081,-7.032,-6.9662,-6.9453,-6.9692,-7.0111,-7.0201,-7.0051,-7.1308,-7.2146,-7.2595,-7.3043,-7.3881,-7.4869,-7.4869,-7.5377,-7.6125,-7.6125,-7.6574,-7.7113,-7.6664,-7.6634,-7.6754,-7.6365,-7.6096,-7.5826,-7.5377,-7.5078,-7.4809,-7.436,-7.454,-7.4779,-7.436,-7.5048,-7.5707,-7.4839,-7.5108,-7.5228,-7.3911,-7.3821,-7.3642,-7.2475,-7.1906,-7.1368,-7.047,-6.8884,0.0,0.0,0.0,0.0,0.0,-6.3318,-6.3079,-6.3079,-6.3079,-6.3079,-6.3079,-6.3079,-6.3228,-6.3647,-6.4515,-6.5203,-6.5652,-6.7777,-6.9004,-6.9004,-7.047,-7.1667,-7.2535,-7.3013,-7.3702,-7.454,-7.4779,-7.4869,-7.4869,-7.4869,-7.4869,-7.4869,-7.4869,-7.4869,-7.4869,-7.4869,-7.4869,-7.4869,-7.4869,-7.4869,-7.4869,-7.4869,-7.4869,-7.4869,-6.2006,-6.1716,-6.1633,-6.2549,-6.235,-6.2734,-6.471,-6.7593,-7.0552,-7.3257,-7.6781,-8.0584,-8.4534,-8.4983,-8.5761,-8.7676,-8.7227,-8.4654,-7.9507,-8.0285,-7.8938,-7.442,-7.4121,-7.4031,-7.4001,-7.1487,0.0,-7.0949,-7.029,-7.029,-7.0889,-7.0859,-7.056,-7.0081,-7.1308,-7.1876,-7.2026,-7.3313,-7.424,-7.4869,-7.4869,-7.4929,-7.4958,-7.4899,-7.6066,-7.7592,-7.6305,-7.6245,-7.6724,-7.6724,-7.6335,-7.5856,-7.5856,-7.5407,-7.4869,-7.4869,-7.4899,-7.4929,-7.4899,-7.5407,-7.5946,-7.5886,-7.6335,-7.6455,-7.5168,-7.5407,-7.5347,-7.3402,-7.3013,-7.2595,-7.1248,-6.9961,-6.8645,0.0,0.0,0.0,0.0,-6.3109,-6.3109,-6.3079,-6.3079,-6.3079,-6.3079,-6.3079,-6.3079,-6.3079,-6.4246,-6.4994,-6.5084,-6.7537,-6.9004,-6.9093,-7.0919,-7.1906,-7.1996,-7.3253,-7.3911,-7.3941,-7.4569,-7.4869,-7.4869,-7.4869,-7.4869,-7.4869,-7.4869,-7.4869,-7.4869,-7.4869,-7.4869,-7.4869,-7.4869,-7.4869,-7.4869,-7.4869,-7.4869,-7.4869,-6.2616,-6.308,-6.3444,-6.4006,-6.2965,-6.2813,-6.5014,-6.8393,-7.2044,-7.6125,-8.0451,-8.4534,-8.8005,-8.8843,-8.9322,-8.983,-8.9292,-8.7706,-8.4833,-8.3606,-8.1811,-7.9148,-7.7143,-7.5856,-7.5407,-7.3762,-7.2475,-7.1637,-7.0979,-7.0739,-7.0889,-7.044,-7.038,-7.0679,-7.1009,-7.1727,-7.2684,-7.3013,-7.3821,-7.4869,-7.4869,-7.5467,-7.6215,-7.5258,-7.5796,-7.6904,-7.5617,-7.5258,-7.5377,-7.5377,-7.5258,-7.5138,-7.5138,-7.5018,-7.4869,-7.4869,-7.5228,-7.5527,-7.5018,-7.5707,-7.6365,-7.5377,-7.5647,-7.5916,-7.5078,-7.5407,-7.5617,-7.4599,-7.436,-7.3971,-7.2624,-7.1308,-6.9991,0.0,0.0,0.0,0.0,-6.3767,-6.3588,-6.3139,-6.3079,-6.3079,-6.3079,-6.3079,-6.3079,-6.3079,-6.3827,-6.4695,-6.5712,-6.7328,-6.8914,-7.038,-7.1368,-7.2355,-7.3373,-7.3732,-7.4151,-7.4629,-7.4809,-7.4869,-7.4869,-7.4869,-7.4869,-7.4869,-7.4869,-7.4869,-7.4869,-7.4869,-7.4869,-7.4869,-7.4869,-7.4869,-7.4869,-7.4869,-7.4869,-7.4869,-6.3033,-6.4056,-6.4769,-6.516,-6.5522,-6.6217,-6.7608,-6.988,-7.2925,-7.7252,-8.1841,-8.5432,-8.7287,-8.9382,-9.0638,-9.0638,-9.0309,-8.8993,-8.6419,-8.5761,-8.4085,-8.0943,-7.9088,-7.7562,-7.6335,-7.445,0.0,-7.1457,-7.0799,-7.035,-7.0081,-7.0021,-7.0021,-7.0111,-7.0949,-7.1757,-7.2505,-7.3402,-7.421,-7.4869,-7.4869,-7.5318,0.0,-7.5138,-7.5347,-7.5886,-7.5138,-7.4869,-7.4929,-7.5228,-7.5138,-7.4929,-7.5228,-7.5108,-7.4869,-7.4869,-7.5138,-7.5377,-7.4988,-7.5647,-7.6245,-7.5497,-7.5826,-7.6125,-7.5467,-7.5617,-7.5707,-7.5018,-7.4869,-7.4569,-7.3522,-7.2475,-7.1188,0.0,0.0,0.0,0.0,-6.4874,-6.4635,-6.4006,-6.3647,-6.3468,-6.3468,-6.3228,-6.3079,-6.3079,-6.3647,-6.4455,-6.5533,-6.7089,-6.8734,-7.044,-7.1697,-7.2834,-7.3881,-7.418,-7.451,-7.4869,-7.4869,-7.4869,-7.4869,-7.4869,-7.4869,-7.4869,-7.4869,-7.4869,-7.4869,-7.4869,-7.4869,-7.4869,-7.4869,-7.4869,-7.4869,-7.4869,-7.4869,-7.4869,-6.3334,-6.4739,-6.5772,-6.6063,-6.8693,-7.1002,-7.1834,-7.2743,-7.4653,-7.8268,-8.2679,-8.5492,-8.5492,-8.8574,-9.0638,-9.0638,-9.0638,-8.9382,-8.6419,-8.7227,-8.597,-8.1751,-8.0704,-7.9267,-7.7263,-7.4659,-7.2565,0.0,-7.032,-6.9692,-6.9123,-6.9632,-6.9632,-6.9333,-7.1009,-7.1846,-7.2146,-7.3971,-7.4809,-7.4869,-7.4869,-7.4869,-7.4869,-7.4869,-7.4869,-7.4869,-7.4869,-7.4869,-7.4958,-7.5557,-7.5377,-7.4988,-7.5587,-7.5347,-7.4869,-7.4869,-7.4929,-7.5018,-7.5018,-7.5437,-7.5916,-7.5916,-7.6245,-7.6425,-7.5886,-7.5766,-7.5587,-7.4988,-7.4869,-7.4689,-7.4001,-7.3283,-7.1996,0.0,0.0,-6.7777,-6.646,-6.6251,0.0,0.0,-6.4635,0.0,-6.4006,-6.3438,-6.3079,-6.3079,-6.3588,-6.4246,-6.5114,-6.6879,-6.8585,-7.0171,-7.1966,-7.3283,-7.4001,-7.4599,-7.4869,-7.4869,-7.4869,-7.4869,-7.4869,-7.4869,-7.4869,-7.4869,-7.4869,-7.4869,-7.4869,-7.4869,-7.4869,-7.4869,-7.4869,-7.4869,-7.4869,-7.4869,-7.4869,-7.4869,-6.3665,-6.5379,-6.6714,-6.6828,-7.0103,-7.3838,-7.6942,-7.9603,-8.1747,-8.3291,-8.7048,-8.9591,-8.9591,-9.0219,-9.0638,-9.0638,-9.0638,-9.016,-8.9052,-8.8693,-8.7646,-8.5731,-8.3457,-8.1332,-7.9327,-7.6724,-7.418,0.0,-7.056,-6.9931,-6.9812,-6.9363,-6.9662,-7.059,-7.0919,-7.1697,-7.2804,-7.3702,-7.439,-7.4869,-7.4869,-7.4869,-7.4869,-7.4869,-7.4869,-7.4869,-7.4869,-7.4869,-7.4899,-7.5018,-7.4988,-7.4899,-7.5018,-7.4958,-7.4869,-7.4869,-7.5288,-7.5707,-7.5707,-7.5826,-7.5916,-7.5916,-7.5557,-7.5198,-7.5078,-7.5048,-7.5018,-7.4899,-7.4869,-7.4689,-7.4001,-7.2894,-7.1727,-7.0739,-7.0021,-6.9123,-6.7807,-6.7627,0.0,0.0,0.0,-6.5233,-6.4096,-6.3438,-6.3079,-6.3079,-6.3169,-6.4006,-6.5742,-6.667,-6.8495,-7.1457,-7.2445,-7.3492,-7.4689,-7.4809,-7.4869,-7.4869,-7.4869,-7.4869,-7.4869,-7.4869,-7.4869,-7.4869,-7.4869,-7.4869,-7.4869,-7.4869,-7.4869,-7.4869,-7.4869,-7.4869,-7.4869,-7.4869,-7.4869,-7.4869,-6.5227,-6.6885,-6.8619,-7.0075,-7.3704,-7.7634,-8.1317,-8.4499,-8.6022,-8.4367,-8.6449,-8.7945,-8.7616,-8.9412,-9.0489,-9.016,-9.013,-8.986,-8.9202,-8.8215,-8.7197,-8.621,-8.3666,-8.1482,-7.9866,-7.6904,-7.424,-7.1876,-7.026,-6.9273,-6.8944,-6.8974,-6.9512,-7.044,-7.1128,-7.2146,-7.3432,-7.3762,-7.427,-7.4869,-7.4869,-7.4869,-7.4869,-7.4869,-7.4869,-7.4869,-7.4869,-7.4869,-7.4869,-7.4869,-7.4869,-7.4869,-7.4869,-7.4869,-7.4869,-7.4869,-7.5108,-7.5377,-7.5377,-7.5377,-7.5377,-7.5377,-7.5108,-7.4869,-7.4869,-7.4869,-7.4869,-7.4869,-7.4869,-7.4779,-7.445,-7.3612,-7.2834,-7.2505,-7.1607,-7.059,-6.9632,-6.9213,-6.8645,0.0,0.0,0.0,-6.5622,-6.4665,-6.3947,-6.3588,-6.3558,-6.4276,-6.5922,-6.6969,-6.8704,-7.1308,-7.2385,-7.3552,-7.4869,-7.4869,-7.4869,-7.4869,-7.4869,-7.4869,-7.4869,-7.4869,-7.4869,-7.4869,-7.4869,-7.4869,-7.4869,-7.4869,-7.4869,-7.4869,-7.4869,-7.4869,-7.4869,-7.4869,-7.4869,-7.4869,-6.763,-6.9109,-7.1162,-7.3753,-7.7509,-8.1062,-8.4038,-8.7317,-8.8424,-8.5581,-8.597,-8.6329,-8.5821,-8.8424,-9.001,-8.9501,-8.9471,-8.9112,-8.8304,-8.7257,-8.6329,-8.5521,-8.3098,-8.1242,-8.0045,-7.6784,-7.4121,-7.2116,-7.0141,-6.8914,-6.8405,-6.8824,-6.9482,-7.044,-7.1577,-7.2774,-7.3881,-7.3881,-7.427,-7.4869,-7.4869,-7.4869,-7.4869,-7.4869,-7.4869,-7.4869,-7.4869,-7.4869,-7.4869,-7.4869,-7.4869,-7.4869,-7.4869,-7.4869,-7.4869,-7.4869,-7.4869,-7.4899,-7.5048,-7.5078,-7.5138,-7.5258,-7.5288,-7.5258,-7.5138,-7.5078,-7.5048,-7.4899,-7.4869,-7.4869,-7.4869,-7.445,-7.4061,-7.3911,-7.3013,-7.2086,-7.1427,-7.0919,-7.029,0.0,0.0,0.0,-6.7059,-6.6041,-6.5173,-6.4485,-6.4306,-6.4755,-6.5951,-6.7268,-6.8884,-7.0829,-7.2206,-7.3552,-7.4869,-7.4869,-7.4869,-7.4869,-7.4869,-7.4869,-7.4869,-7.4869,-7.4869,-7.4869,-7.4869,-7.4869,-7.4869,-7.4869,-7.4869,-7.4869,-7.4869,-7.4869,-7.4869,-7.4869,-7.4958,-7.5078,-7.1049,-7.2473,-7.4118,-7.6516,-8.0214,-8.3074,-8.3709,-8.6659,-8.9082,-8.989,-8.9591,-8.9262,-8.9202,-8.8993,-8.8843,-8.8783,-8.8783,-8.8245,-8.6958,-8.6748,-8.612,-8.4863,-8.2858,-8.1452,-8.0734,-7.7502,-7.4839,-7.2834,-7.0829,-6.9812,-6.9782,-6.9243,-6.9961,-7.1727,-7.2475,-7.3223,-7.3881,-7.3881,-7.427,-7.4869,-7.4869,-7.4869,-7.4869,-7.4869,-7.4869,-7.4869,-7.4869,-7.4869,-7.4869,-7.4869,-7.4869,-7.4869,-7.4869,-7.4869,-7.4869,-7.4869,-7.4869,-7.5018,-7.5647,-7.5826,-7.5946,-7.6514,-7.6634,-7.6485,-7.5946,-7.5826,-7.5617,-7.5018,-7.4869,-7.4869,-7.4869,-7.4839,-7.4599,-7.4001,-7.3791,-7.3462,-7.2834,-7.2684,-7.2146,-7.0889,0.0,0.0,-6.7208,-6.6879,-6.652,-6.5862,-6.5263,-6.5233,-6.5981,-6.7268,-6.8884,-7.0829,-7.2206,-7.3552,-7.4869,-7.4869,-7.4869,-7.4869,-7.4869,-7.4869,-7.4869,-7.4869,-7.4869,-7.4869,-7.4869,-7.4869,-7.4869,-7.4869,-7.4869,-7.4869,-7.4869,-7.4869,-7.4869,-7.4869,-7.5258,-7.5826,-7.3695,-7.4555,-7.6104,-7.9407,-8.1616,-8.3662,-8.5821,-8.7586,-8.8873,-8.9382,-8.9232,-8.9082,-8.9082,-8.8843,-8.8514,-8.8125,-8.8095,-8.7676,-8.6748,-8.594,-8.5252,-8.4743,-8.2439,-8.1063,-8.0794,-7.7592,-7.5108,-7.3492,-7.1487,-7.032,-6.9961,-6.9722,-7.041,-7.1906,-7.2595,-7.3283,-7.3881,-7.3881,-7.427,-7.4869,-7.4869,-7.4869,-7.4869,-7.4869,-7.4869,-7.4869,-7.4869,-7.4869,-7.4869,-7.4869,-7.4869,-7.4869,-7.4869,-7.4869,-7.4869,-7.4869,-7.4869,-7.4929,-7.5198,-7.5587,-7.5976,-7.6215,-7.6275,-7.6215,-7.5976,-7.5587,-7.5198,-7.4929,-7.4869,-7.4869,-7.4869,-7.4869,-7.4779,-7.454,-7.4151,-7.3821,-7.3552,-7.3163,0.0,-7.1607,0.0,-7.035,-6.8914,-6.8046,-6.7478,-6.7208,-6.6221,-6.6071,-6.7119,-6.8465,-6.9901,-7.1457,-7.2804,-7.3941,-7.4869,-7.4869,-7.4869,-7.4869,-7.4869,-7.4869,-7.4869,-7.4869,-7.4869,-7.4869,-7.4869,-7.4869,-7.4869,-7.4869,-7.4869,-7.4869,-7.4869,-7.4869,-7.4869,-7.4869,-7.5048,-7.5347,-7.6163,-7.6841,-7.84,-8.1781,-8.2888,-8.4175,-8.6718,-8.7496,-8.7885,-8.8065,-8.8095,-8.8185,-8.8364,-8.8215,-8.7915,-8.7437,-8.7407,-8.7018,-8.615,-8.5222,-8.4444,-8.3876,-8.1901,-8.0704,-8.0524,-7.7652,-7.5617,-7.448,-7.2265,-7.0979,-7.053,-7.053,-7.1009,-7.1906,-7.2595,-7.3163,-7.3612,-7.3821,-7.4151,-7.4599,-7.4809,-7.4869,-7.4869,-7.4869,-7.4869,-7.4869,-7.4869,-7.4869,-7.4869,-7.4869,-7.4869,-7.4869,-7.4869,-7.4869,-7.4869,-7.4869,-7.4869,-7.4869,-7.4869,-7.5527,-7.6125,-7.5946,-7.6185,-7.6365,-7.6006,-7.5527,-7.5108,-7.4929,-7.4869,-7.4869,-7.4869,-7.4869,-7.4869,-7.4869,-7.448,-7.418,-7.418,-7.3791,0.0,-7.2565,-7.2056,-7.1457,-7.062,-6.9512,-6.8764,-6.8585,-6.7537,-6.7208,-6.7926,-6.9423,-7.0739,-7.1846,-7.3193,-7.421,-7.4869,-7.4869,-7.4869,-7.4869,-7.4869,-7.4869,-7.4869,-7.4869,-7.4869,-7.4869,-7.4869,-7.4869,-7.4869,-7.4869,-7.4869,-7.4869,-7.4869,-7.4869,-7.4869,-7.4869,-7.4988,-7.5258,-7.837,-7.9836,-8.1362,-8.3367,-8.4265,-8.4923,-8.5611,-8.5731,-8.597,-8.6629,-8.6689,-8.6958,-8.7646,-8.7107,-8.6689,-8.6689,-8.6689,-8.615,-8.4833,-8.4714,-8.3846,-8.1901,-8.1153,-8.0494,-7.9836,-7.7861,-7.6514,-7.5886,-7.3193,-7.1876,-7.1876,-7.1876,-7.1876,-7.1906,-7.2595,-7.2924,-7.2984,-7.3612,-7.3881,-7.3971,-7.4599,-7.4869,-7.4869,-7.4869,-7.4869,-7.4869,-7.4869,-7.4869,-7.4869,-7.4869,-7.4869,-7.4869,-7.4869,-7.4869,-7.4869,-7.4869,-7.4869,-7.4869,-7.4869,-7.5826,-7.6664,-7.6066,-7.6844,-7.7442,-7.6185,-7.5886,-7.5707,-7.5018,-7.4869,-7.4869,-7.4869,-7.4869,-7.4869,-7.4869,-7.4869,-7.4869,-7.4869,-7.4869,0.0,-7.3941,-7.3851,-7.3343,-7.1996,-7.1248,-7.062,-6.9991,-6.9333,-6.8675,-6.8016,-6.9842,-7.1188,-7.1876,-7.3193,-7.421,-7.4869,-7.4869,-7.4869,-7.4869,-7.4869,-7.4869,-7.4869,-7.4869,-7.4869,-7.4869,-7.4869,-7.4869,-7.4869,-7.4869,-7.4869,-7.4869,-7.4869,-7.4869,-7.4869,-7.4869,-7.5318,-7.5886,-7.9956,-8.0883,-8.1961,-8.3457,-8.3906,-8.4265,-8.4923,-8.5013,-8.5103,-8.5312,-8.5731,-8.609,-8.6299,-8.6539,-8.6689,-8.6689,-8.627,-8.5821,-8.5402,-8.4534,-8.3576,-8.2499,-8.1392,-8.0285,-7.9148,-7.7622,-7.6305,-7.5198,-7.3881,-7.2774,-7.1876,-7.1876,-7.1876,-7.1906,-7.2595,-7.3163,-7.3612,-7.3821,-7.4151,-7.4569,-7.4779,-7.4869,-7.4869,-7.4869,-7.4869,-7.4869,-7.4869,-7.4869,-7.4869,-7.4869,-7.4869,-7.4869,-7.4869,-7.4869,-7.4869,-7.4869,-7.4869,-7.4869,-7.4869,-7.5527,-7.6155,-7.5946,-7.6215,-7.6395,-7.6006,-7.5557,-7.5138,-7.4929,-7.4869,-7.4869,-7.4869,-7.4869,-7.4869,-7.4869,-7.4869,-7.4869,-7.4869,-7.4869,-7.4629,-7.3971,-7.3881,-7.3552,-7.2684,-7.1966,-7.1308,-7.0649,-7.0829,-7.0679,-6.9991,-7.0979,-7.2086,-7.3223,-7.4121,-7.4659,-7.4869,-7.4869,-7.4869,-7.4869,-7.4869,-7.4869,-7.4869,-7.4869,-7.4869,-7.4869,-7.4869,-7.4869,-7.4869,-7.4869,-7.4869,-7.4929,-7.5377,-7.5587,-7.5617,-7.6036,-7.6335,-7.6544,-8.1033,-8.1691,-8.2409,-8.3217,-8.3367,-8.3576,-8.4235,-8.4354,-8.4444,-8.4684,-8.5073,-8.5312,-8.5312,-8.5701,-8.603,-8.627,-8.5701,-8.5222,-8.4983,-8.3965,-8.2978,-8.205,-8.1003,-7.9926,-7.8819,-7.7502,-7.6425,-7.5617,-7.445,-7.3343,-7.2265,-7.2265,-7.2265,-7.2295,-7.2714,-7.3133,-7.3552,-7.3791,-7.4121,-7.454,-7.4779,-7.4719,-7.451,-7.451,-7.451,-7.451,-7.451,-7.4659,-7.4869,-7.4869,-7.4869,-7.4869,-7.4869,-7.4869,-7.4869,-7.4869,-7.4869,-7.4869,-7.4869,-7.5377,-7.5856,-7.5587,-7.5707,-7.5826,-7.5587,-7.5198,-7.4869,-7.4869,-7.4869,-7.4869,-7.4869,-7.4869,-7.4869,-7.4869,-7.4869,-7.4869,-7.4869,-7.4869,-7.4719,-7.43,-7.427,-7.4091,-7.3702,-7.3043,-7.2475,-7.2056,-7.2176,-7.2206,-7.2026,-7.2415,-7.3013,-7.3881,-7.454,-7.4869,-7.4869,-7.4869,-7.4869,-7.4869,-7.4869,-7.4869,-7.4869,-7.4869,-7.5018,-7.5258,-7.5258,-7.5377,-7.5617,-7.5617,-7.5617,-7.5647,-7.6066,-7.6245,-7.6305,-7.6694,-7.6814,-7.6784,-8.1661,-8.232,-8.2844,-8.2844,-8.2844,-8.2978,-8.3576,-8.3666,-8.3876,-8.4504,-8.4624,-8.4654,-8.4654,-8.4654,-8.4893,-8.5521,-8.4983,-8.4354,-8.3696,-8.3068,-8.211,-8.0794,-8.0135,-7.9477,-7.8729,-7.7472,-7.6784,-7.6694,-7.4809,-7.3582,-7.2984,-7.2924,-7.2924,-7.2924,-7.2924,-7.2954,-7.3013,-7.3642,-7.3911,-7.4001,-7.4629,-7.451,-7.3971,-7.3971,-7.3971,-7.3971,-7.3971,-7.436,-7.4869,-7.4869,-7.4869,-7.4869,-7.4869,-7.4869,-7.4869,-7.4869,-7.4869,-7.4869,-7.4869,-7.5347,-7.5677,-7.5048,-7.5347,-7.5677,-7.5018,-7.4869,-7.4869,-7.4869,-7.4869,-7.4869,-7.4869,-7.4869,-7.4869,-7.4869,-7.4869,-7.4869,-7.4869,-7.4869,-7.4869,-7.4869,-7.4869,-7.4869,-7.4869,-7.433,-7.3941,-7.3881,-7.3373,-7.3283,-7.3881,-7.4001,-7.4001,-7.3971,-7.454,-7.4899,-7.4958,-7.4958,-7.4958,-7.5018,-7.5018,-7.5018,-7.5018,-7.5018,-7.5347,-7.5976,-7.5976,-7.6305,-7.6814,-7.6814,-7.6814,-7.6814,-7.6874,-7.6904,-7.6904,-7.6933,-7.6963,-7.6874,-8.1751,-8.232,-8.2844,-8.2844,-8.2844,-8.2828,-8.2978,-8.2978,-8.3038,-8.3217,-8.3666,-8.3965,-8.3965,-8.3965,-8.4025,-8.4175,-8.4055,-8.3696,-8.3038,-8.238,-8.1422,-8.0105,-7.9896,-7.9267,-7.8071,-7.7233,-7.6335,-7.5347,-7.436,-7.3821,-7.3642,-7.3163,-7.2924,-7.2924,-7.2924,-7.3193,-7.3672,-7.3821,-7.418,-7.4659,-7.4809,-7.4779,-7.4629,-7.4629,-7.4629,-7.4629,-7.4629,-7.4749,-7.4869,-7.4869,-7.4869,-7.4869,-7.4869,-7.4869,-7.4869,-7.4869,-7.4869,-7.4869,-7.4869,-7.4988,-7.5078,-7.4929,-7.4988,-7.5078,-7.4929,-7.4869,-7.4869,-7.4869,-7.4869,-7.4869,-7.4869,-7.4869,-7.4869,-7.4869,-7.4869,-7.4869,-7.4869,-7.4869,-7.4869,-7.4869,-7.4869,-7.4869,-7.4869,-7.4749,-7.442,-7.3941,-7.421,-7.427,-7.3911,-7.4869,-7.5198,-7.4659,-7.4809,-7.5138,-7.5647,-7.5647,-7.5886,-7.6365,-7.6365,-7.6365,-7.6365,-7.6365,-7.6455,-7.6604,-7.6604,-7.6694,-7.6814,-7.6814,-7.6814,-7.6874,-7.7382,-7.7562,-7.7652,-7.813,-7.834,-7.831,-8.211,-8.2529,-8.2844,-8.2844,-8.2844,-8.2844,-8.2844,-8.2844,-8.2844,-8.2844,-8.3068,-8.3277,-8.3277,-8.3277,-8.3277,-8.3277,-8.3008,-8.2679,-8.235,-8.1422,-8.0554,-7.9866,-7.9238,-7.8549,-7.7831,-7.6874,-7.5916,-7.4869,-7.451,-7.436,-7.433,-7.3971,-7.3821,-7.3821,-7.3821,-7.4001,-7.436,-7.436,-7.454,-7.4869,-7.4869,-7.4689,-7.442,-7.442,-7.442,-7.442,-7.442,-7.4629,-7.4869,-7.4869,-7.4869,-7.4869,-7.4869,-7.4869,-7.4869,-7.4869,-7.4869,-7.4869,-7.4869,-7.4869,-7.4869,-7.4869,-7.4869,-7.4869,-7.4869,-7.4869,-7.4869,-7.4869,-7.4869,-7.4869,-7.4869,-7.4869,-7.4869,-7.4869,-7.4869,-7.4869,-7.4869,-7.4869,-7.4869,-7.4869,-7.4869,-7.4988,-7.5318,-7.5347,-7.5198,-7.4839,-7.5407,-7.5497,-7.4839,-7.5766,-7.6036,-7.5377,-7.5617,-7.5946,-7.6335,-7.6335,-7.6485,-7.6814,-7.6814,-7.6814,-7.6814,-7.6814,-7.6993,-7.7293,-7.7293,-7.7442,-7.7711,-7.7711,-7.7711,-7.7771,-7.81,-7.825,-7.831,-7.8669,-7.8789,-7.8759,-8.2529,-8.2844,-8.2844,-8.2844,-8.2844,-8.2844,-8.2844,-8.2844,-8.2709,-8.2619,-8.2619,-8.2619,-8.2619,-8.2619,-8.2649,-8.2814,-8.208,-8.1631,-8.1631,-8.0494,-7.9716,-7.9537,-7.8519,-7.7861,-7.7652,-7.6514,-7.5557,-7.4869,-7.4869,-7.4869,-7.4869,-7.4869,-7.4869,-7.4869,-7.4869,-7.4869,-7.4869,-7.4869,-7.4869,-7.4869,-7.4869,-7.454,-7.4031,-7.4031,-7.4031,-7.4031,-7.4031,-7.439,-7.4869,-7.4869,-7.4869,-7.4869,-7.4869,-7.4869,-7.4869,-7.4869,-7.4869,-7.4869,-7.4869,-7.4869,-7.4869,-7.4869,-7.4958,-7.5018,-7.5018,-7.5018,-7.5018,-7.5018,-7.4958,-7.4869,-7.4869,-7.4869,-7.4869,-7.4869,-7.4869,-7.4869,-7.4869,-7.4869,-7.4869,-7.4869,-7.4958,-7.5258,-7.5856,-7.5976,-7.6036,-7.6036,-7.6544,-7.6604,-7.6066,-7.6634,-7.6724,-7.6215,-7.6604,-7.6874,-7.6963,-7.7083,-7.7113,-7.7113,-7.7113,-7.7113,-7.7113,-7.7113,-7.7442,-7.7951,-7.7951,-7.828,-7.8789,-7.8789,-7.8789,-7.8789,-7.8789,-7.8789,-7.8789,-7.8789,-7.8789,-7.8699,-8.2619,-8.2844,-8.2844,-8.2844,-8.2844,-8.2844,-8.2844,-8.2844,-8.2559,-8.1991,-8.1931,-8.1931,-8.1931,-8.1931,-8.217,-8.2709,-8.1661,-8.0943,-8.0943,-8.0225,-7.9297,-7.816,-7.846,-7.81,-7.6993,-7.6275,-7.5557,-7.4869,-7.4869,-7.4869,-7.4869,-7.4869,-7.4869,-7.4869,-7.4869,-7.4869,-7.4869,-7.4869,-7.4869,-7.4869,-7.4869,-7.4809,-7.4719,-7.4719,-7.4719,-7.4719,-7.4719,-7.4779,-7.4869,-7.4869,-7.4869,-7.4869,-7.4869,-7.4869,-7.4869,-7.4869,-7.4869,-7.4869,-7.4869,-7.4869,-7.4869,-7.4869,-7.5318,-7.5736,-7.5736,-7.5736,-7.5736,-7.5736,-7.5288,-7.4869,-7.4869,-7.4869,-7.4869,-7.4869,-7.4869,-7.4869,-7.4869,-7.4869,-7.4869,-7.4869,-7.5377,-7.5796,-7.5886,-7.6365,-7.6694,-7.6694,-7.6784,-7.6784,-7.6694,-7.7293,-7.7622,-7.7502,-7.7083,-7.7083,-7.7652,-7.822,-7.8489,-7.8489,-7.8489,-7.8489,-7.8489,-7.8489,-7.8549,-7.8639,-7.8639,-7.8699,-7.8789,-7.8789,-7.8789,-7.8789,-7.8789,-7.8789,-7.8789,-7.8789,-7.8789,-7.8789,-8.2499,-8.2469,-8.235,-8.2784,-8.2844,-8.2844,-8.2844,-8.2844,-8.2649,-8.235,-8.232,-8.232,-8.232,-8.232,-8.2439,-8.2739,-8.1871,-8.1332,-8.1332,-8.0016,-7.8998,-7.837,-7.7951,-7.7113,-7.5796,-7.5497,-7.5198,-7.4869,-7.4869,-7.4869,-7.4869,-7.4869,-7.4869,-7.4869,-7.4869,-7.4869,-7.4869,-7.4869,-7.4869,-7.4869,-7.4869,-7.4869,-7.4869,-7.4869,-7.4869,-7.4869,-7.4869,-7.4869,-7.4869,-7.4869,-7.4869,-7.4869,-7.4869,-7.4869,-7.4869,-7.4869,-7.4869,-7.4958,-7.5318,-7.5437,-7.5497,-7.5826,-7.6155,-7.6395,-7.6395,-7.6395,-7.6395,-7.6395,-7.5886,-7.5437,-7.5437,-7.5138,-7.4869,-7.4869,-7.4869,-7.4869,-7.4869,-7.4869,-7.5018,-7.5377,-7.5707,-7.6185,-7.6874,-7.7203,-7.7352,-7.7352,-7.7682,-7.7741,-7.7382,-7.7981,-7.834,-7.834,-7.8041,-7.8041,-7.834,-7.8639,-7.8789,-7.8789,-7.8789,-7.8789,-7.8789,-7.8789,-7.8789,-7.8789,-7.8789,-7.8789,-7.8789,-7.8789,-7.8789,-7.8789,-7.8789,-7.8789,-7.8789,-7.8789,-7.8789,-7.8789,-8.2439,-8.235,-8.217,-8.2679,-8.2844,-8.2844,-8.2844,-8.2844,-8.2709,-8.2559,-8.2529,-8.2529,-8.2529,-8.2529,-8.2589,-8.2814,-8.202,-8.1542,-8.1542,-7.9806,-7.8729,-7.8579,-7.7143,-7.5976,-7.5138,-7.4958,-7.4869,-7.4869,-7.4869,-7.4869,-7.4869,-7.4869,-7.4869,-7.4869,-7.4869,-7.4869,-7.4869,-7.4869,-7.4869,-7.4869,-7.4869,-7.4869,-7.4869,-7.4869,-7.4869,-7.4869,-7.4869,-7.4869,-7.4869,-7.4869,-7.4869,-7.4869,-7.4869,-7.4988,-7.5108,-7.5108,-7.5228,-7.5437,-7.5976,-7.6125,-7.6245,-7.6694,-7.6933,-7.7053,-7.7053,-7.7053,-7.7053,-7.7053,-7.6544,-7.6066,-7.5946,-7.5467,-7.5048,-7.4899,-7.4869,-7.4929,-7.5078,-7.5108,-7.5377,-7.6036,-7.6245,-7.6724,-7.7711,-7.7951,-7.8041,-7.8041,-7.8519,-7.8579,-7.8071,-7.8519,-7.8789,-7.8789,-7.8789,-7.8789,-7.8789,-7.8789,-7.8789,-7.8789,-7.8789,-7.8789,-7.8789,-7.8789,-7.8789,-7.8789,-7.8789,-7.8789,-7.8789,-7.8789,-7.8789,-7.8789,-7.8789,-7.8789,-7.8789,-7.8789,-7.8789,-7.8789,-8.2619,-8.2709,-8.2784,-8.2814,-8.2844,-8.2844,-8.2844,-8.2844,-8.2529,-8.1931,-8.1841,-8.1841,-8.1841,-8.1841,-8.211,-8.2709,-8.1601,-8.0883,-8.0883,-7.9567,-7.8519,-7.7921,-7.6036,-7.5288,-7.5826,-7.5198,-7.4869,-7.4869,-7.4869,-7.4869,-7.4869,-7.4869,-7.4869,-7.4869,-7.4869,-7.4869,-7.4869,-7.4869,-7.4869,-7.4869,-7.4869,-7.4869,-7.4869,-7.4869,-7.4869,-7.4869,-7.4869,-7.4869,-7.4869,-7.4869,-7.4869,-7.4869,-7.4869,-7.5318,-7.5826,-7.5826,-7.6245,-7.6694,-7.6754,-7.6754,-7.6754,-7.6814,-7.7293,-7.7741,-7.7741,-7.7741,-7.7741,-7.7741,-7.7203,-7.6574,-7.6006,-7.5856,-7.5617,-7.4988,-7.4869,-7.5108,-7.5736,-7.5826,-7.6066,-7.6694,-7.7293,-7.7711,-7.7801,-7.837,-7.8729,-7.8729,-7.8759,-7.8759,-7.8729,-7.8759,-7.8789,-7.8789,-7.8789,-7.8789,-7.8789,-7.8789,-7.8789,-7.8789,-7.8789,-7.8789,-7.8789,-7.8789,-7.8789,-7.8789,-7.8789,-7.8789,-7.8789,-7.8789,-7.8789,-7.8789,-7.8789,-7.8789,-7.8789,-7.8789,-7.8789,-7.8789,-8.2469,-8.2439,-8.229,-8.2754,-8.2844,-8.2619,-8.22,-8.2499,-8.2529,-8.1871,-8.214,-8.238,-8.238,-8.238,-8.2499,-8.2814,-8.229,-8.1841,-8.1452,-8.0554,-7.9178,-7.7293,-7.6485,-7.5826,-7.5288,-7.5018,-7.4869,-7.4869,-7.4869,-7.4869,-7.4869,-7.4869,-7.4869,-7.4869,-7.4869,-7.4869,-7.4869,-7.4869,-7.4869,-7.4869,-7.4869,-7.4869,-7.4869,-7.4869,-7.4869,-7.4869,-7.4869,-7.4869,-7.4869,-7.4869,-7.4869,-7.4958,-7.5377,-7.5707,-7.6066,-7.6844,-7.7263,-7.7532,-7.7921,-7.7741,-7.7532,-7.7951,-7.822,-7.843,-7.843,-7.843,-7.843,-7.843,-7.7891,-7.7233,-7.6604,-7.6485,-7.6275,-7.5617,-7.5826,-7.6185,-7.6425,-7.6485,-7.6724,-7.7352,-7.7652,-7.7981,-7.837,-7.8639,-7.8789,-7.8789,-7.8789,-7.8789,-7.8789,-7.8789,-7.8998,-7.9417,-7.9417,-7.9238,-7.8789,-7.8789,-7.8789,-7.8789,-7.8789,-7.8789,-7.8789,-7.8789,-7.8789,-7.8789,-7.8789,-7.8789,-7.8789,-7.8789,-7.8789,-7.8789,-7.8789,-7.8789,-7.8789,-7.8789,-7.8789,-7.8849,-8.22,-8.226,-8.223,-8.2679,-8.2589,-8.238,-8.211,-8.229,-8.238,-8.211,-8.2469,-8.2844,-8.2844,-8.2844,-8.2844,-8.2844,-8.2589,-8.217,-8.1512,-8.0464,-7.8938,-7.6904,-7.6634,-7.6006,-7.4899,-7.4869,-7.4869,-7.4869,-7.4869,-7.4869,-7.4869,-7.4869,-7.4869,-7.4869,-7.4869,-7.4869,-7.4869,-7.4869,-7.4869,-7.4869,-7.4869,-7.4869,-7.4869,-7.4869,-7.4869,-7.4869,-7.4869,-7.5018,-7.5168,-7.4958,-7.5138,-7.5527,-7.5826,-7.6335,-7.7023,-7.813,-7.8579,-7.8849,-7.9297,-7.9088,-7.8759,-7.8789,-7.8789,-7.8789,-7.8789,-7.8789,-7.8789,-7.8789,-7.843,-7.7921,-7.7263,-7.7143,-7.6933,-7.6305,-7.6544,-7.6904,-7.7113,-7.7143,-7.7382,-7.8041,-7.81,-7.828,-7.8759,-7.8789,-7.8789,-7.8789,-7.8789,-7.8789,-7.8789,-7.8789,-7.9118,-7.9806,-7.9806,-7.9686,-7.9417,-7.9208,-7.8998,-7.8789,-7.8789,-7.8789,-7.8789,-7.8789,-7.8789,-7.8789,-7.8789,-7.8789,-7.8789,-7.8789,-7.8789,-7.8789,-7.8789,-7.8789,-7.8819,-7.9028,-7.9118,-7.9208,-8.1781,-8.232,-8.2769,-8.2844,-8.223,-8.1991,-8.2649,-8.22,-8.202,-8.2754,-8.2844,-8.2844,-8.2844,-8.2844,-8.2844,-8.2844,-8.217,-8.1512,-8.0823,-7.8908,-7.7502,-7.6844,-7.6245,-7.5587,-7.4899,-7.4899,-7.4899,-7.4899,-7.4899,-7.4869,-7.4869,-7.4869,-7.4869,-7.4869,-7.4869,-7.4869,-7.4869,-7.4869,-7.4869,-7.4869,-7.4869,-7.4869,-7.4899,-7.4899,-7.4899,-7.4899,-7.4899,-7.5318,-7.5796,-7.5138,-7.5736,-7.6724,-7.6125,-7.7233,-7.8938,-7.9627,-8.0285,-8.0794,-8.0794,-8.0794,-8.0494,-7.9148,-7.8789,-7.8789,-7.8789,-7.8789,-7.8789,-7.8789,-7.8789,-7.8579,-7.7921,-7.7801,-7.7592,-7.6933,-7.6844,-7.7083,-7.7711,-7.7831,-7.8041,-7.8699,-7.8789,-7.8789,-7.8789,-7.8789,-7.8789,-7.8789,-7.8789,-7.8789,-7.8789,-7.8789,-7.9118,-7.9806,-7.9836,-8.0165,-8.0794,-8.0165,-7.9477,-7.8819,-7.8819,-7.8819,-7.8819,-7.8819,-7.8819,-7.8819,-7.8789,-7.8789,-7.8789,-7.8789,-7.8789,-7.8789,-7.8789,-7.8789,-7.8878,-7.9567,-7.9806,-7.9926,-8.1601,-8.1931,-8.223,-8.2754,-8.2589,-8.238,-8.211,-8.229,-8.238,-8.211,-8.2469,-8.2844,-8.2844,-8.2844,-8.2844,-8.2844,-8.217,-8.1093,-7.9477,-7.84,-7.7322,-7.6245,-7.6006,-7.5826,-7.5617,-7.5587,-7.5587,-7.5587,-7.5587,-7.5347,-7.4869,-7.4869,-7.4869,-7.4869,-7.4869,-7.4869,-7.4869,-7.4869,-7.4869,-7.4869,-7.4869,-7.5168,-7.5587,-7.5587,-7.5856,-7.6245,-7.6245,-7.6365,-7.6514,-7.6305,-7.6514,-7.6874,-7.7143,-7.828,-7.9567,-7.9746,-8.0285,-8.0794,-8.0794,-8.0794,-8.0704,-8.0315,-7.9866,-7.9507,-7.9507,-7.9507,-7.9387,-7.8878,-7.9178,-7.9148,-7.8011,-7.819,-7.828,-7.7622,-7.7921,-7.828,-7.846,-7.8489,-7.8579,-7.8759,-7.8789,-7.8789,-7.8789,-7.9238,-7.9327,-7.8819,-7.8789,-7.8998,-7.9477,-7.9507,-8.0016,-8.1153,-8.1183,-8.1302,-8.1482,-8.0823,-8.0405,-8.0195,-8.0195,-8.0195,-8.0195,-8.0195,-8.0195,-8.0165,-7.9716,-7.9507,-7.9477,-7.8998,-7.8789,-7.8789,-7.8789,-7.9088,-7.9537,-7.9746,-8.0105,-8.0614,-8.0883,-8.1422,-8.1901,-8.229,-8.217,-8.202,-8.214,-8.229,-8.232,-8.217,-8.2529,-8.2649,-8.2409,-8.238,-8.226,-8.202,-8.1392,-8.0494,-7.9267,-7.8071,-7.7203,-7.6664,-7.6185,-7.5916,-7.5916,-7.6155,-7.6275,-7.6275,-7.6036,-7.5826,-7.5647,-7.5108,-7.5018,-7.5258,-7.4988,-7.4869,-7.4869,-7.4869,-7.4869,-7.4869,-7.4869,-7.5288,-7.5916,-7.5916,-7.6275,-7.6814,-7.6814,-7.6993,-7.7173,-7.6904,-7.6993,-7.7442,-7.8609,-7.9537,-8.0255,-8.0524,-8.1063,-8.1572,-8.1572,-8.1572,-8.1572,-8.1572,-8.0883,-8.0135,-7.9866,-7.9806,-7.9627,-7.8938,-7.9118,-7.9178,-7.834,-7.8519,-7.8669,-7.825,-7.8519,-7.8878,-7.9148,-7.9208,-7.9297,-7.9567,-7.9597,-7.9597,-7.9597,-7.9956,-7.9926,-7.9238,-7.9447,-7.9656,-7.9806,-8.0075,-8.0704,-8.1751,-8.1781,-8.1901,-8.217,-8.1781,-8.1302,-8.0794,-8.0794,-8.0794,-8.0794,-8.0794,-8.0794,-8.0764,-8.0375,-8.0225,-8.0165,-7.9477,-7.9208,-7.9208,-7.9208,-7.9447,-7.9866,-8.0405,-8.0853,-8.1272,-7.9926,-8.0794,-8.1631,-8.1751,-8.1302,-8.1302,-8.2499,-8.217,-8.1991,-8.2529,-8.2649,-8.2439,-8.1841,-8.1781,-8.1542,-8.0943,-8.0225,-7.9776,-7.9656,-7.7921,-7.7173,-7.7711,-7.6664,-7.6066,-7.6066,-7.6634,-7.6904,-7.6904,-7.6365,-7.6335,-7.6814,-7.5617,-7.5377,-7.5946,-7.5288,-7.4988,-7.5048,-7.4988,-7.4988,-7.5048,-7.5048,-7.5467,-7.6066,-7.6066,-7.6455,-7.7023,-7.7083,-7.7442,-7.7831,-7.7263,-7.7502,-7.831,-8.0195,-8.0823,-8.1003,-8.1601,-8.223,-8.2844,-8.2844,-8.2844,-8.2844,-8.2844,-8.1871,-8.0794,-8.0135,-7.9986,-7.9776,-7.9028,-7.8938,-7.8938,-7.8819,-7.8849,-7.8849,-7.8789,-7.8849,-7.9088,-7.9716,-7.9806,-8.0075,-8.0734,-8.0794,-8.0794,-8.0794,-8.0794,-8.0584,-8.0045,-8.0494,-8.0554,-8.0016,-8.0554,-8.1183,-8.1841,-8.1871,-8.217,-8.2769,-8.2844,-8.217,-8.0973,-8.0973,-8.0973,-8.0973,-8.0973,-8.0973,-8.0973,-8.0913,-8.0883,-8.0823,-8.0165,-7.9896,-7.9896,-7.9896,-7.9956,-8.0135,-8.1332,-8.1811,-8.1961,-7.9746,-8.0045,-8.0554,-8.1601,-8.1661,-8.1661,-8.1961,-8.1871,-8.1631,-8.1272,-8.1661,-8.1931,-8.1811,-8.1781,-8.1721,-8.1572,-8.0494,-7.9357,-7.831,-7.7831,-7.7442,-7.7053,-7.7263,-7.7382,-7.7382,-7.7532,-7.7592,-7.7592,-7.7472,-7.7203,-7.6814,-7.6544,-7.6485,-7.6604,-7.5976,-7.5946,-7.6365,-7.5886,-7.5976,-7.6395,-7.6395,-7.6814,-7.7382,-7.7382,-7.7801,-7.843,-7.8968,-7.8908,-7.8639,-7.9028,-7.9267,-7.9537,-8.0494,-8.1153,-8.1601,-8.1751,-8.223,-8.2844,-8.2844,-8.2844,-8.2844,-8.2844,-8.2559,-8.217,-8.1512,-8.1362,-8.1033,-7.9836,-8.0016,-8.0045,-7.8968,-7.9238,-7.9417,-7.8878,-7.9238,-7.9656,-7.9806,-7.9806,-8.0075,-8.0734,-8.0794,-8.0794,-8.0794,-8.0794,-8.0943,-8.1332,-8.1003,-8.0973,-8.1332,-8.1482,-8.1871,-8.2529,-8.2559,-8.2619,-8.2844,-8.2844,-8.2619,-8.235,-8.235,-8.235,-8.235,-8.235,-8.235,-8.232,-8.1781,-8.1572,-8.1512,-8.0853,-8.0584,-8.0584,-8.0584,-8.0883,-8.1392,-8.1661,-8.211,-8.2559,-7.9327,-7.9836,-8.0494,-8.1183,-8.1572,-8.1781,-8.1781,-8.1781,-8.1542,-8.0883,-8.1093,-8.1302,-8.1302,-8.1033,-8.0704,-8.0375,-7.9716,-7.9028,-7.831,-7.7981,-7.7801,-7.7771,-7.7801,-7.7951,-7.828,-7.828,-7.828,-7.828,-7.7981,-7.7801,-7.7741,-7.7113,-7.6993,-7.7263,-7.6634,-7.6514,-7.6814,-7.6485,-7.6544,-7.6814,-7.6814,-7.7233,-7.7801,-7.7801,-7.843,-7.9327,-7.9686,-7.9776,-7.9866,-8.0524,-8.0554,-8.0464,-8.1422,-8.1751,-8.1841,-8.217,-8.2499,-8.2844,-8.2844,-8.2844,-8.2844,-8.2844,-8.2844,-8.2589,-8.1931,-8.1781,-8.1512,-8.0494,-8.0554,-8.0584,-7.9866,-8.0045,-8.0165,-7.9806,-8.0315,-8.0764,-8.0764,-8.1033,-8.1362,-8.1691,-8.1721,-8.1721,-8.1721,-8.1721,-8.1751,-8.1781,-8.1751,-8.1751,-8.1781,-8.208,-8.2409,-8.2814,-8.2844,-8.2844,-8.2844,-8.2844,-8.2844,-8.2844,-8.2844,-8.2844,-8.2844,-8.2844,-8.2844,-8.2814,-8.2409,-8.226,-8.22,-8.1542,-8.1272,-8.1272,-8.1272,-8.1482,-8.1811,-8.214,-8.2469,-8.2844,-7.8908,-7.9776,-8.0644,-8.0644,-8.1183,-8.1572,-8.1452,-8.1542,-8.1392,-8.0734,-8.0823,-8.0973,-8.0973,-8.0375,-7.9656,-7.8849,-7.8789,-7.8789,-7.8789,-7.84,-7.84,-7.8938,-7.8549,-7.8579,-7.9118,-7.9028,-7.8908,-7.8789,-7.825,-7.825,-7.8759,-7.7682,-7.7442,-7.7951,-7.7293,-7.7053,-7.7143,-7.7053,-7.7053,-7.7173,-7.7173,-7.7502,-7.7981,-7.7981,-7.8729,-7.9836,-7.9956,-8.0405,-8.1063,-8.1601,-8.1422,-8.1183,-8.238,-8.238,-8.205,-8.2589,-8.2844,-8.2844,-8.2844,-8.2844,-8.2844,-8.2844,-8.2844,-8.2619,-8.208,-8.1961,-8.1751,-8.1093,-8.0973,-8.0943,-8.0823,-8.0883,-8.0973,-8.0973,-8.1512,-8.1991,-8.211,-8.2469,-8.2798,-8.2918,-8.2828,-8.2844,-8.2844,-8.2844,-8.2529,-8.1991,-8.2469,-8.2529,-8.1991,-8.2469,-8.2844,-8.2844,-8.2844,-8.2844,-8.2844,-8.2844,-8.2828,-8.2918,-8.2918,-8.2858,-8.2844,-8.2844,-8.2844,-8.2844,-8.2844,-8.2844,-8.2709,-8.217,-8.1961,-8.1961,-8.1961,-8.1961,-8.202,-8.2559,-8.2844,-8.2769,-7.8819,-7.9417,-7.9956,-7.9956,-8.0494,-8.0734,-8.0165,-8.0554,-8.0704,-8.0045,-8.0943,-8.1631,-8.1631,-8.1063,-8.0165,-7.8908,-7.8789,-7.8789,-7.8789,-7.9267,-7.9597,-7.9686,-8.0135,-8.0434,-8.0524,-7.9986,-7.9387,-7.8789,-7.8699,-7.8699,-7.8789,-7.8609,-7.8579,-7.8639,-7.7981,-7.7981,-7.8489,-7.7921,-7.8011,-7.8519,-7.8519,-7.8579,-7.8639,-7.8639,-7.9148,-7.9896,-8.0464,-8.1093,-8.1661,-8.1751,-8.1721,-8.1781,-8.2529,-8.2784,-8.2649,-8.2739,-8.2844,-8.2844,-8.2844,-8.2844,-8.2844,-8.2844,-8.2844,-8.2814,-8.2649,-8.2619,-8.2439,-8.1781,-8.1631,-8.1482,-8.0913,-8.1272,-8.1631,-8.1631,-8.22,-8.2828,-8.3397,-8.3068,-8.2978,-8.3547,-8.3098,-8.2844,-8.2844,-8.2844,-8.2709,-8.2649,-8.2709,-8.2709,-8.2649,-8.2709,-8.2844,-8.2844,-8.2844,-8.2844,-8.2844,-8.2844,-8.3038,-8.3606,-8.3606,-8.3307,-8.2844,-8.2844,-8.2844,-8.2844,-8.2844,-8.2844,-8.2814,-8.2649,-8.2619,-8.2619,-8.2619,-8.2619,-8.2649,-8.2814,-8.2844,-8.2828,-7.8789,-7.9357,-7.9806,-7.9806,-8.0345,-8.0584,-7.9926,-8.0375,-8.0434,-7.9387,-8.0075,-8.0674,-8.0674,-8.0764,-8.0554,-7.9956,-7.9567,-7.9537,-7.9896,-7.9866,-7.9986,-8.0345,-8.0644,-8.0794,-8.0794,-8.0524,-8.0225,-7.9926,-7.9148,-7.8789,-7.8789,-7.8789,-7.8789,-7.8789,-7.8489,-7.8519,-7.8789,-7.8878,-7.8878,-7.8819,-7.9208,-7.9357,-7.9357,-7.9357,-8.0016,-8.1003,-8.1661,-8.208,-8.232,-8.232,-8.232,-8.2439,-8.3098,-8.3068,-8.2918,-8.3636,-8.3606,-8.3397,-8.3756,-8.4115,-8.4414,-8.4414,-8.4414,-8.4414,-8.4414,-8.4115,-8.3666,-8.3008,-8.2858,-8.2769,-8.2499,-8.2679,-8.2858,-8.2858,-8.3427,-8.3816,-8.3756,-8.3786,-8.3696,-8.3247,-8.2948,-8.2844,-8.2844,-8.2844,-8.2844,-8.2844,-8.2844,-8.2844,-8.2844,-8.2844,-8.2844,-8.2844,-8.2844,-8.2948,-8.3307,-8.3307,-8.3457,-8.3726,-8.4115,-8.4145,-8.3846,-8.3846,-8.3846,-8.3816,-8.3457,-8.3307,-8.3277,-8.2918,-8.2978,-8.3307,-8.3307,-8.3307,-8.3307,-8.3307,-8.3307,-8.3397]},{"header":{"parameterUnit":"m.s-1","parameterCategory":1,"la1":30.6,"la2":28.766,"lo1":-90.7593,"lo2":-88.6598,"dy":0.0162,"dx":0.0183,"nx":116,"ny":114,"refTime":"2024-04-08T06:00:00:Z","depth":0,"parameterNumber":3,"parameterNumberName":"V-component_of_WINDS"},"data":[0.0,0.0,0.0,0.0,0.0,0.0,0.0,0.0,0.0,0.0,0.0,0.0,0.0,0.0,0.0,0.0,0.0,0.0,0.0,0.0,0.0,0.0,0.0,0.0,0.0,0.0,0.0,0.0,0.0,0.0,0.0,0.0,0.0,0.0,0.0,0.0,0.0,0.0,0.0,0.0,0.0,0.0,0.0,0.0,0.0,0.0,0.0,0.0,0.0,0.0,0.0,0.0,0.0,0.0,0.0,0.0,0.0,0.0,0.0,0.0,0.0,0.0,0.0,0.0,0.0,0.0,0.0,0.0,0.0,0.0,0.0,0.0,0.0,0.0,0.0,0.0,0.0,0.0,0.0,0.0,0.0,0.0,0.0,0.0,0.0,0.0,0.0,0.0,0.0,0.0,0.0,0.0,0.0,0.0,0.0,0.0,0.0,0.0,0.0,0.0,0.0,0.0,0.0,0.0,0.0,0.0,0.0,0.0,0.0,0.0,0.0,0.0,0.0,0.0,0.0,0.0,0.0,0.0,0.0,0.0,0.0,0.0,0.0,0.0,0.0,0.0,0.0,0.0,0.0,0.0,0.0,0.0,0.0,0.0,0.0,0.0,0.0,0.0,0.0,0.0,0.0,0.0,0.0,0.0,0.0,0.0,0.0,0.0,0.0,0.0,0.0,0.0,0.0,0.0,0.0,0.0,0.0,0.0,0.0,0.0,0.0,0.0,0.0,0.0,0.0,0.0,0.0,0.0,0.0,0.0,0.0,0.0,0.0,0.0,0.0,0.0,0.0,0.0,0.0,0.0,0.0,0.0,0.0,0.0,0.0,0.0,0.0,0.0,0.0,0.0,0.0,0.0,0.0,0.0,0.0,0.0,0.0,0.0,0.0,0.0,0.0,0.0,0.0,0.0,0.0,0.0,0.0,0.0,0.0,0.0,0.0,0.0,0.0,0.0,0.0,0.0,0.0,0.0,0.0,0.0,0.0,0.0,0.0,0.0,0.0,0.0,0.0,0.0,0.0,0.0,0.0,0.0,0.0,0.0,0.0,0.0,0.0,0.0,0.0,0.0,0.0,0.0,0.0,0.0,0.0,0.0,0.0,0.0,0.0,0.0,0.0,0.0,0.0,0.0,0.0,0.0,0.0,0.0,0.0,0.0,0.0,0.0,0.0,0.0,0.0,0.0,0.0,0.0,0.0,0.0,0.0,0.0,0.0,0.0,0.0,0.0,0.0,0.0,0.0,0.0,0.0,0.0,0.0,0.0,0.0,0.0,0.0,0.0,0.0,0.0,0.0,0.0,0.0,0.0,0.0,0.0,0.0,0.0,0.0,0.0,0.0,0.0,0.0,0.0,0.0,0.0,0.0,0.0,0.0,0.0,0.0,0.0,0.0,0.0,0.0,0.0,0.0,0.0,0.0,0.0,0.0,0.0,0.0,0.0,0.0,0.0,0.0,0.0,0.0,0.0,0.0,0.0,0.0,0.0,0.0,0.0,0.0,0.0,0.0,0.0,0.0,0.0,0.0,0.0,0.0,0.0,0.0,0.0,0.0,0.0,0.0,0.0,0.0,0.0,0.0,0.0,0.0,0.0,0.0,0.0,0.0,0.0,0.0,0.0,0.0,0.0,0.0,0.0,0.0,0.0,0.0,0.0,0.0,0.0,0.0,0.0,0.0,0.0,0.0,0.0,0.0,0.0,0.0,0.0,0.0,0.0,0.0,0.0,0.0,0.0,0.0,0.0,0.0,0.0,0.0,0.0,0.0,0.0,0.0,0.0,0.0,0.0,0.0,0.0,0.0,0.0,0.0,0.0,0.0,0.0,0.0,0.0,0.0,0.0,0.0,0.0,0.0,0.0,0.0,0.0,0.0,0.0,0.0,0.0,0.0,0.0,0.0,0.0,0.0,0.0,0.0,0.0,0.0,0.0,0.0,0.0,0.0,0.0,0.0,0.0,0.0,0.0,0.0,0.0,0.0,0.0,0.0,0.0,0.0,0.0,0.0,0.0,0.0,0.0,0.0,0.0,0.0,0.0,0.0,0.0,0.0,0.0,0.0,0.0,0.0,0.0,0.0,0.0,0.0,0.0,0.0,0.0,0.0,0.0,0.0,0.0,0.0,0.0,0.0,0.0,0.0,0.0,0.0,0.0,0.0,0.0,0.0,0.0,0.0,0.0,0.0,0.0,0.0,0.0,0.0,0.0,0.0,0.0,0.0,0.0,0.0,0.0,0.0,0.0,0.0,0.0,0.0,0.0,0.0,0.0,0.0,0.0,0.0,0.0,0.0,0.0,0.0,0.0,0.0,0.0,0.0,0.0,0.0,0.0,0.0,0.0,0.0,0.0,0.0,0.0,0.0,0.0,0.0,0.0,0.0,0.0,0.0,0.0,0.0,0.0,0.0,0.0,0.0,0.0,0.0,0.0,0.0,0.0,0.0,0.0,0.0,0.0,0.0,0.0,0.0,0.0,0.0,0.0,0.0,0.0,0.0,0.0,0.0,0.0,0.0,0.0,0.0,0.0,0.0,0.0,0.0,0.0,0.0,0.0,0.0,0.0,0.0,0.0,0.0,0.0,0.0,0.0,0.0,0.0,0.0,0.0,0.0,0.0,0.0,0.0,0.0,0.0,0.0,0.0,0.0,0.0,0.0,0.0,0.0,0.0,0.0,0.0,0.0,0.0,0.0,0.0,0.0,0.0,0.0,0.0,0.0,0.0,0.0,0.0,0.0,0.0,0.0,0.0,0.0,0.0,0.0,0.0,0.0,0.0,0.0,0.0,0.0,0.0,0.0,0.0,0.0,0.0,0.0,0.0,0.0,0.0,0.0,0.0,0.0,0.0,0.0,0.0,0.0,0.0,0.0,0.0,0.0,0.0,0.0,0.0,0.0,0.0,0.0,0.0,0.0,0.0,0.0,0.0,0.0,0.0,0.0,0.0,0.0,0.0,0.0,0.0,0.0,0.0,0.0,0.0,0.0,0.0,0.0,0.0,0.0,0.0,0.0,0.0,0.0,0.0,0.0,0.0,0.0,0.0,0.0,0.0,0.0,0.0,0.0,0.0,0.0,0.0,0.0,0.0,0.0,0.0,0.0,0.0,0.0,0.0,0.0,0.0,0.0,0.0,0.0,0.0,0.0,0.0,0.0,0.0,0.0,0.0,0.0,0.0,0.0,0.0,0.0,0.0,0.0,0.0,0.0,0.0,0.0,0.0,0.0,0.0,0.0,0.0,0.0,0.0,0.0,0.0,0.0,0.0,0.0,0.0,0.0,0.0,0.0,0.0,0.0,0.0,0.0,0.0,0.0,0.0,0.0,0.0,0.0,0.0,0.0,0.0,0.0,0.0,0.0,0.0,0.0,0.0,0.0,0.0,0.0,0.0,0.0,0.0,0.0,0.0,0.0,0.0,0.0,0.0,0.0,0.0,0.0,0.0,0.0,0.0,0.0,0.0,0.0,0.0,0.0,0.0,0.0,0.0,0.0,0.0,0.0,0.0,0.0,0.0,0.0,0.0,0.0,0.0,0.0,0.0,0.0,0.0,0.0,0.0,0.0,0.0,0.0,0.0,0.0,0.0,0.0,0.0,0.0,0.0,0.0,0.0,0.0,0.0,0.0,0.0,0.0,0.0,0.0,0.0,0.0,0.0,0.0,0.0,0.0,0.0,0.0,0.0,0.0,0.0,0.0,0.0,0.0,0.0,0.0,0.0,0.0,0.0,0.0,0.0,0.0,0.0,0.0,0.0,0.0,0.0,0.0,0.0,0.0,0.0,0.0,0.0,0.0,0.0,0.0,0.0,0.0,0.0,0.0,0.0,0.0,0.0,0.0,0.0,0.0,0.0,0.0,0.0,0.0,0.0,0.0,0.0,0.0,0.0,0.0,0.0,0.0,0.0,0.0,0.0,0.0,0.0,0.0,0.0,0.0,0.0,0.0,0.0,0.0,0.0,0.0,0.0,0.0,0.0,0.0,0.0,0.0,0.0,0.0,0.0,0.0,0.0,0.0,0.0,0.0,0.0,0.0,0.0,0.0,0.0,0.0,0.0,0.0,0.0,0.0,0.0,0.0,0.0,0.0,0.0,0.0,0.0,0.0,0.0,0.0,0.0,0.0,0.0,0.0,0.0,0.0,0.0,0.0,0.0,0.0,0.0,0.0,0.0,0.0,0.0,0.0,0.0,0.0,0.0,0.0,0.0,0.0,0.0,0.0,0.0,0.0,0.0,0.0,0.0,0.0,0.0,0.0,0.0,0.0,0.0,0.0,0.0,0.0,0.0,0.0,0.0,0.0,0.0,0.0,0.0,0.0,0.0,0.0,0.0,0.0,0.0,0.0,0.0,0.0,0.0,0.0,0.0,0.0,0.0,0.0,0.0,0.0,0.0,0.0,0.0,0.0,0.0,0.0,0.0,0.0,0.0,0.0,0.0,0.0,0.0,0.0,0.0,0.0,0.0,0.0,0.0,0.0,0.0,0.0,0.0,0.0,0.0,0.0,0.0,0.0,0.0,0.0,0.0,0.0,0.0,0.0,0.0,0.0,0.0,0.0,0.0,0.0,0.0,0.0,0.0,0.0,0.0,0.0,0.0,0.0,0.0,0.0,0.0,0.0,0.0,0.0,0.0,0.0,0.0,0.0,0.0,0.0,0.0,0.0,0.0,0.0,0.0,0.0,0.0,0.0,0.0,0.0,0.0,0.0,0.0,0.0,0.0,0.0,0.0,0.0,0.0,0.0,0.0,0.0,0.0,0.0,0.0,0.0,0.0,0.0,0.0,0.0,0.0,0.0,0.0,0.0,0.0,0.0,0.0,0.0,0.0,0.0,0.0,0.0,0.0,0.0,0.0,0.0,0.0,0.0,0.0,0.0,0.0,0.0,0.0,0.0,0.0,0.0,0.0,0.0,0.0,0.0,0.0,0.0,0.0,0.0,0.0,0.0,0.0,0.0,0.0,0.0,0.0,0.0,0.0,0.0,0.0,0.0,0.0,0.0,0.0,0.0,0.0,0.0,0.0,0.0,0.0,0.0,0.0,0.0,0.0,0.0,0.0,0.0,0.0,0.0,0.0,0.0,0.0,0.0,0.0,0.0,0.0,0.0,0.0,0.0,0.0,0.0,0.0,0.0,0.0,0.0,0.0,0.0,0.0,0.0,0.0,0.0,0.0,0.0,0.0,0.0,0.0,0.0,0.0,0.0,0.0,0.0,0.0,0.0,0.0,0.0,0.0,0.0,0.0,0.0,0.0,0.0,0.0,0.0,0.0,0.0,0.0,0.0,0.0,0.0,0.0,0.0,0.0,0.0,0.0,0.0,0.0,0.0,0.0,0.0,0.0,0.0,0.0,0.0,0.0,0.0,0.0,0.0,0.0,0.0,0.0,0.0,0.0,0.0,0.0,0.0,0.0,0.0,0.0,0.0,0.0,0.0,0.0,0.0,0.0,0.0,0.0,0.0,0.0,0.0,0.0,0.0,0.0,0.0,0.0,0.0,0.0,0.0,0.0,0.0,0.0,0.0,0.0,0.0,0.0,0.0,0.0,0.0,0.0,0.0,0.0,0.0,0.0,0.0,0.0,0.0,0.0,0.0,0.0,0.0,0.0,0.0,0.0,0.0,0.0,0.0,0.0,0.0,0.0,0.0,0.0,0.0,0.0,0.0,0.0,0.0,0.0,0.0,0.0,0.0,0.0,0.0,0.0,0.0,0.0,0.0,0.0,0.0,0.0,0.0,0.0,0.0,0.0,0.0,0.0,0.0,0.0,0.0,0.0,0.0,0.0,0.0,0.0,0.0,0.0,0.0,0.0,0.0,0.0,0.0,0.0,0.0,0.0,0.0,0.0,0.0,0.0,0.0,0.0,0.0,0.0,0.0,0.0,0.0,0.0,0.0,0.0,0.0,0.0,0.0,0.0,0.0,0.0,0.0,0.0,0.0,0.0,0.0,0.0,0.0,0.0,0.0,0.0,0.0,0.0,0.0,0.0,0.0,0.0,0.0,0.0,0.0,0.0,0.0,0.0,0.0,0.0,0.0,0.0,0.0,0.0,0.0,0.0,0.0,0.0,0.0,0.0,0.0,0.0,0.0,0.0,0.0,0.0,0.0,0.0,0.0,0.0,0.0,0.0,5.3531,5.3192,0.0,0.0,0.0,0.0,0.0,0.0,0.0,0.0,0.0,0.0,0.0,0.0,0.0,0.0,0.0,0.0,0.0,0.0,0.0,0.0,0.0,0.0,0.0,5.9568,6.0119,6.1106,6.1193,6.1193,6.1193,6.1193,0.0,0.0,0.0,0.0,0.0,0.0,6.1019,6.0671,6.1019,6.1399,6.187,6.187,6.1604,6.1193,0.0,0.0,0.0,0.0,0.0,0.0,0.0,0.0,0.0,0.0,0.0,0.0,0.0,0.0,0.0,0.0,0.0,0.0,0.0,0.0,0.0,0.0,0.0,0.0,0.0,0.0,0.0,0.0,0.0,0.0,0.0,0.0,0.0,0.0,0.0,0.0,0.0,0.0,0.0,0.0,0.0,0.0,0.0,0.0,0.0,0.0,0.0,0.0,0.0,0.0,0.0,0.0,0.0,0.0,0.0,0.0,0.0,0.0,0.0,0.0,0.0,0.0,0.0,0.0,0.0,0.0,0.0,0.0,0.0,0.0,5.6301,5.5125,0.0,0.0,0.0,0.0,0.0,0.0,0.0,0.0,0.0,0.0,0.0,0.0,0.0,0.0,0.0,0.0,0.0,0.0,0.0,0.0,0.0,5.861,5.9364,5.9887,6.0496,6.128,6.1251,6.1251,6.1338,6.1251,6.1193,6.1193,6.1193,6.1193,6.1193,6.1193,6.1193,6.1193,6.1542,6.2186,6.3158,6.3453,6.3275,6.2593,6.172,0.0,0.0,0.0,0.0,0.0,0.0,0.0,0.0,0.0,0.0,0.0,0.0,0.0,0.0,0.0,0.0,0.0,0.0,0.0,0.0,0.0,0.0,0.0,0.0,0.0,0.0,0.0,0.0,0.0,0.0,0.0,0.0,0.0,0.0,0.0,0.0,0.0,0.0,0.0,0.0,0.0,0.0,0.0,0.0,0.0,0.0,0.0,0.0,0.0,0.0,0.0,0.0,0.0,0.0,0.0,0.0,0.0,0.0,0.0,0.0,0.0,0.0,0.0,6.0614,6.1424,6.2287,6.2365,6.2469,6.2443,6.0143,5.8209,5.6693,5.6981,0.0,0.0,0.0,0.0,0.0,0.0,0.0,0.0,0.0,0.0,0.0,0.0,0.0,0.0,0.0,0.0,0.0,0.0,0.0,5.8755,5.9945,6.0148,6.0671,6.1861,6.1483,6.1425,6.1948,6.1483,6.1193,6.1193,6.1193,6.1193,6.1193,6.1193,6.1193,6.1193,6.2848,6.427,6.5525,6.6925,6.7845,6.8137,6.3877,6.2761,6.3895,0.0,0.0,0.0,0.0,0.0,0.0,0.0,0.0,0.0,0.0,0.0,0.0,0.0,0.0,0.0,0.0,0.0,0.0,0.0,0.0,0.0,0.0,0.0,0.0,0.0,0.0,0.0,0.0,0.0,0.0,0.0,0.0,0.0,0.0,0.0,0.0,0.0,0.0,0.0,0.0,0.0,5.3675,5.3934,0.0,0.0,0.0,0.0,0.0,0.0,0.0,0.0,0.0,0.0,0.0,0.0,0.0,6.0569,5.9882,6.2282,6.2798,6.1659,6.3227,6.3776,6.3463,6.3959,6.4456,6.4953,6.5083,0.0,5.9568,5.8653,0.0,0.0,0.0,0.0,0.0,0.0,0.0,0.0,0.0,0.0,0.0,0.0,0.0,0.0,0.0,0.0,0.0,0.0,0.0,0.0,0.0,6.1164,6.189,6.2064,6.3702,6.3998,6.2209,6.3123,6.2919,6.1251,6.1193,6.1193,6.1193,6.1193,6.1837,6.3097,6.5211,6.7181,6.906,7.0288,7.1158,7.1508,6.9203,6.7327,6.5882,6.4828,0.0,0.0,0.0,0.0,0.0,0.0,0.0,0.0,0.0,0.0,0.0,0.0,0.0,0.0,0.0,0.0,0.0,0.0,0.0,0.0,0.0,0.0,0.0,0.0,0.0,0.0,0.0,0.0,0.0,0.0,0.0,0.0,0.0,0.0,0.0,0.0,0.0,0.0,0.0,5.5012,5.6219,5.4849,5.608,5.6401,0.0,0.0,0.0,0.0,0.0,0.0,0.0,0.0,0.0,6.2255,6.4473,6.5314,6.4605,6.6141,6.685,6.6859,6.6898,6.7174,6.7566,6.7828,6.8063,6.8324,6.8586,6.7148,6.4404,6.1947,5.9673,5.766,0.0,0.0,0.0,0.0,5.7294,5.8026,0.0,0.0,0.0,0.0,0.0,0.0,0.0,0.0,0.0,0.0,0.0,0.0,6.0816,6.2499,6.3574,6.3574,6.5781,6.6078,6.352,6.4268,6.3833,6.1633,6.134,6.1253,6.1433,6.1899,6.322,6.5195,6.7765,7.0262,7.2616,7.3901,7.4828,7.5368,7.506,7.2559,6.853,6.7178,6.5969,6.4844,0.0,0.0,0.0,0.0,0.0,0.0,0.0,0.0,0.0,0.0,0.0,0.0,0.0,0.0,0.0,0.0,0.0,0.0,0.0,0.0,0.0,0.0,0.0,0.0,0.0,0.0,0.0,0.0,0.0,0.0,0.0,0.0,0.0,0.0,0.0,0.0,0.0,5.7607,5.8858,5.5465,5.8944,5.9968,0.0,0.0,0.0,0.0,0.0,0.0,6.4431,6.5742,6.658,6.7046,6.9298,7.0272,6.9796,7.0351,7.0943,7.1744,7.0444,7.0468,7.1461,7.1461,7.1382,7.1252,7.1252,7.0259,6.8377,6.49,6.1947,5.949,5.8183,5.7686,5.7739,5.834,5.9176,6.0195,0.0,0.0,0.0,0.0,0.0,0.0,0.0,0.0,0.0,0.0,0.0,6.0235,6.2674,6.4096,6.5606,6.7434,6.6919,6.6481,6.6687,6.4206,6.2696,6.2579,6.1693,6.1493,6.2057,6.3944,6.5565,6.6892,7.0291,7.3205,7.5673,7.811,7.9795,8.0838,8.0556,7.7718,7.2841,6.9385,6.8256,6.8465,6.5203,0.0,0.0,0.0,0.0,0.0,0.0,0.0,0.0,0.0,0.0,0.0,0.0,0.0,0.0,0.0,0.0,0.0,0.0,0.0,0.0,0.0,0.0,0.0,0.0,0.0,0.0,0.0,0.0,0.0,0.0,0.0,0.0,0.0,0.0,0.0,0.0,0.0,0.0,5.5771,6.2398,0.0,0.0,0.0,0.0,6.2765,6.5165,6.7197,6.8443,6.9688,7.086,7.201,7.4114,7.5139,7.4782,7.5086,7.5096,7.4733,7.352,7.3238,7.3839,7.3839,7.3526,7.2977,7.2977,7.201,7.018,6.6704,6.4221,6.2443,6.0718,6.0039,6.0117,6.0718,6.1319,6.1999,0.0,0.0,0.0,0.0,0.0,5.3936,5.5213,5.5765,5.6839,5.9016,6.0351,6.2064,6.4648,6.7436,6.9632,7.0802,7.21,7.1894,6.9845,6.7454,6.5529,6.4293,6.228,6.1895,6.3301,6.532,6.7604,7.0172,7.3032,7.5791,7.8457,8.0332,8.1803,8.2809,8.2723,8.1228,7.8525,7.427,7.1098,6.8824,6.6759,6.4874,0.0,0.0,0.0,0.0,0.0,0.0,0.0,0.0,0.0,0.0,0.0,0.0,0.0,0.0,0.0,0.0,0.0,0.0,0.0,0.0,0.0,0.0,0.0,0.0,0.0,0.0,0.0,0.0,0.0,0.0,0.0,0.0,0.0,0.0,0.0,0.0,0.0,6.2732,6.7312,0.0,6.5656,6.7199,6.8536,6.8738,7.1148,7.3462,7.5138,7.649,7.7233,7.7337,7.9601,8.0441,7.9609,7.976,7.9104,7.7788,7.619,7.5003,7.3996,7.3604,7.3526,7.3656,7.2898,7.2245,7.1513,6.9135,6.6704,6.4299,6.2574,6.1894,6.1921,6.213,6.3045,6.4221,0.0,0.0,0.0,0.0,0.0,5.3704,5.5184,5.5794,5.6839,5.9016,6.143,6.4081,6.708,7.076,7.3491,7.4867,7.5841,7.5053,7.2041,6.9103,6.6697,6.4953,6.3352,6.3078,6.4322,6.7157,6.9874,7.2344,7.5419,7.7987,8.0195,8.2001,8.3252,8.4085,8.4534,8.4115,8.2888,7.9357,7.5198,7.0799,6.8555,6.7119,6.5922,0.0,0.0,0.0,0.0,0.0,0.0,0.0,0.0,0.0,0.0,0.0,0.0,0.0,0.0,0.0,0.0,0.0,0.0,0.0,0.0,0.0,0.0,0.0,0.0,0.0,0.0,0.0,0.0,0.0,0.0,0.0,0.0,0.0,0.0,6.6185,6.9956,6.817,7.2973,7.5151,7.1595,7.3265,7.4533,7.4562,7.7211,7.9537,8.1033,8.217,8.2699,8.23,8.3693,8.4109,8.3671,8.2824,8.1787,8.0607,7.8788,7.7009,7.5215,7.4792,7.4384,7.397,7.3212,7.2663,7.2193,7.0834,6.903,6.6939,6.5031,6.4635,6.4995,6.448,6.4979,6.5946,0.0,0.0,0.0,0.0,0.0,5.3181,5.5097,5.5387,5.6345,5.8958,6.2397,6.6124,7.0057,7.3913,7.7224,7.9628,7.7888,7.5546,7.3083,6.8896,6.5882,6.4545,6.4845,6.5052,6.512,6.961,7.2395,7.3427,7.7318,7.9797,8.0883,8.3103,8.4325,8.4833,8.612,8.6329,8.5671,8.4384,8.0464,7.4839,7.0829,6.9901,7.041,0.0,0.0,0.0,0.0,0.0,0.0,0.0,0.0,0.0,0.0,0.0,0.0,0.0,0.0,0.0,0.0,0.0,0.0,0.0,0.0,0.0,0.0,0.0,0.0,0.0,0.0,0.0,0.0,0.0,0.0,0.0,0.0,0.0,6.5408,7.1899,7.5534,7.1744,7.9249,8.1998,7.5055,7.8967,8.1392,8.0135,8.3008,8.5103,8.5761,8.6389,8.6748,8.6748,8.612,8.609,8.6689,8.4325,8.3081,8.297,8.1177,7.9371,7.7606,7.7552,7.6226,7.4112,7.397,7.3343,7.2271,7.1644,7.1095,7.0474,6.8063,6.8172,6.9392,6.777,6.7148,6.7148,0.0,0.0,0.0,5.1228,5.1585,5.2543,5.4458,5.5126,5.6345,5.8958,6.2939,6.716,7.1493,7.6007,8.0006,8.3151,7.9751,7.7033,7.6035,6.9589,6.5108,6.3564,6.4904,6.6632,6.8484,7.1248,7.3767,7.6189,7.8529,8.0257,8.1542,8.3065,8.4618,8.615,8.6509,8.6868,8.7077,8.624,8.4384,8.1542,7.6155,7.2774,7.056,0.0,0.0,0.0,0.0,0.0,0.0,0.0,0.0,0.0,0.0,0.0,0.0,0.0,0.0,0.0,0.0,0.0,0.0,0.0,0.0,0.0,0.0,0.0,0.0,0.0,0.0,0.0,0.0,0.0,0.0,0.0,6.9486,7.1875,6.9337,7.4396,7.891,8.0455,8.3523,8.5052,8.3971,8.4797,8.5192,8.4833,8.609,8.7167,8.7826,8.8035,8.8125,8.8125,8.7945,8.7736,8.7437,8.6746,8.5472,8.372,8.3196,8.1998,8.0154,7.7944,7.6856,7.6491,7.3884,7.282,7.282,7.1801,7.2052,7.2724,7.0031,6.8966,6.8984,6.8516,6.835,6.8298,0.0,0.0,0.0,5.0734,5.0975,5.1962,5.4168,5.4807,5.6055,5.8929,6.3989,6.8923,7.2886,7.7473,8.1183,8.3449,7.956,7.6081,7.4248,6.8329,6.4695,6.4337,6.6302,6.8619,7.1288,7.3525,7.5836,7.809,8.0034,8.1572,8.2619,8.4235,8.5731,8.7137,8.7676,8.8155,8.8514,8.8095,8.7317,8.603,8.202,7.843,7.5018,7.1009,6.9752,6.9812,6.7268,6.6819,6.7089,6.4994,0.0,0.0,0.0,0.0,0.0,0.0,0.0,0.0,0.0,0.0,0.0,0.0,0.0,0.0,0.0,0.0,0.0,0.0,0.0,0.0,0.0,0.0,0.0,0.0,7.3852,7.6902,7.6891,7.9704,8.284,8.5819,8.7127,8.8019,8.8493,8.8394,8.8215,8.7945,8.8544,8.9082,8.9501,8.9501,8.9501,8.9501,8.9232,8.8903,8.8514,8.7975,8.6835,8.5155,8.4048,8.2637,8.07,7.7984,7.6901,7.7058,7.3928,7.2945,7.3402,7.199,7.1959,7.268,0.0,0.0,0.0,0.0,6.8638,6.869,0.0,0.0,0.0,5.054,5.0618,5.1381,5.382,5.4313,5.5533,5.8668,6.4877,7.0214,7.3386,7.7528,8.0588,8.1663,7.7534,7.332,6.9743,6.6159,6.4934,6.649,6.8649,7.1073,7.3575,7.6219,7.8179,7.9397,8.178,8.3247,8.3995,8.5821,8.7137,8.7975,8.9142,8.9711,8.9771,8.9711,8.9322,8.8693,8.7347,8.4833,8.1302,7.5856,7.4719,7.5587,7.2475,7.029,6.8615,6.7089,0.0,0.0,0.0,0.0,0.0,0.0,0.0,0.0,0.0,0.0,0.0,0.0,0.0,0.0,0.0,0.0,0.0,0.0,0.0,0.0,0.0,0.0,0.0,0.0,7.7741,8.1691,8.5492,8.609,8.6868,8.8783,9.004,9.0549,9.004,9.0399,9.0429,8.992,9.0339,9.0638,9.0638,9.0638,0.0,0.0,0.0,8.9741,8.9681,8.8262,8.7306,8.6778,8.4273,8.2371,8.087,7.8334,7.7061,7.6721,7.4278,7.3402,7.3578,7.2045,7.1409,7.133,7.0729,7.1031,7.1608,6.8875,6.8246,6.8507,0.0,0.0,4.9262,4.9785,4.9921,5.0394,5.1933,5.3036,5.4662,5.7332,6.291,6.7479,6.9661,7.3232,7.6623,7.9337,7.3897,6.9388,6.7281,6.6142,6.6826,6.9842,7.1837,7.3763,7.5584,7.8268,8.0021,8.0793,8.26,8.4145,8.5342,8.624,8.7616,8.9292,8.9561,8.995,9.0399,8.989,8.9591,8.9352,8.8035,8.5521,8.232,8.0105,7.819,7.6425,7.4719,7.421,7.3911,7.0949,7.05,7.053,6.667,6.5443,0.0,0.0,0.0,0.0,0.0,0.0,0.0,0.0,0.0,0.0,0.0,0.0,0.0,0.0,0.0,0.0,0.0,0.0,0.0,7.6574,8.0823,8.4773,8.7706,8.8574,8.9441,9.0878,9.1267,9.1596,9.1985,9.1177,9.0818,9.1207,9.0878,9.0638,9.0638,9.0638,9.0638,9.0638,9.0519,9.019,8.9681,8.7357,8.665,8.7496,8.4947,0.0,8.5323,8.2396,8.001,7.8067,7.5121,7.3059,7.1873,7.1555,7.1409,7.1304,7.0259,7.0041,6.9978,6.8018,6.7645,6.7985,0.0,4.874,4.8827,4.9146,4.9465,5.0104,5.141,5.2688,5.4313,5.6578,6.1629,6.5606,6.7202,6.9845,7.2123,7.355,6.87,6.5568,6.5722,6.642,6.8608,7.2616,7.4722,7.6579,7.8316,8.0116,8.1297,8.1823,8.3281,8.4822,8.637,8.7026,8.8381,9.016,9.016,9.0339,9.0608,9.0279,9.016,9.01,8.9441,8.7975,8.597,8.3636,8.214,8.1003,7.9028,7.813,7.7442,7.4779,7.3672,7.2894,6.9901,6.8525,6.7537,0.0,0.0,0.0,0.0,0.0,0.0,0.0,0.0,0.0,0.0,0.0,0.0,0.0,0.0,6.7208,6.9542,0.0,7.7831,8.0794,8.4055,8.7018,8.9352,9.0219,9.0878,9.1536,9.1626,9.1865,9.2524,9.1716,9.1267,9.1596,9.0997,9.0638,9.0638,9.0638,9.0638,9.0638,8.966,8.9512,9.016,8.7318,8.6142,8.6762,8.3972,8.2591,8.245,7.9435,7.7699,7.7063,7.4033,7.2542,7.2191,7.1307,7.0651,7.0049,6.9187,6.9004,6.9082,6.7619,6.7279,6.741,0.0,0.0,4.8566,4.8663,4.9233,5.0046,5.1091,5.2426,5.3994,5.5794,6.0177,6.3545,6.4706,6.6331,6.716,6.6662,6.4282,6.3644,6.5558,6.7577,7.0749,7.5327,7.7486,7.9225,8.0694,8.1752,8.2456,8.2998,8.4147,8.5707,8.7387,8.7922,8.9061,9.0638,9.0638,9.0638,9.0638,9.0638,9.0638,9.0638,9.0638,9.0339,8.9561,8.6748,8.5851,8.5791,8.3397,8.1272,7.9357,7.7592,7.5707,7.3881,7.2654,7.1667,7.044,6.7926,6.6999,0.0,0.0,0.0,0.0,0.0,0.0,0.0,0.0,6.257,6.3827,6.658,6.8854,7.1248,7.43,7.81,8.1721,8.4624,8.6898,8.8843,9.0429,9.1207,9.1626,9.1626,9.1626,9.1865,9.2524,9.1895,9.1476,9.1596,9.0997,9.0638,9.0638,9.0638,9.0442,9.0109,8.8925,8.8755,8.9462,8.6676,8.5331,8.5302,8.214,8.0031,7.8813,7.6066,7.5129,7.5323,7.2508,7.174,7.2414,7.0984,6.9866,6.8926,6.8011,6.8011,6.835,6.72,6.6756,6.6704,0.0,0.0,0.0,4.8624,4.9233,4.9727,4.9872,5.1468,5.3181,5.4546,5.771,6.009,6.0758,6.1571,6.1571,6.0411,6.3462,6.6177,6.7939,7.0555,7.4137,7.8757,8.0182,8.1084,8.1654,8.2912,8.3848,8.4544,8.5656,8.7097,8.8783,8.8843,8.9507,9.0638,9.0638,9.0638,9.0638,9.0638,9.0638,9.0638,9.0638,9.0608,9.0429,8.9471,8.8424,8.7287,8.5791,8.2529,7.8789,7.7981,7.6395,7.4629,7.3911,7.3971,7.3492,6.9123,6.7029,6.5383,6.2032,6.0835,6.0595,6.0924,6.1493,6.26,0.0,6.5981,6.7358,7.056,7.3313,7.5766,7.7861,8.1482,8.4654,8.621,8.8634,9.0399,9.0608,9.1207,9.1626,9.1626,9.1626,9.1865,9.2524,9.1476,9.0997,9.1566,9.0997,9.0638,9.0638,9.0638,8.9828,8.8128,8.9576,8.8755,8.5539,8.4206,8.341,8.341,8.0285,7.9256,8.0137,7.8625,7.6677,7.4271,7.1767,7.0422,7.0126,6.9873,6.971,6.9396,6.7305,6.6808,6.7148,6.5998,6.558,6.5554,0.0,0.0,0.0,4.813,4.9001,4.9717,4.9717,5.1004,5.2339,5.3268,5.5852,5.7855,5.8464,5.9103,5.9132,5.8232,6.0874,6.4304,6.8361,7.183,7.6118,8.1408,8.3157,8.3918,8.3733,8.4606,8.5014,8.4927,8.5734,8.6857,8.8241,8.8241,8.8846,8.9887,9.0139,9.0222,9.0306,9.0472,9.0638,9.0638,9.0638,9.0399,8.995,8.8933,8.6988,8.4714,8.3756,8.1691,0.0,7.6395,7.5228,7.4749,7.4091,7.3552,7.2535,6.9482,6.7627,6.6101,6.3977,6.2331,6.1583,6.3049,6.4186,6.5533,6.7807,6.9423,7.1248,7.4151,7.6904,7.9477,8.1811,8.5162,8.7915,8.8843,9.0219,9.1207,9.1207,9.0788,9.004,8.8873,8.9082,9.019,9.2374,9.1746,9.1327,9.1596,9.0997,9.0109,8.9039,8.8925,8.7953,8.5675,8.5606,8.5164,8.4354,8.2781,8.1856,8.1498,7.9755,7.8351,7.7167,7.5926,7.402,7.1522,7.0493,6.9553,6.8716,6.9056,6.8821,6.8089,6.6782,6.6416,6.6521,6.5684,6.5371,6.5371,0.0,0.0,0.0,4.8014,4.8943,4.9717,4.9717,5.0627,5.1541,5.2041,5.4037,5.5539,5.5958,5.7105,5.7451,5.662,5.8784,6.2499,6.7928,7.1595,7.6299,8.2384,8.3586,8.4277,8.4529,8.4448,8.4534,8.4788,8.5249,8.6425,8.8178,8.8002,8.8609,8.9798,8.9783,9.0065,9.0476,9.0455,9.0562,9.0908,9.0908,9.019,8.8933,8.7257,8.4325,8.1033,8.0405,7.8609,7.6096,7.3013,7.2056,7.2206,7.2475,7.1996,7.0949,6.8794,6.6849,6.5233,6.4665,6.3707,6.3348,6.5114,6.6819,6.8645,7.0829,7.2864,7.4851,7.6949,8.0035,8.2886,8.4476,8.7593,9.016,9.0788,9.1446,9.1835,9.1656,9.0489,8.8843,8.6659,8.6359,8.7257,8.9651,9.0459,9.0968,9.1327,9.0908,9.0025,8.867,8.8042,8.6658,8.4049,8.3065,8.2548,8.2442,8.1263,8.0263,7.9472,7.8532,7.6794,7.4362,7.2846,7.1173,6.9448,6.9448,6.8899,6.8011,6.8429,6.8011,6.707,6.6495,6.6286,6.6207,6.5606,6.5371,6.5371,0.0,0.0,0.0,0.0,4.9233,4.9717,4.9717,5.0249,5.0767,5.0823,5.1924,5.2785,5.2823,5.4988,5.5987,5.4799,5.8058,6.2122,6.6651,6.9407,7.3982,8.094,8.0099,8.0625,8.3089,8.1292,8.1504,8.3988,8.4016,8.593,8.9553,8.888,8.9518,9.1096,8.9857,9.0231,9.1753,9.0506,9.058,9.1596,9.1596,9.004,8.7467,8.4863,8.1003,7.6933,7.6305,7.2744,6.8226,6.7448,6.637,6.5772,6.8345,6.9572,6.9512,6.6879,6.3827,6.1553,6.281,6.4006,6.5263,6.661,6.8884,7.1487,7.4121,7.6245,7.7865,7.8754,8.2979,8.6211,8.5092,8.799,9.0818,9.1476,9.2135,9.2344,9.1716,9.0489,8.8693,8.603,8.4055,8.2948,8.3114,8.6539,8.9292,9.0579,9.0638,9.0555,9.0555,8.8755,8.6658,8.4049,8.396,8.2199,7.8499,7.9231,7.8844,7.754,7.5839,7.44,7.3081,7.0834,6.9448,6.879,6.879,6.8533,6.7985,6.8011,6.7645,6.7044,6.6495,6.6286,6.6207,6.5606,6.5371,6.5371,0.0,0.0,0.0,0.0,0.0,4.7434,4.7434,4.8924,4.9775,4.9085,5.0463,0.0,0.0,0.0,0.0,0.0,5.4873,5.7796,6.219,6.5827,7.0006,7.4796,7.749,7.9299,8.0197,8.0573,8.1472,8.2713,8.2713,8.3298,8.4531,8.4698,8.5624,8.7137,8.7803,8.8915,9.0336,9.0651,9.0426,8.9752,8.9335,8.7584,8.4833,8.2619,7.81,7.2595,0.0,6.7627,6.5024,6.3079,6.272,6.3228,6.4126,6.4874,6.5144,6.3797,6.2795,6.2314,6.3222,6.422,6.5517,6.7244,6.9247,7.1726,7.5086,7.6689,7.7863,7.8949,8.0065,8.0536,7.9792,8.1402,8.3753,8.6456,8.8068,8.919,8.9665,9.0065,8.7639,8.0541,8.1879,8.1561,7.6884,8.0784,8.5044,8.8433,8.681,8.5997,8.6743,8.5005,8.2832,8.0266,8.0266,7.9455,7.776,7.76,7.7126,7.627,7.4179,7.2559,7.1382,6.984,6.8821,6.8246,6.7854,6.7357,6.6861,6.6861,6.6495,6.5946,6.5763,6.5684,6.5658,6.5449,6.5371,6.5318,0.0,0.0,0.0,0.0,0.0,0.0,0.0,0.0,0.0,0.0,0.0,0.0,0.0,0.0,0.0,0.0,0.0,5.4787,5.8362,6.1036,6.4551,6.9187,7.1361,7.3027,7.4325,7.4574,7.5339,7.6733,7.7163,7.8057,7.9421,8.012,8.116,8.2609,8.3791,8.5075,8.6369,8.6543,8.6533,8.6074,8.4464,8.2563,8.0255,7.7181,7.2618,0.0,6.4306,6.2124,6.0544,5.9428,5.9553,6.0249,6.0839,6.0946,6.0875,6.1291,6.1568,6.2124,6.357,6.5379,6.7194,6.8888,7.0782,7.2882,7.5755,7.6782,7.7045,7.6839,7.6821,7.6445,7.482,7.5746,7.7953,8.1378,8.3047,8.4583,8.6543,8.656,8.4092,7.8021,7.894,7.833,7.3788,7.6063,7.9811,8.4778,8.4355,8.3956,8.4583,8.2804,8.0906,7.9069,7.8162,7.7525,7.7159,7.6584,7.5904,7.5094,7.3186,7.1696,7.0546,6.937,6.8533,6.7958,6.7148,6.6599,6.6259,6.605,6.5737,6.5371,6.5371,6.5371,6.5371,6.5371,6.5371,6.5292,0.0,0.0,0.0,0.0,0.0,0.0,0.0,0.0,0.0,0.0,0.0,0.0,0.0,0.0,0.0,0.0,0.0,0.0,5.5107,5.5366,5.8117,6.4034,6.2223,6.27,6.6186,6.3924,6.4256,6.713,6.8231,7.0595,7.4087,7.5092,7.6235,7.747,7.795,7.8813,7.9899,7.8655,7.9129,8.0524,7.7268,7.5334,7.4023,6.9154,6.5141,6.1736,5.908,5.669,5.5078,5.6467,5.6786,5.6817,5.8416,5.7863,5.7139,5.9543,6.0259,6.0965,6.3917,6.7135,7.0024,7.1318,7.3013,7.4712,7.5964,7.6268,7.5393,7.2558,7.3325,7.3549,7.0009,7.1018,7.3359,7.6482,7.7561,7.9234,8.2727,8.0758,7.8762,7.8233,7.5659,7.3868,7.3544,7.2718,7.4444,7.9942,8.2818,8.4162,8.3932,8.2163,8.0825,8.0202,7.789,7.6636,7.661,7.5957,7.5042,7.3918,7.2794,7.1644,7.052,6.9344,6.8481,6.788,6.673,6.6233,6.6181,6.5632,6.5371,6.5371,6.5371,6.5371,6.5371,6.5371,6.5371,6.5266,0.0,0.0,0.0,0.0,0.0,0.0,0.0,0.0,0.0,0.0,0.0,0.0,0.0,0.0,0.0,0.0,0.0,0.0,4.9827,5.1481,5.3496,5.5864,5.8122,5.9916,6.127,6.1882,6.279,6.3935,6.4215,6.4899,6.5883,6.6547,6.7607,6.8999,6.9983,7.1149,7.2458,7.2623,7.2917,7.2981,7.061,6.9719,6.9417,6.5733,6.3376,6.1819,5.919,5.6905,5.5204,5.5358,5.5106,5.499,5.5925,5.6164,5.6693,5.9487,6.1029,6.2542,6.5388,6.7721,6.9443,7.0084,7.0638,7.1415,7.2613,7.1527,6.9723,6.7801,6.5931,6.3926,6.1304,6.3025,6.6482,7.1666,7.5241,7.8514,8.1872,8.3355,8.1954,7.6467,7.771,7.7203,7.2418,7.4278,7.5897,7.6352,7.7047,7.8884,8.2293,8.075,7.9408,7.8827,7.7806,7.7028,7.661,7.5172,7.3866,7.2716,7.1984,7.1043,6.9893,6.8743,6.788,6.7253,6.6103,6.5606,6.5606,6.5449,6.5371,6.5371,6.5371,6.5371,6.5371,6.5371,6.5109,6.4665,0.0,0.0,0.0,0.0,0.0,0.0,0.0,0.0,0.0,0.0,0.0,0.0,0.0,0.0,0.0,0.0,0.0,0.0,0.0,4.8761,4.9841,5.0695,5.2804,5.4336,5.5139,5.6068,5.7072,5.8127,5.8378,5.8855,5.9583,6.0387,6.119,6.1967,6.344,6.4352,6.4881,6.5302,6.5586,0.0,0.0,6.2458,6.306,6.0222,5.8789,5.8143,5.6698,5.5116,5.3854,5.4511,5.5331,5.6204,5.6957,5.7673,5.8752,6.1595,6.302,6.4298,6.709,6.9024,7.023,7.0187,7.0377,7.0377,6.9591,6.7843,6.566,6.2751,6.0222,5.8,5.6432,5.7869,6.1138,6.6832,7.0714,7.4487,7.864,8.029,7.9794,7.6416,7.7565,7.7233,7.3625,7.5263,7.6249,7.5656,7.5872,7.713,7.9895,7.8813,7.7891,7.7577,7.7002,7.6532,7.6218,7.4258,7.3186,7.3029,7.1931,7.0938,7.0049,6.8899,6.7906,6.7017,6.5867,6.5371,6.5371,6.5371,6.5371,6.5371,6.5371,6.5371,6.5371,6.5371,6.5031,6.4456,0.0,0.0,0.0,0.0,0.0,0.0,0.0,0.0,0.0,0.0,4.4367,4.4844,0.0,0.0,0.0,0.0,0.0,0.0,0.0,0.0,4.7431,4.7883,4.7983,4.851,4.9565,4.959,5.0318,5.1774,5.2251,5.3206,5.4637,5.5591,5.6043,5.6118,5.7549,5.7926,5.7499,5.7499,5.7973,5.8507,5.5382,5.5199,5.6541,0.0,5.3343,5.341,5.3206,5.252,5.1993,5.4192,5.6424,5.8452,5.9492,6.0517,6.1904,6.4584,6.5457,6.6154,6.9004,7.0745,7.1602,7.1052,7.0806,6.9945,6.6615,6.4609,6.2214,5.7903,5.5711,5.4405,5.3949,5.4916,5.7582,6.3018,6.6207,6.9866,7.5303,7.5591,7.5852,7.7499,7.6793,7.6166,7.6166,7.6113,7.6323,7.6898,7.7257,7.7465,7.7593,7.7028,7.6688,7.661,7.5957,7.5643,7.5721,7.3447,7.2872,7.3996,7.2245,7.1121,7.0546,6.937,6.8194,6.7017,6.5867,6.5371,6.5371,6.5371,6.5371,6.5371,6.5371,6.5371,6.5371,6.5292,6.49,6.4325,0.0,0.0,0.0,0.0,0.0,0.0,0.0,0.0,0.0,0.0,4.4869,4.4844,0.0,0.0,0.0,0.0,0.0,0.0,0.0,0.0,0.0,4.7908,4.836,4.8912,4.959,4.959,4.9741,5.0017,5.0117,5.0318,5.0594,5.0795,5.087,5.0896,5.1197,5.1272,5.1172,5.1172,5.1853,5.2798,5.1138,5.194,5.389,5.1335,0.0,0.0,5.2199,5.1373,5.1294,5.4784,5.6548,5.7626,5.954,6.1266,6.3028,6.5833,6.6949,6.7995,7.113,7.1948,7.1847,7.1627,6.9275,6.627,6.3709,6.0401,5.7145,5.42,5.2634,5.188,5.2003,5.3792,5.7399,6.4012,6.673,7.0311,7.6924,7.7368,7.7473,7.8727,7.8701,7.857,7.857,7.8152,7.81,7.8675,7.7937,7.7716,7.8126,7.7629,7.7107,7.6636,7.5591,7.5251,7.5721,7.3447,7.2872,7.3996,7.2245,7.1121,7.0546,6.937,6.8194,6.7017,6.5867,6.5371,6.5371,6.5371,6.5371,6.5371,6.5371,6.5371,6.5318,6.4848,6.4325,6.375,0.0,0.0,0.0,0.0,0.0,0.0,0.0,4.4091,4.4995,4.6954,4.7456,4.7405,4.6803,4.723,4.7431,0.0,0.0,0.0,0.0,0.0,0.0,4.7908,4.846,4.8887,4.9163,4.9439,4.9741,5.0017,0.0,4.9741,5.0017,4.9715,4.959,4.959,4.959,4.959,4.959,4.959,4.995,5.0436,4.9822,5.0334,5.1294,5.0078,0.0,0.0,5.0727,5.0525,5.0985,5.3917,5.6244,5.8554,6.2195,6.4881,6.7191,6.9677,7.038,7.0907,7.3679,7.3634,7.2609,7.194,6.8877,6.5078,6.1577,5.767,5.4013,5.1319,5.0013,4.9696,5.0887,5.301,5.6233,6.12,6.4143,6.7854,7.3866,7.499,7.6087,7.844,7.8989,7.9172,7.9172,7.8936,7.8753,7.8727,7.8231,7.7891,7.7865,7.7028,7.6296,7.5748,7.4885,7.4571,7.4833,7.2846,7.2271,7.3108,7.167,7.0834,7.0546,6.937,6.8533,6.7932,6.6469,6.5841,6.5815,6.5501,6.5371,6.5371,6.5371,6.5371,6.5345,6.5083,6.443,6.3646,0.0,0.0,0.0,0.0,0.0,0.0,4.4493,4.5196,4.6502,4.9289,5.0218,5.0193,4.9113,4.8661,4.8309,0.0,0.0,0.0,0.0,0.0,0.0,0.0,0.0,0.0,4.8937,0.0,0.0,5.0243,4.9816,0.0,0.0,0.0,0.0,0.0,4.959,4.959,4.959,4.959,4.959,0.0,0.0,4.959,4.959,0.0,0.0,0.0,0.0,4.9866,5.0619,5.3055,5.5717,5.8805,6.3274,6.7091,7.028,7.2163,7.2816,7.3368,7.5477,7.5025,7.3594,7.2113,6.8562,6.4355,5.9896,5.5624,5.1944,4.9552,4.8428,4.8472,5.0446,5.2324,5.4779,5.8355,6.0996,6.4534,7.0259,7.1949,7.3959,7.7525,7.8675,7.9172,7.9172,7.9172,7.8989,7.8544,7.8283,7.7891,7.7316,7.6296,7.546,7.4937,7.431,7.3996,7.3996,7.2271,7.1696,7.2297,7.1147,7.0598,7.0546,6.937,6.8769,6.8586,6.6965,6.6207,6.6076,6.5711,6.5501,6.5371,6.5371,6.5371,6.5371,6.524,6.4639,6.3829,0.0,0.0,0.0,0.0,0.0,0.0,4.492,4.5447,4.7179,5.1925,5.1774,5.1523,5.2377,5.1096,4.9565,0.0,0.0,0.0,0.0,0.0,0.0,0.0,0.0,0.0,0.0,0.0,0.0,4.9665,4.9615,0.0,0.0,0.0,0.0,0.0,0.0,4.959,4.959,4.959,0.0,0.0,0.0,0.0,0.0,0.0,0.0,0.0,0.0,4.9615,5.0167,5.3406,5.5039,5.6219,5.9182,6.4103,6.8899,6.9627,7.1585,7.3895,7.5603,7.5578,7.4448,7.1811,6.7467,6.2834,5.858,5.4037,5.0478,4.9848,4.8957,4.8997,5.1011,5.1575,5.3248,5.8083,5.8796,6.1373,6.8816,7.0602,7.2519,7.6256,7.8178,7.9172,7.9172,7.9172,7.9145,7.9093,7.8126,7.729,7.6715,7.6061,7.546,7.4937,7.431,7.3996,7.3996,7.2271,7.1696,7.2297,7.1147,7.0598,7.0546,6.937,6.856,6.8011,6.6808,6.5972,6.5501,6.5998,6.5867,6.5371,6.5371,6.5371,6.5318,6.4796,6.4534,6.4378,0.0,0.0,0.0,0.0,0.0,0.0,4.5422,4.5974,4.7757,5.2754,5.3607,5.3909,5.4361,5.3507,5.1699,4.8686,0.0,0.0,0.0,0.0,0.0,0.0,0.0,0.0,0.0,0.0,4.959,4.959,4.959,0.0,0.0,0.0,0.0,0.0,0.0,4.959,4.959,4.959,0.0,0.0,0.0,0.0,0.0,0.0,0.0,0.0,0.0,0.0,4.9741,5.0745,5.19,5.2929,5.3005,5.6545,6.1542,6.6112,6.8949,7.1259,7.4247,7.5151,7.4724,7.2615,6.7593,6.227,5.8983,5.3903,4.978,4.9318,4.8748,4.8835,5.0141,5.0971,5.2151,5.4236,5.5227,5.76,6.3078,6.442,6.6996,7.3005,7.4884,7.6498,7.8483,7.898,7.9041,7.8675,7.7917,7.7211,7.6636,7.5721,7.4807,7.3866,7.3578,7.3317,7.2977,7.1931,7.1513,7.1748,7.0964,7.0598,7.0546,6.937,6.8899,6.8926,6.707,6.6338,6.6364,6.592,6.5606,6.5371,6.5371,6.5371,6.5345,6.5136,6.4822,6.4508,0.0,0.0,0.0,0.0,0.0,4.158,4.5472,4.62,4.8033,5.2829,5.431,5.5013,5.534,5.4461,5.2804,5.0218,4.9389,0.0,0.0,0.0,0.0,0.0,0.0,0.0,0.0,0.0,4.959,4.959,4.9766,4.9841,0.0,0.0,5.0017,4.9841,0.0,0.0,0.0,0.0,0.0,0.0,0.0,0.0,0.0,0.0,0.0,0.0,0.0,0.0,0.0,0.0,0.0,5.0268,4.8761,5.0544,5.4536,6.1416,6.566,6.8874,7.2263,7.4297,7.495,7.2791,6.7744,6.2471,5.9207,5.4009,4.969,4.9138,4.875,4.8712,4.9478,5.0558,5.1452,5.1768,5.2851,5.5044,5.8965,6.0173,6.2966,6.9075,7.0942,7.3031,7.6375,7.8093,7.8745,7.8361,7.7786,7.7133,7.6401,7.5251,7.4258,7.3395,7.3186,7.2768,7.2036,7.1801,7.1513,7.1147,7.0781,7.0494,7.0285,6.9135,6.8821,6.9082,6.7122,6.6495,6.6782,6.5972,6.5554,6.5371,6.5371,6.5371,6.5371,6.5371,6.5136,6.4796,0.0,0.0,0.0,0.0,0.0,4.1003,4.4895,4.5949,4.7908,5.2352,5.3381,5.416,5.5265,5.3432,5.2327,5.2829,5.087,0.0,0.0,0.0,0.0,0.0,0.0,0.0,0.0,0.0,4.959,4.959,5.0142,5.0419,5.0419,5.0996,5.0971,5.0419,0.0,0.0,0.0,0.0,0.0,0.0,0.0,0.0,4.959,0.0,0.0,0.0,0.0,0.0,0.0,0.0,0.0,0.0,0.0,4.7531,4.9188,5.534,6.1818,6.7467,6.9702,7.3117,7.5251,7.1937,6.7744,6.3299,5.8905,5.4009,5.0243,4.969,4.9138,4.8937,4.949,5.0519,5.1405,5.1778,5.2472,5.4163,5.7841,5.9461,6.1528,6.4764,6.6695,6.9084,7.2385,7.622,7.8361,7.8266,7.7786,7.695,7.5774,7.465,7.3996,7.3996,7.3421,7.2559,7.1409,7.201,7.1722,7.0598,7.0598,7.0285,6.9657,6.8507,6.8011,6.7932,6.6782,6.6286,6.6286,6.6286,6.592,6.5371,6.5371,6.5371,6.5371,6.5371,6.5371,6.5371,0.0,0.0,0.0,0.0,0.0,0.0,4.3413,4.4242,4.605,5.0117,5.0795,5.19,5.4536,5.2854,5.1925,5.2854,5.0896,0.0,0.0,0.0,0.0,0.0,0.0,0.0,0.0,5.0167,5.0343,5.0745,5.1297,5.1373,5.1021,5.1574,5.1322,5.0419,5.0419,5.0117,0.0,0.0,0.0,0.0,0.0,4.959,4.959,0.0,0.0,0.0,0.0,0.0,0.0,0.0,0.0,0.0,0.0,0.0,0.0,5.0017,5.4988,6.0085,6.2295,6.5208,6.699,6.4379,6.124,5.8252,5.6118,5.2628,4.9816,4.964,4.9464,4.9389,4.9565,5.0519,5.1339,5.1472,5.2269,5.3576,5.5471,5.7747,6.0877,6.5251,7.0641,7.4644,7.6383,7.7658,7.8205,7.7812,7.7577,7.6793,7.5251,7.4441,7.3996,7.3996,7.2663,7.1958,7.201,7.1435,7.1147,7.1147,7.0363,6.9893,6.9657,6.8507,6.7749,6.7331,6.6599,6.6286,6.6259,6.5841,6.5554,6.5371,6.5371,6.5371,6.5371,6.5371,6.5371,6.5371,0.0,0.0,0.0,0.0,0.0,0.0,4.271,4.3438,4.4895,4.7958,4.8711,5.0167,5.3306,5.185,5.1272,5.2804,5.0896,0.0,0.0,0.0,0.0,0.0,0.0,0.0,5.0419,5.0419,5.0996,5.2201,5.2754,5.2955,5.2854,5.3406,5.2829,5.1348,5.1147,5.0619,0.0,0.0,0.0,0.0,5.0067,4.9967,4.959,0.0,0.0,0.0,0.0,0.0,0.0,0.0,0.0,0.0,0.0,0.0,0.0,0.0,5.0218,5.3833,5.7323,6.0613,6.2621,6.0763,5.8403,5.6118,5.4587,5.2,4.9841,4.964,4.959,4.959,4.959,5.0519,5.1272,5.1272,5.2201,5.3306,5.4411,5.7123,6.0788,6.5559,7.1158,7.5036,7.5893,7.6869,7.7293,7.6934,7.6862,7.6201,7.4691,7.4246,7.3892,7.3683,7.2193,7.1487,7.1644,7.1147,7.0755,7.0442,6.9945,6.9474,6.903,6.8089,6.7436,6.707,6.6521,6.6286,0.0,6.5632,6.5371,6.5371,6.5371,6.5371,6.5371,6.5371,6.5371,6.5371,0.0,0.0,0.0,0.0,0.0,0.0,0.0,4.3413,4.4392,4.6024,4.7154,4.8837,5.1574,5.0469,5.0393,5.2503,5.0795,0.0,0.0,0.0,0.0,0.0,0.0,0.0,5.0469,5.0519,5.1574,5.3708,5.431,5.4888,5.539,5.5993,5.5089,5.2955,5.2452,5.1548,5.0444,5.0946,5.0544,4.969,5.0745,5.0519,0.0,0.0,0.0,0.0,0.0,0.0,0.0,0.0,0.0,0.0,0.0,0.0,0.0,0.0,0.0,0.0,0.0,5.8303,6.0814,5.9709,5.7876,5.5817,5.3808,5.1724,0.0,4.969,4.959,4.9615,4.964,5.0544,5.1297,5.1322,5.2226,5.3306,5.4411,5.7675,6.1592,6.6011,6.9426,7.1662,7.1997,7.4458,7.5996,7.5934,7.5842,7.5295,7.413,7.3935,7.3604,7.3003,7.1879,7.1069,7.0651,7.1069,7.0494,6.8899,6.9396,6.903,6.7906,6.7357,6.7044,6.6939,6.6495,6.6259,6.6181,6.5606,6.5371,6.5371,6.5371,6.5371,6.5371,6.5371,6.5371,6.5371,0.0,0.0,0.0,0.0,0.0,0.0,0.0,0.0,0.0,0.0,4.6276,4.7431,4.9339,4.9213,4.9339,0.0,0.0,0.0,0.0,0.0,0.0,0.0,0.0,0.0,5.1071,5.1498,5.2377,5.3708,5.4712,5.5265,5.5415,5.6394,5.5641,5.3507,5.3381,5.2251,5.0393,5.0117,4.9841,4.9615,4.9891,4.9841,0.0,0.0,0.0,0.0,4.959,4.959,0.0,0.0,0.0,0.0,0.0,0.0,0.0,0.0,4.723,4.7782,4.9941,0.0,5.1699,5.0996,5.0142,4.954,0.0,4.9188,4.8711,4.9439,4.959,4.9715,5.0142,5.0795,5.1423,5.185,5.2477,5.3306,5.4411,6.0337,6.6036,7.0079,7.3117,7.4662,7.3875,7.5498,7.6403,7.5959,7.5842,7.5114,7.3561,7.2972,7.2428,7.1827,7.0703,7.0468,7.12,7.0468,6.9893,6.9474,6.9187,6.8429,6.7331,6.7174,6.6599,6.5815,6.6129,6.6024,6.558,6.5449,6.5371,6.5371,6.5371,6.5371,6.5371,6.5371,6.5371,6.5371,0.0,0.0,0.0,0.0,0.0,0.0,0.0,0.0,0.0,0.0,4.6351,4.723,4.8611,4.8987,4.9264,0.0,0.0,0.0,0.0,0.0,0.0,0.0,5.0519,5.1071,5.1649,5.195,5.3005,5.4863,5.5717,5.642,5.6922,5.7524,5.6746,5.4813,5.3808,5.2251,5.0444,5.0645,5.0293,4.964,5.0167,0.0,0.0,0.0,0.0,0.0,4.959,4.959,0.0,4.8962,4.8937,4.8912,0.0,0.0,0.0,0.0,4.6928,4.7193,4.7857,4.8385,4.8761,4.8686,4.8284,4.8109,4.8962,4.8711,4.856,4.9414,4.959,4.969,4.9992,5.072,5.1373,5.1674,5.2603,5.4386,5.7549,6.2245,6.7091,7.1736,7.3845,7.4972,7.5208,7.5465,7.5537,7.5194,7.472,7.4002,7.3078,7.2166,7.1397,7.074,6.9858,6.9827,7.0598,6.9997,6.9291,6.8507,6.8481,6.7854,6.6756,6.673,6.639,6.5815,6.6129,6.5946,6.5371,6.5371,6.5371,6.5371,6.5371,6.5371,6.5371,6.5371,6.5371,6.5371,0.0,0.0,0.0,0.0,0.0,0.0,0.0,0.0,0.0,0.0,0.0,0.0,0.0,0.0,0.0,0.0,0.0,0.0,0.0,0.0,0.0,0.0,5.1071,5.1574,5.2226,5.2302,5.3582,5.6093,5.6897,5.7826,5.8855,5.9106,5.8177,5.6244,5.4135,5.2251,5.072,5.1599,5.1147,4.9941,5.0795,0.0,0.0,0.0,0.0,0.0,0.0,0.0,0.0,4.9063,4.9163,4.9213,4.7732,0.0,0.0,0.0,0.0,0.0,4.7405,4.8134,4.8862,4.9238,4.8937,4.8686,4.9314,4.9113,4.8937,4.949,4.959,4.964,4.9816,5.0645,5.1398,5.1724,5.3356,5.647,6.1868,6.4128,6.7091,7.2138,7.3468,7.4372,7.5452,7.495,7.4448,7.4171,7.3338,7.2657,7.2276,7.1307,7.0449,6.9809,6.9188,6.902,6.9338,6.9422,6.869,6.7227,6.7645,6.7253,6.6155,6.6233,6.6233,6.6155,6.6155,6.5841,6.5371,6.5371,6.5371,6.5371,6.5371,6.5371,6.5371,6.5371,6.5371,6.5371,0.0,0.0,0.0,0.0,0.0,0.0,0.0,0.0,0.0,0.0,0.0,0.0,0.0,0.0,0.0,0.0,0.0,0.0,0.0,0.0,0.0,5.185,5.1473,5.1749,5.2779,5.3231,5.4135,5.5516,5.7499,5.878,5.9408,6.0839,5.9859,5.6821,5.5089,5.3406,5.1825,5.1523,5.1247,5.0996,5.067,0.0,0.0,0.0,0.0,0.0,0.0,0.0,0.0,4.949,4.9213,4.8761,4.8033,0.0,0.0,0.0,0.0,0.0,4.8711,4.8987,4.8686,4.8259,4.7782,4.7657,4.8661,4.8837,4.8937,4.949,4.959,4.9891,5.0845,5.1172,5.19,5.3758,5.662,6.0211,6.4831,6.7317,6.9702,7.2414,7.4473,7.5025,7.3393,7.4372,7.4523,7.3092,7.3237,7.2555,7.0627,7.0286,6.968,6.8655,6.8415,6.81,6.7665,6.808,6.8115,6.7854,6.7436,6.6625,6.5528,6.605,6.5998,6.5528,6.5528,6.5475,6.5371,6.5371,6.5371,6.5371,6.5371,6.5371,6.5371,6.5371,6.5371,6.5371,0.0,0.0,0.0,0.0,0.0,0.0,0.0,0.0,0.0,0.0,0.0,0.0,0.0,0.0,0.0,0.0,0.0,0.0,0.0,5.1373,5.2201,5.3381,5.2628,5.2528,5.3331,5.4185,5.5465,5.7198,5.9408,6.1065,6.2169,6.1768,5.9784,5.652,5.5164,5.3658,5.2076,5.1825,5.1548,5.1222,0.0,0.0,0.0,0.0,0.0,0.0,0.0,0.0,0.0,0.0,4.9213,4.8736,4.846,0.0,0.0,0.0,0.0,0.0,4.7179,4.7405,4.7506,4.7832,4.8184,4.8586,4.9113,4.8987,4.8937,4.949,4.9841,5.0193,5.072,5.2051,5.4185,5.7575,6.0663,6.355,6.6212,6.8246,7.0255,7.2464,7.392,7.4548,7.4121,7.4247,7.3895,7.2816,7.1822,7.1023,7.0291,6.9055,6.8257,6.8029,6.7571,6.7164,6.6907,6.7056,6.707,6.707,6.6782,6.6207,6.5397,6.5684,6.5632,6.5371,6.5371,6.5371,6.5371,6.5371,6.5371,6.5371,6.5371,6.5371,6.5371,6.5371,6.5371,6.5371,0.0,0.0,0.0,0.0,0.0,0.0,0.0,0.0,0.0,0.0,0.0,0.0,0.0,0.0,0.0,0.0,0.0,0.0,0.0,5.1599,5.2427,5.411,5.3632,5.3733,5.4662,5.5767,5.7449,5.9684,6.2144,6.4002,6.5208,6.2873,6.006,5.6922,5.5566,5.4034,5.2477,5.2352,5.2051,5.1599,0.0,0.0,0.0,0.0,0.0,0.0,0.0,0.0,0.0,0.0,0.0,0.0,0.0,0.0,0.0,4.7068,4.6652,4.6075,4.5924,4.6075,4.6602,4.7807,4.8661,4.9414,5.0193,4.9941,4.9791,5.0594,5.0896,5.1046,5.1172,5.3582,5.6771,6.0563,6.3927,6.6589,6.812,6.9652,7.1334,7.3268,7.3795,7.4272,7.4975,7.4046,7.3042,7.2213,7.0581,6.9602,6.9501,6.802,6.7191,6.7216,6.6729,6.6336,6.608,6.6055,6.6125,6.6286,6.6129,6.5841,6.5371,6.5371,6.5371,6.5371,6.5371,6.5371,6.5371,6.5371,6.5371,6.5371,6.5371,6.5371,6.5371,6.5371,6.5371,6.5371,0.0,0.0,0.0,0.0,0.0,0.0,0.0,0.0,0.0,0.0,0.0,0.0,0.0,0.0,0.0,0.0,0.0,0.0,0.0,5.2528,5.2879,5.303,5.3959,5.544,5.7549,5.8654,6.0286,6.2546,6.5785,6.7442,6.7493,6.4781,6.1994,5.9156,5.7047,5.5164,5.3557,5.308,5.2854,5.2703,5.1649,0.0,0.0,0.0,0.0,0.0,0.0,0.0,0.0,0.0,0.0,0.0,0.0,0.0,4.7068,4.7068,4.6376,4.5773,4.6753,4.6677,4.6702,4.8309,4.836,4.8837,5.1975,5.2251,5.2302,5.3884,5.3432,5.2904,5.3381,5.6168,5.9031,6.0889,6.5233,6.93,7.1937,7.3318,7.4498,7.5678,7.5402,7.495,7.4523,7.3443,7.2138,7.0556,7.0305,6.9325,6.7317,6.7543,6.7041,6.5509,6.5867,6.5561,6.452,6.4909,6.5453,6.6286,6.5711,6.5423,6.5371,6.5371,6.5371,6.5371,6.5371,6.5371,6.5371,6.5371,6.5371,6.5371,6.5371,6.5371,6.5371,6.5371,6.5371,6.5371,0.0,0.0,0.0,0.0,0.0,0.0,0.0,0.0,0.0,0.0,0.0,0.0,0.0,0.0,0.0,0.0,0.0,0.0,5.2101,5.2628,5.3231,5.3909,5.4336,5.5616,5.7851,6.0311,6.35,6.7442,6.9401,6.93,6.7216,6.4454,6.1291,5.7876,5.6018,5.4637,5.3658,5.3155,5.2929,5.2854,5.2101,5.18,0.0,0.0,0.0,0.0,0.0,0.0,0.0,0.0,4.8711,4.8234,4.8234,4.7481,4.6702,4.6968,4.61,4.5045,4.5472,4.5924,4.6552,4.7506,4.836,4.9741,5.2729,5.3532,5.411,5.5767,5.6319,5.647,5.6344,5.8478,6.1014,6.335,6.7643,7.1384,7.3494,7.4448,7.5075,7.5502,7.4749,7.3996,7.3418,7.2062,7.0782,6.9828,6.8798,6.7844,6.7015,6.6513,6.5936,6.5308,6.5049,6.4742,6.431,6.4363,6.4614,6.4936,6.4704,6.4761,6.5,6.5,6.5159,6.5371,6.5371,6.5188,6.4874,6.524,6.5188,6.49,6.524,6.5371,6.5371,6.5371,6.5371,6.5371,0.0,0.0,0.0,0.0,0.0,0.0,0.0,0.0,0.0,0.0,0.0,0.0,0.0,0.0,0.0,0.0,0.0,0.0,5.2377,5.2729,5.3256,5.4009,5.4386,5.5767,5.8353,6.1642,6.5358,6.9476,7.1284,7.038,6.6915,6.4304,6.1391,5.8252,5.6068,5.4963,5.4687,5.3632,5.298,5.2628,5.2251,5.2,0.0,0.0,0.0,0.0,0.0,0.0,0.0,0.0,4.851,4.8159,4.7958,4.728,4.6652,4.6968,4.6075,4.4895,4.4895,4.5321,4.5999,4.6903,4.8109,5.0067,5.3884,5.5064,5.6068,5.8604,5.9031,5.878,5.8252,5.9659,6.1868,6.4806,6.8999,7.2489,7.4171,7.49,7.5176,7.5,7.3996,7.3092,7.2514,7.0983,6.9702,6.8974,6.7543,6.6614,6.6463,6.5534,6.4957,6.4781,6.4385,6.3988,6.3811,6.3757,6.3716,6.3716,6.3716,6.4039,6.4786,6.492,6.5159,6.5371,6.5371,6.5162,6.4822,6.5214,6.5162,6.4848,6.524,6.5371,6.5371,6.5371,6.5371,6.5371,0.0,0.0,0.0,0.0,0.0,0.0,0.0,0.0,0.0,0.0,0.0,0.0,0.0,0.0,0.0,0.0,0.0,0.0,5.2929,5.2929,5.2929,5.2929,5.3984,5.6093,5.9357,6.2722,6.5534,6.7819,7.1083,7.0706,6.6865,6.468,6.2772,6.0989,5.77,5.652,5.6872,5.4637,5.308,5.2101,5.2101,5.1774,5.1222,0.0,0.0,0.0,0.0,0.0,0.0,0.0,4.8761,4.8661,4.8083,4.7531,4.7068,4.7068,4.6351,4.5497,4.5497,4.507,4.5045,4.6667,4.7556,4.954,5.5666,5.7047,5.8328,6.2797,6.1492,5.9382,5.8855,5.9633,6.1441,6.4756,6.8999,7.2489,7.4171,7.4875,7.5,7.4473,7.3393,7.2489,7.1937,7.038,6.8974,6.7869,6.6739,6.586,6.5308,6.4756,6.4228,6.3701,6.3676,6.34,6.2847,6.2822,6.2822,6.2822,6.2822,6.3473,6.4786,6.5238,6.5371,6.5371,6.5371,6.5371,6.5371,6.5371,6.5371,6.5371,6.5371,6.5371,6.5371,6.5371,6.5371,6.5371,0.0,0.0,0.0,0.0,0.0,0.0,0.0,0.0,0.0,0.0,0.0,0.0,0.0,0.0,0.0,0.0,0.0,0.0,5.2929,5.2929,5.2929,5.2929,5.3582,5.4411,5.539,5.9458,6.3977,6.8949,6.9928,6.7844,6.2898,6.222,6.0412,5.7675,5.7474,5.662,5.5214,5.3758,5.2754,5.2076,5.1674,5.1423,5.1222,0.0,0.0,0.0,0.0,0.0,0.0,0.0,0.0,0.0,4.7079,4.6954,4.7054,4.6677,4.6326,4.5974,4.5598,4.5924,4.6702,4.7958,4.9866,5.2628,5.7148,5.8202,5.9684,6.4931,6.4705,6.3299,6.2395,6.2772,6.3827,6.5584,6.8622,7.146,7.3544,7.3619,7.3418,7.3242,7.156,7.0355,7.0204,6.8673,6.7392,6.6664,6.5936,6.5283,6.4731,6.4203,6.3852,6.3701,6.3299,6.2998,6.2822,6.2822,6.2985,6.3311,6.3173,6.3575,6.428,6.4441,6.484,6.5371,6.5371,6.5162,6.4796,6.4796,6.5031,6.5371,6.5371,6.5371,6.5371,6.5371,6.5371,6.5371,0.0,0.0,0.0,0.0,0.0,0.0,0.0,0.0,0.0,0.0,5.1272,5.1498,0.0,0.0,0.0,0.0,0.0,0.0,5.2929,5.2929,5.2929,5.2929,5.3432,5.4336,5.5666,5.8956,6.2245,6.5484,6.6815,6.5082,6.0537,6.2094,6.1391,5.8905,6.0713,5.991,5.7123,5.6018,5.421,5.2101,5.1975,5.1674,5.1247,0.0,0.0,0.0,0.0,0.0,0.0,0.0,0.0,0.0,4.6903,4.6702,4.6753,4.6401,4.6301,4.6276,4.6175,4.6778,4.7807,4.9389,5.1699,5.4712,5.9006,6.119,6.3375,6.7166,6.6714,6.5484,6.5082,6.4705,6.4982,6.6538,6.8748,7.0807,7.2364,7.2489,7.2238,7.1811,7.038,6.9275,6.8848,6.7493,6.6388,6.5835,6.5082,6.4505,6.4178,6.3651,6.335,6.335,6.2998,6.2722,6.2496,6.2722,6.2759,6.2573,6.2712,6.2952,6.3214,6.3692,6.4479,6.5371,6.5371,6.5057,6.456,6.477,6.4926,6.5083,6.5292,6.5371,6.5371,6.5371,6.5371,6.5371,0.0,0.0,4.9012,4.9565,0.0,0.0,0.0,0.0,0.0,0.0,5.1423,5.1624,0.0,0.0,0.0,0.0,0.0,0.0,0.0,5.298,5.3005,5.3005,5.3457,5.5189,5.8353,5.9784,6.006,5.9182,6.2546,6.2471,5.9282,6.3274,6.4254,6.2797,6.5434,6.4555,6.1014,5.9583,5.6369,5.2277,5.2754,5.2277,5.1297,5.1348,0.0,0.0,0.0,0.0,0.0,0.0,0.0,0.0,4.7355,4.6853,4.6451,4.6401,4.6426,4.6577,4.7079,4.7657,4.8686,5.0996,5.3457,5.6545,6.124,6.5107,6.7995,6.9024,6.7693,6.6513,6.7015,6.5835,6.5459,6.7593,6.9175,7.033,7.0932,7.1359,7.1234,7.0229,6.9577,6.8798,6.7744,6.6664,6.5785,6.5183,6.4228,6.3676,6.3626,6.3124,6.2822,6.2822,6.2772,6.2521,6.2019,6.2446,6.2169,6.127,6.1722,6.1912,6.1931,6.3052,6.4169,6.524,6.5292,6.4979,6.4508,6.5083,6.4979,6.4508,6.5136,6.5345,6.5318,6.5371,6.5371,6.5371,0.0,0.0,4.959,5.0142,0.0,0.0,0.0,0.0,0.0,0.0,0.0,0.0,0.0,5.2754,0.0,0.0,0.0,0.0,0.0,5.3306,5.3532,5.3532,5.3632,5.4461,5.6068,5.5591,5.5842,5.6922,6.0261,6.0186,5.7022,6.1793,6.3149,6.1592,6.3073,6.2546,6.0286,5.6545,5.4336,5.3331,5.303,5.2277,5.1322,5.1749,5.1021,0.0,0.0,0.0,0.0,0.0,0.0,0.0,4.7908,4.7657,4.7481,4.7079,4.7255,4.7581,4.7707,4.8786,5.0519,5.3181,5.7474,6.1667,6.4053,6.5911,6.7216,6.7467,6.7819,6.812,6.8246,6.7618,6.7518,6.8874,6.9024,6.9325,7.0305,6.9803,6.925,6.8999,6.8095,6.7241,6.6538,6.586,6.5082,6.4103,6.3827,6.35,6.3048,6.2898,6.2822,6.2822,6.2395,6.2119,6.1994,6.1692,6.1576,6.1695,6.1337,6.1598,6.2375,6.2246,6.2713,6.3623,6.4378,6.4378,6.3907,6.4482,6.4378,6.3959,6.4979,6.5109,6.477,6.5214,6.5371,6.5371,0.0,0.0,0.0,0.0,0.0,0.0,0.0,0.0,0.0,0.0,0.0,0.0,0.0,5.2929,0.0,0.0,5.2929,0.0,0.0,5.3557,5.3934,5.4486,5.4511,5.4787,5.5365,5.4813,5.4813,5.5415,5.7424,5.7801,5.6696,6.119,6.2797,6.2069,6.4254,6.355,6.0588,5.7976,5.5792,5.4084,5.3833,5.2904,5.1724,5.2277,5.1297,4.9665,5.0218,0.0,0.0,0.0,0.0,0.0,0.0,0.0,4.7481,4.7143,4.733,4.7657,4.8184,4.9741,5.2201,5.6294,6.0111,6.3249,6.4906,6.5534,6.5936,6.6463,6.7442,6.8221,6.8221,6.7995,6.7995,6.8572,6.8422,6.8422,6.8999,6.8371,6.7744,6.7442,6.6689,6.5936,6.5383,6.4831,6.4279,6.3726,6.3425,6.3149,6.2847,6.2571,6.2446,6.2446,6.1893,6.1492,6.1215,6.119,6.1047,6.0675,6.065,6.0806,6.109,6.1781,6.2196,6.2458,6.3415,6.3493,6.3075,6.3803,6.3959,6.375,6.4639,6.4796,6.4587,6.5188,6.5214,6.5005,0.0,0.0,0.0,0.0,0.0,0.0,0.0,0.0,0.0,0.0,0.0,0.0,0.0,0.0,5.2929,0.0,0.0,0.0,0.0,0.0,0.0,5.5491,5.534,5.529,5.539,5.5114,5.4888,5.4712,5.5064,5.5993,5.7524,6.104,6.2797,6.3073,6.5559,6.468,6.124,6.001,5.7675,5.4863,5.4863,5.3909,5.2578,5.2929,5.18,5.0067,5.0444,5.0268,4.9891,4.9891,0.0,0.0,0.0,0.0,4.7531,4.7431,4.7405,4.7631,4.8636,5.082,5.4009,5.8956,6.1517,6.3199,6.468,6.4731,6.4731,6.5634,6.6564,6.7292,6.7467,6.7367,6.7292,6.7493,6.7342,6.7267,6.7367,6.689,6.6363,6.5886,6.5434,6.4931,6.4379,6.3952,6.3651,6.355,6.3099,6.2797,6.2697,6.2245,6.1969,6.1868,6.1316,6.0788,6.0311,6.0688,6.0412,5.9508,5.996,5.9935,5.9533,6.1244,6.1734,6.1377,6.2432,6.2509,6.2018,6.2972,6.3309,6.3386,6.4038,6.4247,6.4325,6.4979,6.4926,6.4613,0.0,0.0,0.0,0.0,0.0,0.0,0.0,0.0,0.0,0.0,5.2929,5.2929,0.0,0.0,0.0,5.2929,5.3331,5.3632,5.3708,0.0,0.0,5.6068,5.5189,5.4888,5.539,5.3984,5.3909,5.529,5.4863,5.6219,5.9207,6.119,6.2647,6.3525,6.2521,6.1994,6.1642,5.77,5.6018,5.5993,5.5993,5.529,5.4185,5.3758,5.2829,5.1724,5.1297,5.1122,5.1046,5.1046,5.0996,0.0,0.0,0.0,4.9163,4.8686,4.856,4.8686,4.9314,5.2503,5.6294,5.8956,6.124,6.3023,6.3726,6.4203,6.4505,6.4655,6.4806,6.5208,6.6162,6.5559,6.5208,6.6187,6.5534,6.5082,6.5559,6.5157,6.4781,6.4705,6.463,6.4379,6.3852,6.3726,6.3475,6.2973,6.2873,6.2621,6.2144,6.2044,6.1793,6.1316,6.0738,6.0387,6.0311,5.991,5.9633,5.9483,5.9558,5.9558,5.9508,5.9814,6.0071,6.0328,6.1351,6.1454,6.0967,6.1608,6.1787,6.1832,6.2845,6.3207,6.3175,6.4247,6.4587,6.4613,0.0,0.0,0.0,0.0,0.0,0.0,0.0,0.0,0.0,0.0,0.0,5.2929,0.0,0.0,0.0,5.2929,5.313,5.3532,5.4135,5.4938,5.5491,5.5742,5.4988,5.4536,5.4436,5.3733,5.3582,5.4009,5.4386,5.642,5.9985,6.104,6.2144,6.3124,6.1441,6.0663,6.0412,5.7524,5.6269,5.6219,5.6219,5.5541,5.4536,5.4285,5.313,5.1649,5.1724,5.1147,5.0444,5.1071,5.1071,5.0745,5.0494,0.0,0.0,0.0,4.8761,4.9163,5.0971,5.3331,5.5968,5.8805,6.0462,6.1818,6.335,6.3626,6.3726,6.4329,6.3977,6.3877,6.4982,6.4806,6.463,6.5107,6.4781,6.4555,6.4806,6.4379,6.4028,6.4028,6.3751,6.345,6.3224,6.3199,6.3099,6.2847,6.2546,6.227,6.2019,6.1416,6.0939,6.0713,6.0161,5.9859,5.9859,5.9608,5.9483,5.9483,5.9483,5.9483,5.9483,5.9483,5.9585,5.9817,6.0455,6.0584,6.038,6.0916,6.13,6.1556,6.2071,6.22,6.2225,6.3052,6.3362,6.3414,0.0,0.0,0.0,0.0,0.0,0.0,0.0,0.0,0.0,0.0,0.0,0.0,0.0,0.0,0.0,0.0,5.3055,5.3532,5.4511,5.4938,5.5189,5.5189,5.4637,5.4135,5.3708,5.3582,5.3381,5.313,5.3934,5.662,6.0964,6.1115,6.2446,6.4605,6.2245,6.0864,6.0211,5.8278,5.7374,5.7198,5.6495,5.5717,5.4963,5.4662,5.3557,5.2151,5.2402,5.1699,5.077,5.1599,5.1599,5.1197,5.0921,5.0569,0.0,0.0,0.0,4.9464,5.1674,5.3206,5.4813,5.7549,5.9081,6.0412,6.2395,6.2722,6.2898,6.3852,6.34,6.3073,6.3902,6.4053,6.4053,6.4053,6.4053,6.4053,6.4053,6.3726,6.3475,6.3475,6.3099,6.2822,6.2822,6.2822,6.2822,6.2822,6.232,6.1943,6.1793,6.0864,6.0261,6.0111,5.9709,5.9483,5.9483,5.9483,5.9483,5.9483,5.9483,5.9483,5.9483,5.9483,5.9483,5.9508,5.9817,5.9971,5.9971,6.0278,6.0737,6.1198,6.1198,6.1275,6.1429,6.2096,6.23,6.2505,0.0,0.0,0.0,0.0,0.0,0.0,0.0,0.0,0.0,0.0,0.0,5.2929,5.2929,5.2929,5.2929,5.2929,5.3381,5.3909,5.4607,5.4658,5.4612,5.4612,5.4059,0.0,5.3708,5.3231,5.3206,5.3658,5.3708,5.6821,6.2672,6.1667,6.4304,6.9677,6.5409,6.3199,6.2471,5.9784,5.9207,5.9885,5.7273,5.6168,5.6018,5.4963,5.4486,5.4336,5.3808,5.3557,5.3507,5.3557,5.3557,5.3356,5.2327,5.2,5.1749,0.0,0.0,0.0,5.0368,5.1749,5.3306,5.4511,5.6796,5.9056,6.0236,6.1291,6.222,6.2797,6.2873,6.2847,6.2898,6.2923,6.2923,6.2923,6.2923,6.2923,6.2923,6.2898,6.2873,6.2873,6.2847,6.2822,6.2822,6.2822,6.2822,6.2822,6.232,6.1768,6.1266,6.0638,6.0085,5.9558,5.9508,5.9483,5.9483,5.9483,5.9483,5.9483,5.9483,5.9483,5.9483,5.9483,5.9483,5.9483,5.9483,5.9483,5.9483,5.9585,5.9817,6.015,6.015,6.0406,6.0839,6.1403,6.1941,6.2505,0.0,0.0,0.0,0.0,0.0,0.0,0.0,0.0,0.0,0.0,0.0,0.0,0.0,5.2929,5.2929,5.2929,5.3406,5.3783,5.4009,5.4361,5.4561,5.4561,5.4361,5.4084,5.3708,5.3507,5.3356,5.3206,5.3909,5.6294,6.0211,6.124,6.3425,6.6463,6.4881,6.3877,6.3199,6.0412,5.9056,5.8679,5.77,5.7072,5.6646,5.5917,5.5189,5.4536,5.4336,5.3808,5.3306,5.4009,5.4009,5.3582,5.2854,5.2628,5.2327,5.0845,5.0268,5.0167,5.0368,5.087,5.1749,5.3557,5.529,5.6846,5.7951,5.9608,6.0889,6.0713,6.1266,6.1768,6.1768,6.2345,6.2722,6.2345,6.2295,6.2169,6.1818,6.1768,6.1768,6.1768,6.1768,6.1768,6.1768,6.1768,6.1768,6.1768,6.124,6.0839,6.0638,6.0085,5.9709,5.9508,5.9483,5.9483,5.9483,5.9483,5.9483,5.9483,5.9483,5.9483,5.9483,5.9483,5.9483,5.9483,5.9483,5.9483,5.9483,5.9483,5.956,5.9714,5.9714,5.9817,5.9996,6.0173,6.0856,6.1666,0.0,0.0,0.0,5.2,0.0,5.2929,5.2929,5.2929,5.2929,5.2929,0.0,0.0,0.0,0.0,5.3256,5.3457,5.3783,5.3984,5.3984,5.4361,5.4486,5.4285,5.4285,5.4009,5.3457,5.3607,5.3457,5.2929,5.4034,5.6093,5.9006,6.0487,6.2546,6.4982,6.4254,6.4128,6.4329,6.1718,6.0211,5.9458,5.8353,5.7675,5.7323,5.7323,5.652,5.5465,5.6018,5.539,5.4386,5.4938,5.4863,5.4411,5.3708,5.3231,5.2678,5.1373,5.0845,5.067,5.0469,5.0569,5.1147,5.298,5.4009,5.4988,5.6671,5.8027,5.9006,5.9207,5.9985,6.0663,6.0864,6.1492,6.1918,6.1768,6.1718,6.1592,6.124,6.119,6.119,6.119,6.119,6.119,6.119,6.119,6.119,6.119,6.0638,6.0311,6.0311,5.9633,5.9232,5.9232,5.9408,5.9483,5.9483,5.9483,5.9483,5.9483,5.9483,5.9483,5.9483,5.9483,5.9483,5.9483,5.9483,5.9483,5.9483,5.9483,5.9483,5.9483,5.9483,5.9483,5.9483,5.9483,6.0211,6.119,5.0343,5.0921,5.1473,5.2026,5.2578,5.2929,5.2929,5.2929,5.2955,5.2955,0.0,0.0,0.0,0.0,0.0,5.4536,5.4587,5.4658,5.4561,5.4587,5.4336,5.3758,5.3733,5.3507,5.2955,5.3432,5.3457,5.2955,5.4034,5.6219,5.9382,5.9433,6.1743,6.581,6.3701,6.3952,6.581,6.3651,6.2772,6.2496,5.9257,5.7976,5.8102,5.9131,5.8504,5.7323,5.893,5.8453,5.7022,5.647,5.6269,5.6068,5.4938,5.3833,5.2854,5.2302,5.1724,5.1172,0.0,0.0,0.0,5.2578,5.2879,5.3607,5.6244,5.647,5.6595,5.8227,5.9006,5.9533,6.0085,6.0211,6.0387,6.0964,6.109,6.1115,6.109,6.109,6.1115,6.109,6.109,6.109,6.1115,6.1115,6.1115,6.114,6.0613,6.0286,6.0261,5.9282,5.873,5.873,5.9232,5.9483,5.9483,5.9483,5.9483,5.9483,5.9483,5.9483,5.9483,5.9508,5.9508,5.9508,5.9533,5.9533,5.9533,5.9508,5.9483,5.9483,5.9483,5.9483,5.9483,5.9483,6.0211,6.119,5.0987,5.1498,5.2051,5.2603,5.2829,5.2929,5.2929,5.3256,5.3482,0.0,0.0,0.0,5.4662,5.5189,5.5415,5.5189,5.5164,5.4988,5.4658,5.4938,5.4913,5.4361,5.4712,5.4461,5.3507,5.3632,5.3632,5.3482,5.421,5.5239,5.6545,5.7775,5.9182,6.0763,6.1366,6.1743,6.1868,6.1266,6.1266,6.1517,6.0186,5.991,6.0261,6.0136,5.9558,5.888,5.9332,5.9207,5.873,5.8202,5.775,5.7173,5.5641,5.4386,5.3381,5.2854,5.2302,5.1749,5.1197,0.0,0.0,0.0,0.0,0.0,5.2251,5.3356,5.4536,5.4988,5.5842,5.6696,5.7248,5.7349,5.7524,5.8102,5.9182,5.9684,5.8905,5.9156,5.9257,5.8855,5.8805,5.8956,5.9357,5.9408,5.9558,5.9935,5.9809,5.9558,5.9182,5.888,5.873,5.873,5.9232,5.9483,5.9483,5.9483,5.9483,5.9483,5.9483,5.9483,5.9508,5.991,6.0085,6.0111,6.0537,6.0713,6.0663,5.9834,5.9483,5.9483,5.9483,5.9483,5.9483,5.9483,6.0211,6.119,5.154,5.1875,5.2345,5.3035,5.3312,5.3463,5.3463,5.3917,5.427,0.0,0.0,0.0,5.5993,5.657,5.6796,5.647,5.6445,5.6194,5.5641,5.5892,5.5717,5.4938,5.5214,5.4963,5.4084,5.4285,5.4285,5.4059,5.4863,5.529,5.5415,5.662,5.7349,5.77,5.8905,5.9257,5.9006,5.9684,6.0311,6.0814,6.0713,6.1014,6.1542,6.1667,6.1366,6.0914,6.1165,6.109,6.0763,6.001,5.9081,5.7951,5.6269,5.529,5.4587,5.3833,5.3381,5.2955,5.2176,5.1975,5.195,5.1825,0.0,0.0,5.1774,5.2427,5.3105,5.3331,5.426,5.5214,5.5767,5.5867,5.5968,5.6294,5.7148,5.7801,5.7901,5.8177,5.8252,5.7951,5.7901,5.8102,5.8654,5.8504,5.8604,5.9131,5.8956,5.8604,5.8052,5.8478,5.8604,5.8378,5.9106,5.9483,5.9483,5.9483,5.9483,5.9483,5.9483,5.9483,5.9508,6.006,6.0311,6.0362,6.0939,6.119,6.114,6.0462,6.006,5.9834,5.9834,5.9709,5.9483,5.9483,6.0211,6.119,0.0,5.2151,5.2488,5.3402,5.396,5.4366,5.4461,5.4899,5.5163,0.0,5.5487,5.6244,5.7273,5.7851,5.8152,5.8077,5.8027,5.775,5.7173,5.7072,5.657,5.5516,5.5415,5.5139,5.4587,5.5039,5.5114,5.4737,5.5666,5.5968,5.5666,5.6043,5.6244,5.6319,5.6746,5.6947,5.7047,5.8654,5.9659,6.0286,6.1065,6.1743,6.2395,6.34,6.345,6.3073,6.3601,6.345,6.2822,6.1592,6.0136,5.8529,5.6922,5.6344,5.6093,5.5039,5.4712,5.4436,5.3381,5.3105,5.3181,5.3532,5.2528,0.0,5.313,5.2653,5.2076,5.2628,5.3457,5.4285,5.4838,5.4988,5.5039,5.5114,5.5164,5.5742,5.7298,5.7575,5.76,5.7524,5.7524,5.775,5.8303,5.7951,5.7926,5.8403,5.7976,5.7499,5.7072,5.7976,5.8328,5.7901,5.888,5.9433,5.9483,5.9483,5.9483,5.9483,5.9558,5.9583,5.9608,6.0211,6.0512,6.0537,6.1115,6.1341,6.1266,6.1266,6.0889,6.0311,6.0311,6.001,5.9583,5.9583,6.0311,6.1266,5.2497,5.2657,5.301,5.3768,5.429,5.4738,5.5369,5.574,5.6261,5.7007,5.8026,5.8956,5.9608,5.9784,5.9659,5.9232,5.8805,5.8328,5.7775,5.7298,5.6746,5.6068,5.5616,5.5139,5.4587,5.4662,5.5114,5.5892,5.5666,5.6194,5.7399,5.6595,5.6445,5.6872,5.652,5.6369,5.6445,5.7675,5.878,5.9834,6.1743,6.3099,6.4002,6.4228,6.4254,6.4153,6.4279,6.4254,6.3852,6.1843,6.0362,5.9131,5.7951,5.7248,5.6746,5.6093,5.5566,5.5089,5.4436,5.4235,5.4059,5.3281,5.2829,0.0,5.1875,5.1222,5.0921,5.1473,5.1398,5.1398,5.1975,5.2452,5.2904,5.3331,5.3758,5.431,5.5114,5.5591,5.5717,5.5265,5.5214,5.544,5.5993,5.6344,5.6595,5.6696,5.6595,5.6696,5.7022,5.7248,5.7524,5.7901,5.8529,5.9081,5.9483,5.9483,5.9483,5.9508,5.996,6.0161,6.0186,6.1215,6.1667,6.1718,6.227,6.2245,6.1843,6.1843,6.124,6.0311,6.0311,6.0261,6.0161,6.0161,6.0864,6.1843,5.2767,5.3002,5.3341,5.3682,5.4619,5.5462,5.6028,5.6798,5.7594,5.8374,5.9286,6.001,6.0286,6.0311,6.0085,5.9533,5.9257,5.888,5.8353,5.7775,5.7223,5.6646,5.6093,5.5792,5.5792,5.5516,5.5792,5.662,5.6068,5.6219,5.7047,5.647,5.652,5.7022,5.647,5.652,5.7123,5.8227,5.9156,6.0085,6.2044,6.3475,6.4505,6.4781,6.5057,6.5258,6.4982,6.4881,6.463,6.2973,6.1868,6.0914,5.9533,5.873,5.8152,5.7625,5.7072,5.652,5.5942,5.5792,5.5591,5.4762,5.4361,0.0,0.0,5.2277,5.1975,5.1749,5.1674,5.1749,5.2051,5.2327,5.2603,5.2879,5.3155,5.3406,5.3708,5.4461,5.4888,5.4587,5.4561,5.4787,5.534,5.539,5.5491,5.5792,5.5792,5.6043,5.6595,5.6872,5.7298,5.7876,5.8428,5.8981,5.9483,5.9483,5.9633,5.991,6.0186,6.0462,6.0788,6.1617,6.1994,6.2044,6.2596,6.2672,6.2421,6.2421,6.1918,6.114,6.0864,6.0563,6.0362,6.0638,6.1291,6.1994,5.3103,5.341,5.364,5.381,5.5134,5.63,5.6932,5.7805,5.8654,5.944,5.9992,6.0412,6.0613,6.0437,6.0236,5.9985,5.9684,5.9408,5.9207,5.8478,5.7801,5.7223,5.6771,5.6696,5.7022,5.6595,5.6696,5.7374,5.6696,5.647,5.6696,5.647,5.6671,5.7173,5.662,5.6997,5.8127,5.9081,5.9885,6.0638,6.232,6.3525,6.4379,6.5032,6.5559,6.5911,6.5559,6.5308,6.4982,6.4028,6.3249,6.2421,6.0939,6.0186,5.9684,5.9056,5.8554,5.8052,5.7374,5.7273,5.7198,5.6545,5.6043,5.5415,0.0,0.0,0.0,5.2452,5.2528,5.2729,5.2628,5.2703,5.2779,5.2779,5.2854,5.2929,5.2929,5.3683,5.4235,5.4235,5.4235,5.4436,5.4863,5.4511,5.4561,5.534,5.529,5.5516,5.6168,5.6746,5.7298,5.7876,5.8428,5.8981,5.9483,5.9608,5.9885,6.0311,6.0537,6.0889,6.1366,6.1918,6.2169,6.2195,6.2621,6.2772,6.2672,6.2672,6.2345,6.1818,6.1466,6.1065,6.0713,6.1165,6.1692,6.2169,5.3835,5.3929,5.4218,5.5073,5.5853,5.7055,5.8804,5.8683,5.8857,6.0013,6.0236,6.0688,6.1692,6.0914,6.0688,6.1642,6.0362,5.9885,6.0839,5.9483,5.8378,5.7826,5.775,5.7499,5.7047,5.6972,5.7474,5.8529,5.7474,5.7449,5.8403,5.7399,5.7248,5.7775,5.7198,5.7575,5.8654,5.9257,6.0111,6.124,6.2923,6.3676,6.3877,6.4906,6.5333,6.5434,6.586,6.5383,6.4479,6.3877,6.2973,6.1969,6.1291,6.104,6.0788,5.9709,5.9357,5.9106,5.8077,5.8152,5.8278,5.7198,5.6897,5.657,5.544,0.0,5.3532,5.2955,0.0,5.2051,5.1548,0.0,0.0,5.2201,5.2603,5.2929,5.2929,5.303,5.3105,5.3105,5.3105,5.313,5.3206,5.3155,5.3733,5.5265,5.4938,5.5114,5.6168,5.6746,5.7298,5.7876,5.8428,5.8981,5.9483,5.9985,6.0261,6.0337,6.1341,6.1843,6.1943,6.2471,6.2747,6.2747,6.2797,6.2546,6.2094,6.2094,6.1768,6.1316,6.1743,6.1868,6.1818,6.1893,6.227,6.2747,5.3997,5.4174,5.4354,5.4671,5.5695,5.6836,5.7729,5.9029,6.0048,6.0506,6.0725,6.1479,6.3097,6.1508,6.0968,6.275,6.14,6.0537,6.0663,5.9734,5.893,5.8403,5.8077,5.7926,5.8027,5.7374,5.7424,5.8252,5.7123,5.6796,5.7273,5.7097,5.7349,5.7901,5.7976,5.8629,5.9659,5.9885,6.0613,6.1718,6.2421,6.2898,6.3375,6.5107,6.576,6.5785,6.6036,6.581,6.5283,6.4429,6.3827,6.3274,6.2421,6.1918,6.1492,6.0713,6.0487,0.0,5.9508,5.9709,5.996,5.9131,5.8704,5.8177,5.7097,5.5968,5.5013,5.4461,0.0,0.0,0.0,0.0,0.0,0.0,5.298,5.2929,5.2929,5.2929,5.2929,5.2929,5.2929,5.2929,5.2929,5.2929,5.3482,5.4813,5.4687,5.5039,5.6143,5.6746,5.7298,5.7876,5.8428,5.9131,5.996,6.0211,6.0638,6.1316,6.1768,6.2169,6.2496,6.2722,6.2822,6.2822,6.2822,6.2697,6.2471,6.2471,6.2345,6.2169,6.2395,6.2295,6.2044,6.237,6.2621,6.2822,5.42,5.4376,5.4489,5.449,5.5662,5.6727,5.7265,5.8905,6.0227,6.0508,6.0553,6.1403,6.3767,6.2244,6.1873,6.4298,6.3067,6.1843,6.1291,6.0437,5.9659,5.8956,5.8554,5.8529,5.893,5.7851,5.7625,5.8328,5.7223,5.6746,5.6897,5.7298,5.7725,5.8152,5.8704,5.9533,6.0563,6.0713,6.1341,6.2245,6.2395,6.2797,6.345,6.4906,6.5634,6.5886,6.5886,6.5886,6.5735,6.4781,6.4379,6.4078,6.3124,6.2546,6.2119,6.1567,0.0,0.0,6.0713,6.0964,6.1266,6.0688,6.0261,5.9684,5.8579,5.77,5.6872,5.6018,5.5516,0.0,0.0,0.0,5.3884,5.3733,0.0,5.308,5.2955,5.2929,5.2929,5.2929,5.2929,5.2929,5.2929,5.2929,5.3306,5.426,5.4486,5.4988,5.5942,5.6796,5.7474,5.7876,5.8579,5.9307,6.0085,6.0412,6.0964,6.1793,6.2094,6.2446,6.2822,6.2822,6.2822,6.2822,6.2822,6.2822,6.2822,6.2822,6.2822,6.2822,6.2822,6.2571,6.227,6.2672,6.2822,6.2822,5.4965,5.4738,5.4557,5.4834,5.5977,5.719,5.8549,5.8203,5.8372,5.9896,5.9311,6.0035,6.3382,6.3124,6.3852,6.6614,6.5333,6.4153,6.3626,6.2044,6.0638,5.9508,5.9458,5.9458,5.9458,5.8428,5.8378,5.9433,5.8378,5.8127,5.8629,5.8654,5.8679,5.8704,5.9232,6.0085,6.119,6.1718,6.2295,6.2847,6.34,6.3952,6.4354,6.3927,6.4404,6.5308,6.5308,6.5308,6.5233,6.4655,6.4128,6.3626,6.3023,6.2822,6.2697,6.2144,6.1969,6.1868,6.1316,6.1567,6.1843,6.1291,6.114,6.0839,5.9709,5.9408,5.893,5.7323,5.6972,5.662,5.5566,5.4913,0.0,0.0,5.3683,0.0,0.0,5.2929,5.2929,5.2929,5.2929,5.2929,5.2929,5.2929,5.3155,5.3683,5.4235,5.4813,5.539,5.6972,5.7876,5.7901,5.893,5.9483,5.9533,6.0613,6.1165,6.1215,6.2295,6.2822,6.2822,6.2822,6.2822,6.2822,6.2822,6.2822,6.2822,6.2822,6.2822,6.2822,6.2822,6.2822,6.2797,6.2822,6.2822,6.2822,5.5434,5.5148,5.4817,5.516,5.5751,5.6529,5.7532,5.7666,5.8576,6.1247,6.184,6.3647,6.7959,6.7338,6.7555,6.9977,6.8348,6.6513,6.4856,6.355,6.2169,6.0688,5.9885,5.9659,6.0035,5.8981,5.8629,5.8981,5.8252,5.8001,5.8177,5.8554,5.873,5.8755,5.9633,6.0462,6.119,6.1391,6.1994,6.2847,6.3048,6.3651,6.4454,6.4279,6.4429,6.4756,6.4756,6.4756,6.4655,6.4128,6.3827,6.3576,6.2998,6.2822,6.2722,6.2169,6.227,6.2421,6.1868,6.2421,6.2898,6.1969,6.1994,6.1969,6.0864,6.0613,6.0337,5.9408,5.8905,5.8453,5.7725,5.652,0.0,0.0,0.0,5.3632,0.0,5.313,5.2929,5.2929,5.2929,5.2929,5.2929,5.2929,5.313,5.3658,5.4235,5.4813,5.5365,5.6997,5.7901,5.7901,5.893,5.9859,6.0613,6.0989,6.1542,6.227,6.2647,6.2822,6.2822,6.2822,6.2822,6.2822,6.2822,6.2822,6.2822,6.2822,6.2822,6.2822,6.2822,6.2822,6.2822,6.2822,6.2822,6.2822,5.5737,5.5346,5.5022,5.5365,5.5278,5.5589,5.6726,5.7597,5.9236,6.2089,6.3685,6.6218,7.0438,7.0064,7.027,7.2302,7.0991,6.8798,6.5785,6.5308,6.4053,6.1592,6.0788,6.0563,6.0914,5.9483,5.8805,5.9006,5.8453,5.8278,5.8478,5.883,5.8905,5.878,5.9834,6.0537,6.0914,6.1291,6.1994,6.2822,6.2822,6.3249,6.3877,6.3877,6.4254,6.4705,6.4329,6.4304,6.4404,6.4078,6.3852,6.3626,6.3249,6.2998,6.2772,6.2395,6.2546,6.2747,6.2395,6.2973,6.3525,6.2797,6.3023,6.3124,6.2019,6.1943,6.1793,6.0814,6.0337,5.9885,5.9131,5.7801,0.0,0.0,0.0,0.0,0.0,5.313,5.2929,5.2929,5.2929,5.2929,5.2929,5.2929,5.3055,5.3406,5.4135,5.4712,5.5089,5.6872,5.7901,5.7901,5.9131,6.0136,6.0864,6.1266,6.1843,6.2546,6.2747,6.2822,6.2822,6.2822,6.2822,6.2822,6.2822,6.2822,6.2822,6.2822,6.2822,6.2822,6.2822,6.2822,6.2822,6.2822,6.2822,6.2822,5.583,5.5569,5.5252,5.5339,5.4679,5.4655,5.6252,5.8114,6.0124,6.2429,6.4857,6.7618,7.0932,7.1309,7.1962,7.3569,7.3192,7.1033,6.6714,6.7367,6.6237,6.2446,6.2195,6.2119,6.2094,5.9985,0.0,5.9533,5.8981,5.8981,5.9483,5.9458,5.9207,5.8805,5.9834,6.0311,6.0437,6.1517,6.2295,6.2822,6.2822,6.2873,6.2898,6.2847,6.3827,6.5107,6.4028,6.3977,6.4379,6.4379,6.4053,6.3651,6.3651,6.3274,6.2822,6.2822,6.2847,6.2873,6.2847,6.3274,6.3726,6.3676,6.4053,6.4153,6.3073,6.3274,6.3224,6.1592,6.1266,6.0914,5.9784,5.8704,5.76,0.0,0.0,0.0,0.0,5.2955,5.2955,5.2929,5.2929,5.2929,5.2929,5.2929,5.2929,5.2929,5.3909,5.4536,5.4612,5.6671,5.7901,5.7976,5.9508,6.0337,6.0412,6.1466,6.2019,6.2044,6.2571,6.2822,6.2822,6.2822,6.2822,6.2822,6.2822,6.2822,6.2822,6.2822,6.2822,6.2822,6.2822,6.2822,6.2822,6.2822,6.2822,6.2822,5.6379,5.6798,5.6626,5.5395,5.534,5.5572,5.602,5.8801,6.1804,6.4302,6.7656,7.0932,7.3845,7.4548,7.495,7.5377,7.4925,7.3594,7.1184,7.0154,6.8648,6.6413,6.4731,6.3651,6.3274,6.1893,6.0814,6.0111,5.9558,5.9357,5.9483,5.9106,5.9056,5.9307,5.9583,6.0186,6.0989,6.1266,6.1943,6.2822,6.2822,6.3324,6.3952,6.3149,6.3601,6.453,6.345,6.3149,6.3249,6.3249,6.3149,6.3048,6.3048,6.2948,6.2822,6.2822,6.3124,6.3375,6.2948,6.3525,6.4078,6.3249,6.3475,6.3701,6.2998,6.3274,6.345,6.2596,6.2395,6.2069,6.0939,5.9834,5.873,0.0,0.0,0.0,0.0,5.3507,5.3356,5.298,5.2929,5.2929,5.2929,5.2929,5.2929,5.2929,5.3557,5.4285,5.5139,5.6495,5.7826,5.9056,5.9885,6.0713,6.1567,6.1868,6.222,6.2621,6.2772,6.2822,6.2822,6.2822,6.2822,6.2822,6.2822,6.2822,6.2822,6.2822,6.2822,6.2822,6.2822,6.2822,6.2822,6.2822,6.2822,6.2822,5.6382,5.7172,5.7429,5.627,5.7461,5.8327,5.7615,5.9947,6.2697,6.4966,6.8673,7.1686,7.3242,7.5,7.6055,7.6055,7.5778,7.4674,7.2514,7.1962,7.0556,6.7919,6.6363,6.5082,6.4053,6.2471,0.0,5.996,5.9408,5.9031,5.8805,5.8755,5.8755,5.883,5.9533,6.0211,6.0839,6.1592,6.227,6.2822,6.2822,6.3199,0.0,6.3048,6.3224,6.3676,6.3048,6.2822,6.2873,6.3124,6.3048,6.2873,6.3124,6.3023,6.2822,6.2822,6.3048,6.3249,6.2923,6.3475,6.3977,6.335,6.3626,6.3877,6.3324,6.345,6.3525,6.2948,6.2822,6.2571,6.1692,6.0814,5.9734,0.0,0.0,0.0,0.0,5.4436,5.4235,5.3708,5.3406,5.3256,5.3256,5.3055,5.2929,5.2929,5.3406,5.4084,5.4988,5.6294,5.7675,5.9106,6.0161,6.1115,6.1994,6.2245,6.2521,6.2822,6.2822,6.2822,6.2822,6.2822,6.2822,6.2822,6.2822,6.2822,6.2822,6.2822,6.2822,6.2822,6.2822,6.2822,6.2822,6.2822,6.2822,6.2822,5.628,5.7403,5.8063,5.7554,6.0242,6.1994,6.0544,6.2129,6.4042,6.582,6.9376,7.1736,7.1736,7.4322,7.6055,7.6055,7.6055,7.5,7.2514,7.3192,7.2138,6.8597,6.7719,6.6513,6.4831,6.2647,6.0889,0.0,5.9006,5.8478,5.8001,5.8428,5.8428,5.8177,5.9583,6.0286,6.0537,6.2069,6.2772,6.2822,6.2822,6.2822,6.2822,6.2822,6.2822,6.2822,6.2822,6.2822,6.2898,6.34,6.3249,6.2923,6.3425,6.3224,6.2822,6.2822,6.2873,6.2948,6.2948,6.3299,6.3701,6.3701,6.3977,6.4128,6.3676,6.3576,6.3425,6.2923,6.2822,6.2672,6.2094,6.1492,6.0412,0.0,0.0,5.6872,5.5767,5.5591,0.0,0.0,5.4235,0.0,5.3708,5.3231,5.2929,5.2929,5.3356,5.3909,5.4637,5.6118,5.7549,5.888,6.0387,6.1492,6.2094,6.2596,6.2822,6.2822,6.2822,6.2822,6.2822,6.2822,6.2822,6.2822,6.2822,6.2822,6.2822,6.2822,6.2822,6.2822,6.2822,6.2822,6.2822,6.2822,6.2822,6.2822,5.7199,5.8739,5.9414,5.8221,6.1479,6.4328,6.4848,6.7389,6.951,7.0044,7.3042,7.5176,7.5176,7.5703,7.6055,7.6055,7.6055,7.5653,7.4724,7.4423,7.3544,7.1937,7.0029,6.8246,6.6564,6.4379,6.2245,0.0,5.9207,5.8679,5.8579,5.8202,5.8453,5.9232,5.9508,6.0161,6.109,6.1843,6.2421,6.2822,6.2822,6.2822,6.2822,6.2822,6.2822,6.2822,6.2822,6.2822,6.2847,6.2948,6.2923,6.2847,6.2948,6.2898,6.2822,6.2822,6.3174,6.3525,6.3525,6.3626,6.3701,6.3701,6.34,6.3099,6.2998,6.2973,6.2948,6.2847,6.2822,6.2672,6.2094,6.1165,6.0186,5.9357,5.8755,5.8001,5.6897,5.6746,0.0,0.0,0.0,5.4737,5.3783,5.3231,5.2929,5.2929,5.3005,5.3708,5.5164,5.5942,5.7474,5.996,6.0788,6.1667,6.2672,6.2772,6.2822,6.2822,6.2822,6.2822,6.2822,6.2822,6.2822,6.2822,6.2822,6.2822,6.2822,6.2822,6.2822,6.2822,6.2822,6.2822,6.2822,6.2822,6.2822,6.2822,5.8089,5.9045,5.9913,6.038,6.3648,6.6747,6.8385,7.1217,7.2501,7.0949,7.2539,7.3795,7.3519,7.5025,7.5929,7.5653,7.5628,7.5402,7.4849,7.4021,7.3167,7.2339,7.0204,6.8371,6.7015,6.453,6.2295,6.0311,5.8956,5.8127,5.7851,5.7876,5.8328,5.9106,5.9684,6.0537,6.1617,6.1893,6.232,6.2822,6.2822,6.2822,6.2822,6.2822,6.2822,6.2822,6.2822,6.2822,6.2822,6.2822,6.2822,6.2822,6.2822,6.2822,6.2822,6.2822,6.3023,6.3249,6.3249,6.3249,6.3249,6.3249,6.3023,6.2822,6.2822,6.2822,6.2822,6.2822,6.2822,6.2747,6.2471,6.1768,6.1115,6.0839,6.0085,5.9232,5.8428,5.8077,5.76,0.0,0.0,0.0,5.5064,5.426,5.3658,5.3356,5.3331,5.3934,5.5315,5.6194,5.765,5.9834,6.0738,6.1718,6.2822,6.2822,6.2822,6.2822,6.2822,6.2822,6.2822,6.2822,6.2822,6.2822,6.2822,6.2822,6.2822,6.2822,6.2822,6.2822,6.2822,6.2822,6.2822,6.2822,6.2822,6.2822,5.9441,5.9944,6.0913,6.2991,6.6052,6.8928,7.0673,7.3268,7.4197,7.1811,7.2138,7.2439,7.2012,7.4197,7.5527,7.5101,7.5075,7.4774,7.4096,7.3217,7.2439,7.1761,6.9727,6.817,6.7166,6.4429,6.2195,6.0512,5.8855,5.7826,5.7399,5.775,5.8303,5.9106,6.006,6.1065,6.1994,6.1994,6.232,6.2822,6.2822,6.2822,6.2822,6.2822,6.2822,6.2822,6.2822,6.2822,6.2822,6.2822,6.2822,6.2822,6.2822,6.2822,6.2822,6.2822,6.2822,6.2847,6.2973,6.2998,6.3048,6.3149,6.3174,6.3149,6.3048,6.2998,6.2973,6.2847,6.2822,6.2822,6.2822,6.2471,6.2144,6.2019,6.1266,6.0487,5.9935,5.9508,5.8981,0.0,0.0,0.0,5.6269,5.5415,5.4687,5.411,5.3959,5.4336,5.534,5.6445,5.7801,5.9433,6.0588,6.1718,6.2822,6.2822,6.2822,6.2822,6.2822,6.2822,6.2822,6.2822,6.2822,6.2822,6.2822,6.2822,6.2822,6.2822,6.2822,6.2822,6.2822,6.2822,6.2822,6.2822,6.2898,6.2998,6.1762,6.2861,6.4005,6.5351,6.8358,7.0483,7.0396,7.2715,7.4749,7.5427,7.5176,7.49,7.4849,7.4674,7.4548,7.4498,7.4498,7.4046,7.2966,7.2791,7.2263,7.1209,6.9526,6.8346,6.7744,6.5032,6.2797,6.1115,5.9433,5.8579,5.8554,5.8102,5.8704,6.0186,6.0814,6.1441,6.1994,6.1994,6.232,6.2822,6.2822,6.2822,6.2822,6.2822,6.2822,6.2822,6.2822,6.2822,6.2822,6.2822,6.2822,6.2822,6.2822,6.2822,6.2822,6.2822,6.2822,6.2948,6.3475,6.3626,6.3726,6.4203,6.4304,6.4178,6.3726,6.3626,6.345,6.2948,6.2822,6.2822,6.2822,6.2797,6.2596,6.2094,6.1918,6.1642,6.1115,6.0989,6.0537,5.9483,0.0,0.0,5.6394,5.6118,5.5817,5.5265,5.4762,5.4737,5.5365,5.6445,5.7801,5.9433,6.0588,6.1718,6.2822,6.2822,6.2822,6.2822,6.2822,6.2822,6.2822,6.2822,6.2822,6.2822,6.2822,6.2822,6.2822,6.2822,6.2822,6.2822,6.2822,6.2822,6.2822,6.2822,6.3149,6.3626,6.336,6.3676,6.4569,6.7075,6.894,7.0513,7.2012,7.3494,7.4573,7.5,7.4875,7.4749,7.4749,7.4548,7.4272,7.3946,7.392,7.3569,7.2791,7.2113,7.1535,7.1108,6.9175,6.802,6.7794,6.5107,6.3023,6.1667,5.9985,5.9006,5.8704,5.8504,5.9081,6.0337,6.0914,6.1492,6.1994,6.1994,6.232,6.2822,6.2822,6.2822,6.2822,6.2822,6.2822,6.2822,6.2822,6.2822,6.2822,6.2822,6.2822,6.2822,6.2822,6.2822,6.2822,6.2822,6.2822,6.2873,6.3099,6.3425,6.3751,6.3952,6.4002,6.3952,6.3751,6.3425,6.3099,6.2873,6.2822,6.2822,6.2822,6.2822,6.2747,6.2546,6.222,6.1943,6.1718,6.1391,0.0,6.0085,0.0,5.9031,5.7826,5.7097,5.662,5.6394,5.5566,5.544,5.6319,5.7449,5.8654,5.996,6.109,6.2044,6.2822,6.2822,6.2822,6.2822,6.2822,6.2822,6.2822,6.2822,6.2822,6.2822,6.2822,6.2822,6.2822,6.2822,6.2822,6.2822,6.2822,6.2822,6.2822,6.2822,6.2973,6.3224,6.462,6.4907,6.5785,6.8622,6.9551,7.0631,7.2765,7.3418,7.3745,7.3895,7.392,7.3996,7.4146,7.4021,7.377,7.3368,7.3343,7.3016,7.2288,7.151,7.0857,7.038,6.8723,6.7719,6.7568,6.5157,6.345,6.2496,6.0638,5.9558,5.9182,5.9182,5.9583,6.0337,6.0914,6.1391,6.1768,6.1943,6.222,6.2596,6.2772,6.2822,6.2822,6.2822,6.2822,6.2822,6.2822,6.2822,6.2822,6.2822,6.2822,6.2822,6.2822,6.2822,6.2822,6.2822,6.2822,6.2822,6.2822,6.3375,6.3877,6.3726,6.3927,6.4078,6.3776,6.3375,6.3023,6.2873,6.2822,6.2822,6.2822,6.2822,6.2822,6.2822,6.2496,6.2245,6.2245,6.1918,0.0,6.0889,6.0462,5.996,5.9257,5.8328,5.77,5.7549,5.6671,5.6394,5.6997,5.8252,5.9357,6.0286,6.1416,6.227,6.2822,6.2822,6.2822,6.2822,6.2822,6.2822,6.2822,6.2822,6.2822,6.2822,6.2822,6.2822,6.2822,6.2822,6.2822,6.2822,6.2822,6.2822,6.2822,6.2822,6.2923,6.3149,6.576,6.699,6.8271,6.9953,7.0706,7.1259,7.1836,7.1937,7.2138,7.269,7.274,7.2966,7.3544,7.3092,7.274,7.274,7.274,7.2288,7.1184,7.1083,7.0355,6.8723,6.8095,6.7543,6.699,6.5333,6.4203,6.3676,6.1416,6.0311,6.0311,6.0311,6.0311,6.0337,6.0914,6.119,6.124,6.1768,6.1994,6.2069,6.2596,6.2822,6.2822,6.2822,6.2822,6.2822,6.2822,6.2822,6.2822,6.2822,6.2822,6.2822,6.2822,6.2822,6.2822,6.2822,6.2822,6.2822,6.2822,6.3626,6.4329,6.3827,6.4479,6.4982,6.3927,6.3676,6.3525,6.2948,6.2822,6.2822,6.2822,6.2822,6.2822,6.2822,6.2822,6.2822,6.2822,6.2822,0.0,6.2044,6.1969,6.1542,6.0412,5.9784,5.9257,5.873,5.8177,5.7625,5.7072,5.8604,5.9734,6.0311,6.1416,6.227,6.2822,6.2822,6.2822,6.2822,6.2822,6.2822,6.2822,6.2822,6.2822,6.2822,6.2822,6.2822,6.2822,6.2822,6.2822,6.2822,6.2822,6.2822,6.2822,6.2822,6.3199,6.3676,6.7091,6.7869,6.8773,7.0029,7.0405,7.0706,7.1259,7.1334,7.141,7.1585,7.1937,7.2238,7.2414,7.2615,7.274,7.274,7.2389,7.2012,7.1661,7.0932,7.0129,6.9225,6.8296,6.7367,6.6413,6.5132,6.4028,6.3099,6.1994,6.1065,6.0311,6.0311,6.0311,6.0337,6.0914,6.1391,6.1768,6.1943,6.222,6.2571,6.2747,6.2822,6.2822,6.2822,6.2822,6.2822,6.2822,6.2822,6.2822,6.2822,6.2822,6.2822,6.2822,6.2822,6.2822,6.2822,6.2822,6.2822,6.2822,6.3375,6.3902,6.3726,6.3952,6.4103,6.3776,6.34,6.3048,6.2873,6.2822,6.2822,6.2822,6.2822,6.2822,6.2822,6.2822,6.2822,6.2822,6.2822,6.2621,6.2069,6.1994,6.1718,6.0989,6.0387,5.9834,5.9282,5.9433,5.9307,5.873,5.9558,6.0487,6.1441,6.2195,6.2647,6.2822,6.2822,6.2822,6.2822,6.2822,6.2822,6.2822,6.2822,6.2822,6.2822,6.2822,6.2822,6.2822,6.2822,6.2822,6.2873,6.3249,6.3425,6.345,6.3802,6.4053,6.4228,6.7995,6.8547,6.915,6.9828,6.9953,7.0129,7.0681,7.0782,7.0857,7.1058,7.1384,7.1585,7.1585,7.1912,7.2188,7.2389,7.1912,7.151,7.1309,7.0455,6.9627,6.8848,6.797,6.7066,6.6137,6.5032,6.4128,6.345,6.2471,6.1542,6.0638,6.0638,6.0638,6.0663,6.1014,6.1366,6.1718,6.1918,6.2195,6.2546,6.2747,6.2697,6.2521,6.2521,6.2521,6.2521,6.2521,6.2647,6.2822,6.2822,6.2822,6.2822,6.2822,6.2822,6.2822,6.2822,6.2822,6.2822,6.2822,6.3249,6.3651,6.3425,6.3525,6.3626,6.3425,6.3099,6.2822,6.2822,6.2822,6.2822,6.2822,6.2822,6.2822,6.2822,6.2822,6.2822,6.2822,6.2822,6.2697,6.2345,6.232,6.2169,6.1843,6.1291,6.0814,6.0462,6.0563,6.0588,6.0437,6.0763,6.1266,6.1994,6.2546,6.2822,6.2822,6.2822,6.2822,6.2822,6.2822,6.2822,6.2822,6.2822,6.2948,6.3149,6.3149,6.3249,6.345,6.345,6.345,6.3475,6.3827,6.3977,6.4028,6.4354,6.4454,6.4429,6.8522,6.9074,6.9361,6.9361,6.9361,6.9627,7.0129,7.0204,7.038,7.0907,7.1008,7.1033,7.1033,7.1033,7.1234,7.1761,7.1309,7.0782,7.0229,6.9702,6.8899,6.7794,6.7241,6.6689,6.6061,6.5007,6.4429,6.4354,6.2772,6.1743,6.124,6.119,6.119,6.119,6.119,6.1215,6.1266,6.1793,6.2019,6.2094,6.2621,6.2521,6.2069,6.2069,6.2069,6.2069,6.2069,6.2395,6.2822,6.2822,6.2822,6.2822,6.2822,6.2822,6.2822,6.2822,6.2822,6.2822,6.2822,6.3224,6.35,6.2973,6.3224,6.35,6.2948,6.2822,6.2822,6.2822,6.2822,6.2822,6.2822,6.2822,6.2822,6.2822,6.2822,6.2822,6.2822,6.2822,6.2822,6.2822,6.2822,6.2822,6.2822,6.237,6.2044,6.1994,6.1567,6.1492,6.1994,6.2094,6.2094,6.2069,6.2546,6.2847,6.2898,6.2898,6.2898,6.2948,6.2948,6.2948,6.2948,6.2948,6.3224,6.3751,6.3751,6.4028,6.4454,6.4454,6.4454,6.4454,6.4505,6.453,6.453,6.4555,6.458,6.4505,6.8597,6.9074,6.9361,6.9361,6.9361,6.9501,6.9627,6.9627,6.9677,6.9828,7.0204,7.0455,7.0455,7.0455,7.0506,7.0631,7.0531,7.0229,6.9677,6.9125,6.8321,6.7216,6.7041,6.6513,6.5509,6.4806,6.4053,6.3224,6.2395,6.1943,6.1793,6.1391,6.119,6.119,6.119,6.1416,6.1818,6.1943,6.2245,6.2647,6.2772,6.2747,6.2621,6.2621,6.2621,6.2621,6.2621,6.2722,6.2822,6.2822,6.2822,6.2822,6.2822,6.2822,6.2822,6.2822,6.2822,6.2822,6.2822,6.2923,6.2998,6.2873,6.2923,6.2998,6.2873,6.2822,6.2822,6.2822,6.2822,6.2822,6.2822,6.2822,6.2822,6.2822,6.2822,6.2822,6.2822,6.2822,6.2822,6.2822,6.2822,6.2822,6.2822,6.2722,6.2446,6.2044,6.227,6.232,6.2019,6.2822,6.3099,6.2647,6.2772,6.3048,6.3475,6.3475,6.3676,6.4078,6.4078,6.4078,6.4078,6.4078,6.4153,6.4279,6.4279,6.4354,6.4454,6.4454,6.4454,6.4505,6.4931,6.5082,6.5157,6.5559,6.5735,6.571,6.8899,6.925,6.9361,6.9361,6.9361,6.9361,6.9361,6.9361,6.9361,6.9361,6.9702,6.9878,6.9878,6.9878,6.9878,6.9878,6.9652,6.9376,6.91,6.8321,6.7593,6.7015,6.6488,6.5911,6.5308,6.4505,6.3701,6.2822,6.2521,6.2395,6.237,6.2069,6.1943,6.1943,6.1943,6.2094,6.2395,6.2395,6.2546,6.2822,6.2822,6.2672,6.2446,6.2446,6.2446,6.2446,6.2446,6.2621,6.2822,6.2822,6.2822,6.2822,6.2822,6.2822,6.2822,6.2822,6.2822,6.2822,6.2822,6.2822,6.2822,6.2822,6.2822,6.2822,6.2822,6.2822,6.2822,6.2822,6.2822,6.2822,6.2822,6.2822,6.2822,6.2822,6.2822,6.2822,6.2822,6.2822,6.2822,6.2822,6.2822,6.2923,6.3199,6.3224,6.3099,6.2797,6.3274,6.335,6.2797,6.3576,6.3802,6.3249,6.345,6.3726,6.4053,6.4053,6.4178,6.4454,6.4454,6.4454,6.4454,6.4454,6.4605,6.4856,6.4856,6.4982,6.5208,6.5208,6.5208,6.5258,6.5534,6.566,6.571,6.6011,6.6112,6.6086,6.925,6.9361,6.9361,6.9361,6.9361,6.9361,6.9361,6.9361,6.9401,6.9325,6.9325,6.9325,6.9325,6.9325,6.9351,6.9336,6.8874,6.8497,6.8497,6.7543,6.689,6.6739,6.5886,6.5333,6.5157,6.4203,6.34,6.2822,6.2822,6.2822,6.2822,6.2822,6.2822,6.2822,6.2822,6.2822,6.2822,6.2822,6.2822,6.2822,6.2822,6.2546,6.2119,6.2119,6.2119,6.2119,6.2119,6.2421,6.2822,6.2822,6.2822,6.2822,6.2822,6.2822,6.2822,6.2822,6.2822,6.2822,6.2822,6.2822,6.2822,6.2822,6.2898,6.2948,6.2948,6.2948,6.2948,6.2948,6.2898,6.2822,6.2822,6.2822,6.2822,6.2822,6.2822,6.2822,6.2822,6.2822,6.2822,6.2822,6.2898,6.3149,6.3651,6.3751,6.3802,6.3802,6.4228,6.4279,6.3827,6.4304,6.4379,6.3952,6.4279,6.4505,6.458,6.468,6.4705,6.4705,6.4705,6.4705,6.4705,6.4705,6.4982,6.5409,6.5409,6.5685,6.6112,6.6112,6.6112,6.6112,6.6112,6.6112,6.6112,6.6112,6.6112,6.6036,6.9325,6.9361,6.9361,6.9361,6.9361,6.9361,6.9361,6.9361,6.9275,6.8798,6.8748,6.8748,6.8748,6.8748,6.8949,6.9401,6.8522,6.7919,6.7919,6.7317,6.6538,6.5584,6.5835,6.5534,6.4605,6.4002,6.34,6.2822,6.2822,6.2822,6.2822,6.2822,6.2822,6.2822,6.2822,6.2822,6.2822,6.2822,6.2822,6.2822,6.2822,6.2772,6.2697,6.2697,6.2697,6.2697,6.2697,6.2747,6.2822,6.2822,6.2822,6.2822,6.2822,6.2822,6.2822,6.2822,6.2822,6.2822,6.2822,6.2822,6.2822,6.2822,6.3199,6.355,6.355,6.355,6.355,6.355,6.3174,6.2822,6.2822,6.2822,6.2822,6.2822,6.2822,6.2822,6.2822,6.2822,6.2822,6.2822,6.3249,6.3601,6.3676,6.4078,6.4354,6.4354,6.4429,6.4429,6.4354,6.4856,6.5132,6.5032,6.468,6.468,6.5157,6.5634,6.586,6.586,6.586,6.586,6.586,6.586,6.5911,6.5986,6.5986,6.6036,6.6112,6.6112,6.6112,6.6112,6.6112,6.6112,6.6112,6.6112,6.6112,6.6112,6.9225,6.92,6.91,6.9311,6.9361,6.9361,6.9361,6.9361,6.9351,6.91,6.9074,6.9074,6.9074,6.9074,6.9175,6.9426,6.8698,6.8246,6.8246,6.7141,6.6287,6.576,6.5409,6.4705,6.3601,6.335,6.3099,6.2822,6.2822,6.2822,6.2822,6.2822,6.2822,6.2822,6.2822,6.2822,6.2822,6.2822,6.2822,6.2822,6.2822,6.2822,6.2822,6.2822,6.2822,6.2822,6.2822,6.2822,6.2822,6.2822,6.2822,6.2822,6.2822,6.2822,6.2822,6.2822,6.2822,6.2898,6.3199,6.3299,6.335,6.3626,6.3902,6.4103,6.4103,6.4103,6.4103,6.4103,6.3676,6.3299,6.3299,6.3048,6.2822,6.2822,6.2822,6.2822,6.2822,6.2822,6.2948,6.3249,6.3525,6.3927,6.4505,6.4781,6.4906,6.4906,6.5183,6.5233,6.4931,6.5434,6.5735,6.5735,6.5484,6.5484,6.5735,6.5986,6.6112,6.6112,6.6112,6.6112,6.6112,6.6112,6.6112,6.6112,6.6112,6.6112,6.6112,6.6112,6.6112,6.6112,6.6112,6.6112,6.6112,6.6112,6.6112,6.6112,6.9175,6.91,6.8949,6.9376,6.9361,6.9361,6.9361,6.9361,6.9401,6.9275,6.925,6.925,6.925,6.925,6.93,6.9336,6.8823,6.8422,6.8422,6.6965,6.6061,6.5936,6.4731,6.3751,6.3048,6.2898,6.2822,6.2822,6.2822,6.2822,6.2822,6.2822,6.2822,6.2822,6.2822,6.2822,6.2822,6.2822,6.2822,6.2822,6.2822,6.2822,6.2822,6.2822,6.2822,6.2822,6.2822,6.2822,6.2822,6.2822,6.2822,6.2822,6.2822,6.2923,6.3023,6.3023,6.3124,6.3299,6.3751,6.3877,6.3977,6.4354,6.4555,6.4655,6.4655,6.4655,6.4655,6.4655,6.4228,6.3827,6.3726,6.3324,6.2973,6.2847,6.2822,6.2873,6.2998,6.3023,6.3249,6.3802,6.3977,6.4379,6.5208,6.5409,6.5484,6.5484,6.5886,6.5936,6.5509,6.5886,6.6112,6.6112,6.6112,6.6112,6.6112,6.6112,6.6112,6.6112,6.6112,6.6112,6.6112,6.6112,6.6112,6.6112,6.6112,6.6112,6.6112,6.6112,6.6112,6.6112,6.6112,6.6112,6.6112,6.6112,6.6112,6.6112,6.9325,6.9401,6.9311,6.9336,6.9361,6.9361,6.9361,6.9361,6.925,6.8748,6.8673,6.8673,6.8673,6.8673,6.8899,6.9401,6.8472,6.7869,6.7869,6.6764,6.5886,6.5383,6.3802,6.3174,6.3626,6.3099,6.2822,6.2822,6.2822,6.2822,6.2822,6.2822,6.2822,6.2822,6.2822,6.2822,6.2822,6.2822,6.2822,6.2822,6.2822,6.2822,6.2822,6.2822,6.2822,6.2822,6.2822,6.2822,6.2822,6.2822,6.2822,6.2822,6.2822,6.3199,6.3626,6.3626,6.3977,6.4354,6.4404,6.4404,6.4404,6.4454,6.4856,6.5233,6.5233,6.5233,6.5233,6.5233,6.4781,6.4254,6.3776,6.3651,6.345,6.2923,6.2822,6.3023,6.355,6.3626,6.3827,6.4354,6.4856,6.5208,6.5283,6.576,6.6061,6.6061,6.6086,6.6086,6.6061,6.6086,6.6112,6.6112,6.6112,6.6112,6.6112,6.6112,6.6112,6.6112,6.6112,6.6112,6.6112,6.6112,6.6112,6.6112,6.6112,6.6112,6.6112,6.6112,6.6112,6.6112,6.6112,6.6112,6.6112,6.6112,6.6112,6.6112,6.92,6.9175,6.9049,6.9285,6.9361,6.9325,6.8974,6.9225,6.925,6.8698,6.8924,6.9125,6.9125,6.9125,6.9225,6.9336,6.9049,6.8673,6.8346,6.7593,6.6438,6.4856,6.4178,6.3626,6.3174,6.2948,6.2822,6.2822,6.2822,6.2822,6.2822,6.2822,6.2822,6.2822,6.2822,6.2822,6.2822,6.2822,6.2822,6.2822,6.2822,6.2822,6.2822,6.2822,6.2822,6.2822,6.2822,6.2822,6.2822,6.2822,6.2822,6.2898,6.3249,6.3525,6.3827,6.4479,6.4831,6.5057,6.5383,6.5233,6.5057,6.5409,6.5634,6.581,6.581,6.581,6.581,6.581,6.5358,6.4806,6.4279,6.4178,6.4002,6.345,6.3626,6.3927,6.4128,6.4178,6.4379,6.4906,6.5157,6.5434,6.576,6.5986,6.6112,6.6112,6.6112,6.6112,6.6112,6.6112,6.6287,6.6639,6.6639,6.6488,6.6112,6.6112,6.6112,6.6112,6.6112,6.6112,6.6112,6.6112,6.6112,6.6112,6.6112,6.6112,6.6112,6.6112,6.6112,6.6112,6.6112,6.6112,6.6112,6.6112,6.6112,6.6162,6.8974,6.9024,6.8999,6.9376,6.93,6.9125,6.8899,6.9049,6.9125,6.8899,6.92,6.9361,6.9361,6.9361,6.9361,6.9361,6.93,6.8949,6.8396,6.7518,6.6237,6.453,6.4304,6.3776,6.2847,6.2822,6.2822,6.2822,6.2822,6.2822,6.2822,6.2822,6.2822,6.2822,6.2822,6.2822,6.2822,6.2822,6.2822,6.2822,6.2822,6.2822,6.2822,6.2822,6.2822,6.2822,6.2822,6.2948,6.3073,6.2898,6.3048,6.3375,6.3626,6.4053,6.463,6.5559,6.5936,6.6162,6.6538,6.6363,6.6086,6.6112,6.6112,6.6112,6.6112,6.6112,6.6112,6.6112,6.581,6.5383,6.4831,6.4731,6.4555,6.4028,6.4228,6.453,6.4705,6.4731,6.4931,6.5484,6.5534,6.5685,6.6086,6.6112,6.6112,6.6112,6.6112,6.6112,6.6112,6.6112,6.6388,6.6965,6.6965,6.6865,6.6639,6.6463,6.6287,6.6112,6.6112,6.6112,6.6112,6.6112,6.6112,6.6112,6.6112,6.6112,6.6112,6.6112,6.6112,6.6112,6.6112,6.6112,6.6137,6.6312,6.6388,6.6463,6.8622,6.9074,6.9451,6.9361,6.8999,6.8798,6.9351,6.8974,6.8823,6.9285,6.9361,6.9361,6.9361,6.9361,6.9361,6.9361,6.8949,6.8396,6.7819,6.6212,6.5032,6.4479,6.3977,6.3425,6.2847,6.2847,6.2847,6.2847,6.2847,6.2822,6.2822,6.2822,6.2822,6.2822,6.2822,6.2822,6.2822,6.2822,6.2822,6.2822,6.2822,6.2822,6.2847,6.2847,6.2847,6.2847,6.2847,6.3199,6.3601,6.3048,6.355,6.4379,6.3877,6.4806,6.6237,6.6815,6.7367,6.7794,6.7794,6.7794,6.7543,6.6413,6.6112,6.6112,6.6112,6.6112,6.6112,6.6112,6.6112,6.5936,6.5383,6.5283,6.5107,6.4555,6.4479,6.468,6.5208,6.5308,6.5484,6.6036,6.6112,6.6112,6.6112,6.6112,6.6112,6.6112,6.6112,6.6112,6.6112,6.6112,6.6388,6.6965,6.699,6.7267,6.7794,6.7267,6.6689,6.6137,6.6137,6.6137,6.6137,6.6137,6.6137,6.6137,6.6112,6.6112,6.6112,6.6112,6.6112,6.6112,6.6112,6.6112,6.6187,6.6764,6.6965,6.7066,6.8472,6.8748,6.8999,6.9285,6.93,6.9125,6.8899,6.9049,6.9125,6.8899,6.92,6.9361,6.9361,6.9361,6.9361,6.9361,6.8949,6.8045,6.6689,6.5785,6.4881,6.3977,6.3776,6.3626,6.345,6.3425,6.3425,6.3425,6.3425,6.3224,6.2822,6.2822,6.2822,6.2822,6.2822,6.2822,6.2822,6.2822,6.2822,6.2822,6.2822,6.3073,6.3425,6.3425,6.3651,6.3977,6.3977,6.4078,6.4203,6.4028,6.4203,6.4505,6.4731,6.5685,6.6764,6.6915,6.7367,6.7794,6.7794,6.7794,6.7719,6.7392,6.7015,6.6714,6.6714,6.6714,6.6614,6.6187,6.6438,6.6413,6.5459,6.5609,6.5685,6.5132,6.5383,6.5685,6.5835,6.586,6.5936,6.6086,6.6112,6.6112,6.6112,6.6488,6.6564,6.6137,6.6112,6.6287,6.6689,6.6714,6.7141,6.8095,6.812,6.8221,6.8371,6.7819,6.7467,6.7292,6.7292,6.7292,6.7292,6.7292,6.7292,6.7267,6.689,6.6714,6.6689,6.6287,6.6112,6.6112,6.6112,6.6363,6.6739,6.6915,6.7216,6.7643,6.7869,6.8321,6.8723,6.9049,6.8949,6.8823,6.8924,6.9049,6.9074,6.8949,6.925,6.9351,6.915,6.9125,6.9024,6.8823,6.8296,6.7543,6.6513,6.5509,6.4781,6.4329,6.3927,6.3701,6.3701,6.3902,6.4002,6.4002,6.3802,6.3626,6.3475,6.3023,6.2948,6.3149,6.2923,6.2822,6.2822,6.2822,6.2822,6.2822,6.2822,6.3174,6.3701,6.3701,6.4002,6.4454,6.4454,6.4605,6.4756,6.453,6.4605,6.4982,6.5961,6.6739,6.7342,6.7568,6.802,6.8447,6.8447,6.8447,6.8447,6.8447,6.7869,6.7241,6.7015,6.6965,6.6815,6.6237,6.6388,6.6438,6.5735,6.5886,6.6011,6.566,6.5886,6.6187,6.6413,6.6463,6.6538,6.6764,6.6789,6.6789,6.6789,6.7091,6.7066,6.6488,6.6664,6.684,6.6965,6.7191,6.7719,6.8597,6.8622,6.8723,6.8949,6.8622,6.8221,6.7794,6.7794,6.7794,6.7794,6.7794,6.7794,6.7769,6.7442,6.7317,6.7267,6.6689,6.6463,6.6463,6.6463,6.6664,6.7015,6.7467,6.7844,6.8196,6.7066,6.7794,6.8497,6.8597,6.8221,6.8221,6.9225,6.8949,6.8798,6.925,6.9351,6.9175,6.8673,6.8622,6.8422,6.7919,6.7317,6.694,6.684,6.5383,6.4756,6.5208,6.4329,6.3827,6.3827,6.4304,6.453,6.453,6.4078,6.4053,6.4454,6.345,6.3249,6.3726,6.3174,6.2923,6.2973,6.2923,6.2923,6.2973,6.2973,6.3324,6.3827,6.3827,6.4153,6.463,6.468,6.4982,6.5308,6.4831,6.5032,6.571,6.7292,6.7819,6.797,6.8472,6.8999,6.9361,6.9361,6.9361,6.9361,6.9361,6.8698,6.7794,6.7241,6.7116,6.694,6.6312,6.6237,6.6237,6.6137,6.6162,6.6162,6.6112,6.6162,6.6363,6.689,6.6965,6.7191,6.7744,6.7794,6.7794,6.7794,6.7794,6.7618,6.7166,6.7543,6.7593,6.7141,6.7593,6.812,6.8673,6.8698,6.8949,6.9451,6.9361,6.8949,6.7945,6.7945,6.7945,6.7945,6.7945,6.7945,6.7945,6.7894,6.7869,6.7819,6.7267,6.7041,6.7041,6.7041,6.7091,6.7241,6.8246,6.8648,6.8773,6.6915,6.7166,6.7593,6.8472,6.8522,6.8522,6.8773,6.8698,6.8497,6.8196,6.8522,6.8748,6.8648,6.8622,6.8572,6.8447,6.7543,6.6589,6.571,6.5308,6.4982,6.4655,6.4831,6.4931,6.4931,6.5057,6.5107,6.5107,6.5007,6.4781,6.4454,6.4228,6.4178,6.4279,6.3751,6.3726,6.4078,6.3676,6.3751,6.4103,6.4103,6.4454,6.4931,6.4931,6.5283,6.581,6.6262,6.6212,6.5986,6.6312,6.6513,6.6739,6.7543,6.8095,6.8472,6.8597,6.8999,6.9361,6.9361,6.9361,6.9361,6.9361,6.9275,6.8949,6.8396,6.8271,6.7995,6.699,6.7141,6.7166,6.6262,6.6488,6.6639,6.6187,6.6488,6.684,6.6965,6.6965,6.7191,6.7744,6.7794,6.7794,6.7794,6.7794,6.7919,6.8246,6.797,6.7945,6.8246,6.8371,6.8698,6.925,6.9275,6.9325,6.9361,6.9361,6.9325,6.91,6.91,6.91,6.91,6.91,6.91,6.9074,6.8622,6.8447,6.8396,6.7844,6.7618,6.7618,6.7618,6.7869,6.8296,6.8522,6.8899,6.9275,6.6564,6.699,6.7543,6.812,6.8447,6.8622,6.8622,6.8622,6.8422,6.7869,6.8045,6.8221,6.8221,6.7995,6.7719,6.7442,6.689,6.6312,6.571,6.5434,6.5283,6.5258,6.5283,6.5409,6.5685,6.5685,6.5685,6.5685,6.5434,6.5283,6.5233,6.4705,6.4605,6.4831,6.4304,6.4203,6.4454,6.4178,6.4228,6.4454,6.4454,6.4806,6.5283,6.5283,6.581,6.6564,6.6865,6.694,6.7015,6.7568,6.7593,6.7518,6.8321,6.8597,6.8673,6.8949,6.9225,6.9361,6.9361,6.9361,6.9361,6.9361,6.9361,6.93,6.8748,6.8622,6.8396,6.7543,6.7593,6.7618,6.7015,6.7166,6.7267,6.6965,6.7392,6.7769,6.7769,6.7995,6.8271,6.8547,6.8572,6.8572,6.8572,6.8572,6.8597,6.8622,6.8597,6.8597,6.8622,6.8874,6.915,6.9336,6.9361,6.9361,6.9361,6.9361,6.9361,6.9361,6.9361,6.9361,6.9361,6.9361,6.9361,6.9336,6.915,6.9024,6.8974,6.8422,6.8196,6.8196,6.8196,6.8371,6.8648,6.8924,6.92,6.9361,6.6212,6.694,6.7668,6.7668,6.812,6.8447,6.8346,6.8422,6.8296,6.7744,6.7819,6.7945,6.7945,6.7442,6.684,6.6162,6.6112,6.6112,6.6112,6.5785,6.5785,6.6237,6.5911,6.5936,6.6388,6.6312,6.6212,6.6112,6.566,6.566,6.6086,6.5183,6.4982,6.5409,6.4856,6.4655,6.4731,6.4655,6.4655,6.4756,6.4756,6.5032,6.5434,6.5434,6.6061,6.699,6.7091,6.7467,6.802,6.8472,6.8321,6.812,6.9125,6.9125,6.8848,6.93,6.9361,6.9361,6.9361,6.9361,6.9361,6.9361,6.9361,6.9325,6.8874,6.8773,6.8597,6.8045,6.7945,6.7919,6.7819,6.7869,6.7945,6.7945,6.8396,6.8798,6.8899,6.92,6.9476,6.9577,6.9501,6.9361,6.9361,6.9361,6.925,6.8798,6.92,6.925,6.8798,6.92,6.9361,6.9361,6.9361,6.9361,6.9361,6.9361,6.9501,6.9577,6.9577,6.9526,6.9361,6.9361,6.9361,6.9361,6.9361,6.9361,6.9401,6.8949,6.8773,6.8773,6.8773,6.8773,6.8823,6.9275,6.9361,6.9451,6.6137,6.6639,6.7091,6.7091,6.7543,6.7744,6.7267,6.7593,6.7719,6.7166,6.7919,6.8497,6.8497,6.802,6.7267,6.6212,6.6112,6.6112,6.6112,6.6513,6.6789,6.6865,6.7241,6.7493,6.7568,6.7116,6.6614,6.6112,6.6036,6.6036,6.6112,6.5961,6.5936,6.5986,6.5434,6.5434,6.586,6.5383,6.5459,6.5886,6.5886,6.5936,6.5986,6.5986,6.6413,6.7041,6.7518,6.8045,6.8522,6.8597,6.8572,6.8622,6.925,6.9311,6.9351,6.9426,6.9361,6.9361,6.9361,6.9361,6.9361,6.9361,6.9361,6.9336,6.9351,6.9325,6.9175,6.8622,6.8497,6.8371,6.7894,6.8196,6.8497,6.8497,6.8974,6.9501,6.9978,6.9702,6.9627,7.0104,6.9727,6.9361,6.9361,6.9361,6.9401,6.9351,6.9401,6.9401,6.9351,6.9401,6.9361,6.9361,6.9361,6.9361,6.9361,6.9361,6.9677,7.0154,7.0154,6.9903,6.9361,6.9361,6.9361,6.9361,6.9361,6.9361,6.9336,6.9351,6.9325,6.9325,6.9325,6.9325,6.9351,6.9336,6.9361,6.9501,6.6112,6.6589,6.6965,6.6965,6.7417,6.7618,6.7066,6.7442,6.7493,6.6614,6.7191,6.7693,6.7693,6.7769,6.7593,6.7091,6.6764,6.6739,6.7041,6.7015,6.7116,6.7417,6.7668,6.7794,6.7794,6.7568,6.7317,6.7066,6.6413,6.6112,6.6112,6.6112,6.6112,6.6112,6.586,6.5886,6.6112,6.6187,6.6187,6.6137,6.6463,6.6589,6.6589,6.6589,6.7141,6.797,6.8522,6.8874,6.9074,6.9074,6.9074,6.9175,6.9727,6.9702,6.9577,7.0179,7.0154,6.9978,7.028,7.0581,7.0832,7.0832,7.0832,7.0832,7.0832,7.0581,7.0204,6.9652,6.9526,6.9451,6.9225,6.9376,6.9526,6.9526,7.0003,7.033,7.028,7.0305,7.0229,6.9853,6.9602,6.9361,6.9361,6.9361,6.9361,6.9361,6.9361,6.9361,6.9361,6.9361,6.9361,6.9361,6.9361,6.9602,6.9903,6.9903,7.0029,7.0255,7.0581,7.0606,7.0355,7.0355,7.0355,7.033,7.0029,6.9903,6.9878,6.9577,6.9627,6.9903,6.9903,6.9903,6.9903,6.9903,6.9903,6.9978]}]]